ECMWFNIL_con_mucape_000.txt.gz
CAPE
496 441 191 123 186 170 226 164 194 212 326 292 241 222 220 192 221 187 78 98 155 173 201 216 244 268 264 240 320 392 496 776 1008 944 958 900 892 817 667 780 748 1193
349 274 285 169 246 286 231 180 220 290 295 281 260 244 182 188 118 113 125 120 82 99 203 224 242 258 246 160 248 299 430 795 992 775 865 1077 1022 960 1061 1482 1594 1607
300 172 129 114 7 0 16 162 318 246 219 180 209 174 148 149 144 137 142 124 150 122 156 198 223 258 243 234 328 416 401 532 770 876 1028 1094 854 1084 1014 1234 1617 1198
421 226 78 62 50 1 14 161 267 228 184 142 124 129 140 178 194 196 194 225 226 199 180 196 222 252 321 373 390 327 257 458 598 773 1206 1424 1262 880 308 658 1349 1586
181 193 236 61 16 28 94 200 223 204 215 172 146 140 168 179 209 175 177 212 340 307 178 207 251 310 405 520 651 689 723 564 271 293 332 442 599 616 758 1200 1149 546
274 159 131 76 31 7 12 48 155 188 194 156 155 122 140 162 212 234 275 332 296 281 337 298 362 378 438 561 760 1085 1091 656 531 423 398 460 341 248 365 568 453 444
258 282 218 131 36 34 37 98 165 153 128 185 250 271 246 205 241 344 487 619 736 837 834 920 754 716 707 931 1134 1115 794 785 792 732 478 670 664 638 554 509 294 224
292 192 114 49 12 14 58 142 116 114 125 157 204 190 240 275 362 459 535 718 796 868 1019 1419 1263 864 864 983 952 1122 1121 1111 1117 683 676 502 470 362 585 550 282 410
382 255 194 90 21 10 4 0 1 6 27 110 167 162 187 275 356 431 544 736 877 1034 1371 1588 1415 1070 878 886 1038 1153 1149 831 841 992 747 511 267 273 168 162 272 288
425 352 169 9 0 0 0 0 1 9 13 17 104 180 229 370 483 651 842 978 1202 1329 1407 1459 1458 1324 1109 789 1068 1038 1079 1148 834 951 762 474 245 261 217 221 190 172
534 308 106 36 20 2 0 0 1 1 4 32 104 277 444 483 538 654 973 1280 1425 1400 1350 1428 1192 1154 1248 1296 1244 1211 1046 868 1063 1134 961 304 208 182 70 122 57 20
427 294 88 26 22 8 6 26 18 24 20 4 0 0 2 8 47 195 669 1264 1388 1308 1376 1463 1562 1546 1467 1535 1289 1206 1151 1126 1042 866 484 204 196 126 79 54 22 6
321 204 106 31 21 14 23 14 19 8 10 18 9 4 1 17 67 145 216 756 1354 1438 1302 1275 1498 1510 1628 1585 1427 1098 846 915 1027 913 400 205 214 98 56 42 18 14
286 177 73 44 28 22 25 46 82 68 96 67 18 6 0 0 6 114 168 276 386 772 1194 1542 1594 1558 1636 1636 1451 1080 951 878 750 616 339 213 130 46 40 35 8 13
384 192 45 29 20 58 85 160 179 157 100 54 12 2 0 0 63 169 276 403 498 797 1462 1738 1533 1536 1676 1616 1112 843 824 812 754 679 430 100 104 86 33 17 3 6
392 311 162 82 76 108 226 270 113 80 50 22 12 2 0 21 260 436 484 593 604 578 946 1570 1626 1748 1461 731 321 694 730 806 723 716 656 283 107 67 17 4 0 1
372 326 235 158 166 183 246 356 284 138 29 16 24 33 62 324 394 417 420 403 474 782 1098 1555 1638 1784 1302 644 430 445 861 833 678 685 630 350 108 64 39 20 6 3
324 294 258 171 177 298 384 421 273 192 35 36 31 28 34 66 186 394 477 531 748 998 1143 1430 1481 1406 1281 874 551 552 640 922 680 573 619 640 274 176 85 49 48 40
379 278 215 198 228 322 369 418 314 196 78 24 5 8 35 201 274 255 390 553 717 785 762 1007 1210 1428 1316 1068 645 640 679 704 737 526 798 722 546 460 180 60 110 106
297 286 263 248 349 407 450 453 290 141 56 5 0 11 33 109 190 275 327 428 391 470 647 879 1207 948 1140 1101 712 734 743 586 784 526 554 658 732 572 393 176 154 118
344 326 425 527 605 558 657 699 261 70 36 14 2 3 23 151 252 285 357 415 410 400 435 444 545 1232 1234 1016 709 746 754 388 843 590 658 734 809 620 369 344 214 140
405 444 508 867 716 673 736 546 85 28 22 24 150 162 181 238 432 539 780 884 682 510 484 640 509 1019 1241 1050 702 611 754 1010 564 405 500 610 920 832 576 478 278 186
446 489 510 528 598 644 696 386 70 26 16 48 204 196 89 52 110 80 292 720 771 701 444 542 765 1324 1132 1098 846 562 484 1093 332 278 458 846 1086 1008 799 406 351 320
604 596 444 401 514 661 645 216 62 40 40 274 236 104 138 208 107 10 33 556 632 545 504 602 235 330 924 1098 1076 792 708 1274 581 335 388 851 971 1235 1106 507 452 310
579 451 409 385 557 463 351 200 181 130 79 498 335 186 356 657 374 492 573 710 184 102 293 630 760 361 754 1054 1152 999 868 1611 1361 553 642 795 772 1324 1380 924 558 392
598 518 533 506 430 412 563 662 485 316 222 208 180 72 203 447 782 496 544 655 691 865 788 295 576 728 570 842 1007 1220 1138 1461 1490 1133 846 796 942 1592 1537 889 627 540

ECMWFNIL_con_mucape_003.txt.gz
CAPE
432 534 371 279 334 319 256 226 182 116 127 214 335 309 340 386 426 461 356 286 261 205 204 228 219 200 188 184 212 208 193 173 223 364 394 684 567 526 373 395 770 974
344 372 410 371 398 284 274 187 122 218 354 391 400 418 389 357 342 290 311 319 272 220 190 205 196 175 189 134 173 167 204 276 259 252 356 630 609 354 257 415 241 294
384 261 280 400 298 222 17 60 91 271 320 316 332 326 342 240 277 290 296 261 271 225 180 176 151 135 124 138 176 194 126 138 198 370 327 266 488 788 545 526 754 695
445 298 140 138 205 147 79 52 174 225 268 232 233 235 213 235 208 243 254 238 224 189 190 211 155 132 137 154 178 299 246 278 237 157 131 208 382 454 365 234 149 139
246 248 300 220 160 124 41 28 142 164 181 177 169 175 204 178 203 194 208 178 165 126 88 74 84 106 142 158 210 373 482 467 275 227 409 476 464 464 512 499 452 264
274 260 264 297 230 149 132 84 77 138 157 121 158 135 150 152 190 208 204 184 132 92 97 136 124 96 170 256 383 581 837 688 630 692 1018 1017 701 530 585 505 382 266
370 444 432 365 250 206 132 139 108 145 159 178 188 208 158 145 173 221 269 237 220 235 258 443 568 516 393 402 458 666 758 781 982 904 698 727 747 445 319 294 266 248
363 312 370 398 304 203 124 99 20 11 109 218 143 193 180 167 168 155 201 198 230 213 294 368 609 742 564 456 522 546 590 691 644 684 909 859 870 465 84 164 227 231
362 320 340 282 214 128 51 6 12 17 8 10 110 79 103 159 158 200 297 374 380 422 536 686 979 787 740 899 596 591 1030 1108 676 815 972 1105 1017 380 223 231 202 224
523 518 310 202 130 121 58 18 0 7 31 28 18 3 8 85 166 246 317 333 375 464 438 597 846 856 914 738 523 730 1086 1156 902 880 938 905 502 265 220 219 200 204
614 493 410 376 244 65 19 2 0 3 3 4 15 44 31 2 10 38 87 128 156 295 918 1312 815 323 479 657 661 820 1048 1078 1065 1041 828 779 492 312 220 186 206 188
633 516 362 248 176 102 101 82 26 4 18 27 17 14 2 0 0 0 2 31 87 122 371 1020 970 802 632 738 808 952 961 1097 976 919 729 576 430 318 256 203 159 100
465 436 377 240 137 109 117 54 5 0 1 41 16 14 0 0 0 0 0 2 54 78 64 329 847 817 972 539 622 924 1229 1308 1082 946 578 543 452 331 273 283 127 86
310 298 272 258 164 129 118 98 70 33 121 205 163 94 16 0 0 1 0 2 28 51 84 86 445 1243 1085 711 521 623 860 1014 962 1014 683 551 497 446 346 322 199 135
384 346 266 194 134 170 185 214 179 190 247 199 116 79 48 15 12 8 41 54 52 80 193 310 605 1341 1214 918 1020 1056 980 864 864 916 582 504 586 466 356 310 262 139
602 527 494 354 264 210 252 288 236 253 333 274 166 65 63 52 82 88 60 46 48 87 196 405 821 1286 992 760 803 1134 881 787 916 736 577 542 553 477 339 256 358 231
538 583 595 576 534 408 372 397 458 663 592 418 252 129 151 134 91 50 39 68 105 235 466 682 881 935 821 986 1059 1042 840 928 928 641 473 411 475 440 395 427 490 346
474 451 517 538 552 528 490 496 598 590 622 519 316 173 128 42 25 43 78 151 219 409 592 704 762 654 828 939 990 954 816 1030 978 718 425 323 321 420 586 572 404 276
423 428 362 408 547 575 591 601 640 668 657 562 278 92 38 62 74 59 82 141 262 360 354 368 626 479 708 778 906 894 758 662 957 836 370 230 246 428 751 742 413 443
342 356 385 367 460 576 654 740 766 796 710 454 160 104 68 44 30 97 208 396 650 484 474 383 314 470 500 702 833 895 768 688 1145 996 460 398 524 757 894 888 876 809
324 277 398 414 479 688 851 930 998 1188 870 349 94 66 84 146 161 161 306 785 398 582 558 523 309 185 268 442 613 757 764 590 1106 1145 595 468 484 636 874 1006 1019 919
318 319 450 514 636 851 1173 1183 1140 1294 931 366 135 80 133 191 148 112 97 323 560 454 426 322 396 338 143 20 342 691 741 916 1255 1234 626 211 302 574 1096 1191 1304 1436
264 252 334 465 512 631 743 968 1088 1102 717 308 131 153 248 176 187 250 229 232 359 408 382 416 334 412 484 235 0 427 786 1254 1248 898 454 214 351 553 877 1041 1212 1324
304 331 479 544 552 454 493 721 886 877 499 272 179 137 133 102 314 351 448 464 524 566 396 427 396 385 305 215 0 0 451 1244 927 483 1151 843 800 833 1031 1249 1518 1038
254 313 522 734 549 333 425 580 605 604 517 423 302 190 262 420 390 393 411 424 361 360 324 366 394 409 500 492 27 0 0 752 1280 901 1182 911 610 732 760 968 1056 1237
308 419 714 680 466 326 367 498 475 594 658 551 467 193 76 24 56 93 478 606 540 374 313 347 417 501 654 538 360 0 0 264 1053 771 1008 881 924 384 320 244 327 426

ECMWFNIL_con_mucape_006.txt.gz
CAPE
979 1127 776 1005 1606 945 608 435 533 275 425 582 901 811 857 689 900 911 785 908 828 842 900 830 786 763 692 700 736 762 751 670 678 724 588 716 814 536 498 641 574 448
868 943 532 688 693 722 602 575 683 606 455 667 829 858 818 810 728 766 846 770 802 784 791 704 684 708 732 540 676 655 796 773 640 334 560 460 469 434 411 404 367 443
704 384 696 557 620 696 358 297 397 240 542 496 402 544 874 753 780 703 852 785 754 798 822 685 620 729 697 626 699 693 555 644 666 569 484 559 536 509 462 335 423 413
903 573 441 441 401 98 273 370 437 640 497 1077 463 521 440 528 574 633 754 755 828 856 826 617 583 571 603 614 620 767 676 785 587 577 520 633 688 576 526 588 539 430
1048 831 559 418 580 567 547 217 47 256 348 363 240 640 891 465 755 592 601 721 852 610 618 890 759 557 613 487 595 788 749 901 840 635 812 782 942 774 558 498 472 300
889 545 662 651 426 442 462 332 224 53 254 99 408 330 282 423 538 562 492 518 305 332 428 488 470 501 505 497 696 905 930 1016 980 900 803 716 688 726 505 397 363 329
748 649 505 485 462 464 443 310 416 490 145 373 612 599 357 467 603 702 740 590 571 712 589 710 752 825 822 844 860 954 982 1012 878 843 755 779 915 832 614 400 433 399
738 785 791 833 628 655 573 454 391 480 686 725 465 824 771 487 650 529 564 731 559 641 880 883 882 916 782 794 888 791 661 687 726 744 769 685 891 904 562 457 400 377
981 948 940 817 738 606 246 189 208 493 412 382 371 220 755 812 839 689 933 942 849 846 950 931 948 998 1070 839 833 806 752 770 907 1125 900 876 792 684 496 443 412 374
883 938 602 327 175 327 118 78 9 1 162 715 9 147 230 477 421 503 674 839 933 845 835 880 955 1182 1357 1077 866 811 774 788 762 904 863 883 787 669 476 436 370 339
830 714 639 602 385 103 97 22 0 11 96 16 119 173 526 706 662 507 632 874 915 812 745 748 876 1117 1242 1236 1222 1102 984 778 742 895 953 862 805 724 526 534 440 361
894 772 632 639 556 357 212 158 126 176 70 54 10 26 273 111 345 414 476 818 858 798 686 692 799 1073 1324 1396 1266 1153 1036 921 885 1002 943 865 831 628 543 510 450 415
958 955 871 511 745 612 470 195 80 7 22 128 66 106 25 31 102 337 670 602 695 810 760 732 757 700 1348 1513 1555 1436 1288 1174 1052 1072 1075 857 765 605 468 411 436 420
812 1031 905 979 815 922 553 286 249 114 296 508 402 234 204 206 46 138 202 315 438 338 402 516 554 590 973 1729 1824 1666 1468 1264 1216 1143 1052 956 837 696 574 444 455 456
1009 904 953 1057 883 952 775 673 617 463 602 718 755 605 441 292 186 200 423 510 428 486 658 856 673 564 636 1393 1791 1580 1445 1171 1196 1129 980 864 872 726 618 637 592 504
1118 1002 1038 1006 987 902 891 775 623 815 567 670 787 733 733 705 823 775 274 222 417 482 487 458 615 895 894 907 869 1279 1322 1024 875 958 1085 1030 958 811 660 604 583 547
1327 1270 1200 1207 1150 906 858 864 946 939 1027 1082 1186 1158 1070 867 754 777 192 99 192 170 278 415 675 776 676 477 435 507 932 1182 1302 1281 1233 1160 940 678 579 646 675 664
1332 1379 1322 1387 1310 1276 1193 1146 1137 1215 1254 1307 1268 1097 1309 1218 654 582 542 489 296 262 374 540 648 506 211 209 470 613 743 1095 1188 1094 1017 1020 908 740 611 568 664 702
1385 1288 1281 1329 1323 1267 1348 1312 1388 1322 1256 1219 1119 1181 1064 927 856 671 580 628 522 779 522 390 312 584 80 66 412 531 641 693 948 1105 1108 1128 1052 869 724 724 834 1023
1437 1234 1200 1203 1309 1360 1496 1467 1298 1299 1297 1015 1044 1120 1073 991 656 464 559 713 1158 1218 1092 810 683 416 72 27 30 184 506 567 849 1096 1176 1217 1144 903 757 719 833 1176
1534 1351 1174 1249 1226 1340 1433 1432 1352 1438 1440 1385 1135 1068 894 905 895 816 729 592 1277 805 730 713 492 363 6 0 0 0 332 360 732 1130 1293 1365 1268 996 750 779 992 537
1420 1402 1219 1190 1287 1269 1308 1347 1529 1811 1940 2005 1591 1139 835 610 600 676 694 472 940 1155 571 718 322 108 7 0 0 0 0 163 749 1138 1392 1480 1238 893 950 1101 728 137
1203 1218 1278 1180 1283 1182 1230 1260 1481 1619 1560 1990 1479 1108 822 552 500 513 552 569 474 541 613 708 637 319 1 0 0 0 0 510 1016 1245 1491 1382 1120 1096 1328 1017 844 450
1369 1269 1371 1343 1266 1169 1190 1301 988 1277 1590 1776 1250 1049 638 369 259 378 620 685 688 617 211 400 407 410 16 0 0 0 64 446 869 1270 1297 1269 1133 1335 1470 1295 1211 772
1511 1327 1197 1220 1333 1172 1008 1003 1122 1120 1214 1246 820 778 797 909 527 320 488 602 358 219 288 312 305 123 0 0 0 162 9 476 980 1064 1190 1405 1454 1259 1118 1316 1435 1447
1328 1544 1305 1212 1272 1418 1333 1412 1354 916 650 320 530 650 770 786 646 244 276 234 79 88 134 452 401 648 570 226 0 0 0 96 652 1189 1310 1328 1285 1252 1142 1007 665 535

ECMWFNIL_con_mucape_009.txt.gz
CAPE
303 128 520 0 130 561 16 420 292 163 247 171 169 326 296 476 345 282 367 567 641 510 555 493 640 570 589 451 532 623 576 473 481 399 458 305 248 385 190 213 193 146
188 369 1092 667 878 1024 193 19 207 14 111 98 78 126 435 233 182 301 599 341 525 377 470 521 383 358 365 434 378 414 421 534 437 772 381 268 286 186 237 180 123 184
344 586 301 90 155 288 62 20 388 116 5 0 268 314 96 308 414 408 88 192 184 344 455 493 407 371 412 443 384 481 501 336 332 451 444 176 273 264 194 187 258 247
319 394 77 144 157 258 153 319 182 3 1 99 282 436 320 209 52 14 223 1094 588 444 484 554 458 351 351 272 299 328 414 483 429 406 273 363 453 421 351 343 463 353
198 267 164 227 170 289 159 13 0 27 91 108 121 0 75 127 274 283 178 276 428 420 277 298 527 664 577 530 424 378 528 546 631 617 422 319 355 585 602 412 290 161
363 135 138 165 271 146 60 0 1 0 0 36 12 210 204 177 30 2 133 114 91 90 69 129 177 336 401 415 422 388 364 520 714 778 672 604 581 614 568 321 273 130
432 204 160 167 214 168 2 0 0 16 2 0 31 31 81 16 12 94 104 97 173 271 211 228 427 464 618 653 548 504 651 703 699 714 690 642 614 659 617 383 285 162
201 144 199 190 166 76 152 7 0 0 8 114 83 95 172 47 50 117 256 338 250 209 298 396 401 413 312 465 524 604 609 552 459 489 583 598 518 529 639 323 240 147
159 58 102 163 125 182 46 50 26 1 18 63 33 22 147 90 110 161 215 201 197 182 149 215 268 294 478 636 528 480 439 439 580 691 771 766 631 569 512 310 282 207
348 270 239 201 197 218 175 97 51 7 29 29 81 75 48 284 215 175 181 210 204 277 248 224 283 369 519 608 573 603 520 407 423 397 507 540 465 503 533 369 295 208
408 492 403 292 276 246 235 112 18 1 113 130 34 10 7 8 242 286 232 251 235 185 196 268 299 360 495 766 826 756 678 586 506 400 317 304 416 523 559 440 321 246
365 464 339 304 197 109 71 28 7 23 0 10 27 70 107 84 0 34 121 14 44 176 276 186 160 272 510 788 880 915 883 771 659 575 566 661 707 621 530 438 338 307
378 277 375 276 251 160 62 33 64 1 4 1 7 9 2 0 0 0 0 12 238 418 279 194 142 197 259 580 851 879 839 790 728 708 716 773 767 666 578 512 437 359
278 346 325 290 274 259 235 161 59 68 57 81 99 1 3 4 1 0 0 111 74 23 2 10 6 23 60 466 859 984 1051 1041 1004 935 825 748 737 672 581 531 468 401
338 421 285 505 551 480 383 226 100 122 103 56 22 99 172 31 21 34 44 58 49 18 8 40 281 401 543 938 1062 1317 1411 1340 1188 994 884 802 562 444 493 529 511 443
424 475 411 501 476 398 326 147 85 144 199 184 206 248 192 366 295 200 274 143 22 21 226 253 36 366 740 730 1378 1467 1485 1373 1210 1098 965 673 501 552 646 650 546 352
691 773 671 601 454 291 279 228 233 302 291 230 229 304 338 310 438 329 103 21 9 9 1 1 121 757 364 240 345 755 922 962 999 937 793 662 745 817 753 607 430 226
406 592 617 553 474 405 406 267 264 308 329 406 413 473 457 497 467 375 205 204 129 19 7 81 432 510 286 132 134 140 230 442 514 691 855 942 857 672 583 511 495 423
247 535 479 508 453 429 428 422 431 414 400 418 520 548 589 607 606 566 506 266 281 216 240 173 113 258 232 42 1 5 18 110 310 482 646 694 662 634 692 714 621 445
567 584 535 547 530 584 533 542 528 475 448 520 555 635 655 635 599 417 126 87 27 25 184 411 438 343 239 208 174 124 0 6 78 158 364 478 567 646 726 775 723 570
775 659 714 626 680 668 682 611 592 591 663 698 692 630 653 626 445 392 315 252 350 565 583 652 670 556 428 0 0 0 0 0 3 104 289 422 535 680 838 906 881 705
855 770 765 755 751 720 673 640 624 637 638 674 833 877 816 696 545 595 518 244 219 527 549 418 425 182 0 12 46 43 0 0 0 8 53 183 380 590 832 990 934 730
850 809 754 729 677 689 654 671 675 660 672 982 1099 917 709 519 463 319 346 97 123 384 464 86 80 0 0 0 4 20 0 0 0 38 190 440 705 983 1115 1087 967 845
1017 851 782 709 660 616 620 619 678 834 965 1264 920 665 536 507 508 482 402 140 192 184 62 0 0 0 0 0 0 0 0 34 108 142 176 294 531 741 903 976 988 1333
1172 965 829 698 572 508 488 512 548 717 960 1109 672 480 466 403 426 313 179 133 111 0 102 0 0 11 0 0 0 0 0 0 7 74 300 420 634 918 1062 1077 977 932
1296 1083 907 768 552 413 428 447 533 624 579 784 653 561 337 339 521 218 175 145 2 0 0 0 54 89 102 0 0 0 0 0 1 226 658 945 971 978 972 837 745 685

ECMWFNIL_con_mucape_012.txt.gz
CAPE
0 0 0 0 0 7 181 0 0 0 0 0 0 1 72 132 199 27 30 146 221 184 235 149 342 332 367 169 138 301 317 80 140 100 135 332 119 164 236 78 34 31
0 3 106 0 107 262 7 0 0 0 0 0 0 0 4 190 67 65 87 168 458 181 69 100 186 131 35 39 27 12 3 127 99 404 280 161 58 88 94 48 19 0
0 22 40 0 55 30 0 0 0 0 0 0 0 0 0 195 0 3 99 0 4 0 12 51 69 52 20 8 8 34 106 26 50 14 278 139 21 32 8 7 0 4
0 14 8 0 0 6 0 0 24 0 0 0 0 16 31 99 63 55 0 558 31 27 61 74 91 37 15 4 6 7 10 12 10 30 109 142 123 96 33 3 78 54
0 0 0 0 0 0 0 0 17 0 0 0 0 25 159 92 22 0 0 6 61 17 22 72 29 18 28 11 0 0 4 52 46 88 108 63 100 289 304 249 316 235
18 5 0 0 0 0 0 0 0 0 0 0 0 2 0 0 0 0 0 0 0 0 0 0 0 0 5 30 11 9 23 83 45 94 256 351 402 388 392 413 410 300
14 17 0 0 0 0 0 0 0 0 0 0 0 0 0 0 0 0 0 0 0 0 0 0 0 0 1 24 15 15 0 7 46 260 359 381 386 415 445 482 458 368
6 28 5 6 10 0 0 0 0 0 0 0 0 0 0 0 0 0 0 0 0 0 0 0 0 0 0 21 53 11 6 59 188 209 156 125 170 287 339 383 446 422
27 8 0 0 5 0 0 0 0 0 0 0 0 0 0 0 0 0 0 0 0 2 1 0 0 0 0 0 0 8 17 29 182 106 24 88 228 383 411 430 455 404
69 10 1 0 0 0 0 0 0 12 0 0 0 0 0 0 0 0 0 0 0 18 12 1 0 0 0 0 4 13 19 223 215 192 110 206 268 254 237 243 283 327
68 11 7 0 1 1 0 0 66 243 2 0 0 0 0 0 4 32 6 0 5 5 0 0 0 0 0 0 12 51 250 276 279 306 245 179 137 122 144 144 205 289
281 4 4 1 0 4 13 3 34 0 0 0 0 0 0 0 0 1 40 1 0 0 0 0 0 0 0 1 15 89 269 359 407 405 377 328 258 205 177 215 374 422
453 253 1 0 40 31 62 156 116 5 0 0 0 0 0 0 0 0 7 0 0 0 0 0 0 0 0 0 4 40 206 312 418 488 494 425 385 406 368 445 479 445
300 120 6 71 134 99 74 163 121 4 0 0 0 0 0 0 0 0 0 0 0 0 1 0 0 0 0 0 0 5 81 280 402 468 461 484 634 628 550 517 493 456
34 23 228 254 177 82 51 153 143 1 0 0 0 0 0 0 0 0 0 0 0 0 0 0 0 0 0 0 0 12 100 340 448 506 591 764 831 730 595 540 505 401
256 161 326 348 279 73 99 148 78 2 0 0 0 0 0 0 0 0 0 0 0 0 0 0 0 7 125 145 158 160 178 414 596 724 881 977 905 769 697 600 456 414
231 178 295 364 202 120 112 128 96 23 3 0 0 0 0 12 0 0 0 0 0 0 0 0 0 1 3 3 48 365 496 464 614 773 889 937 862 763 682 586 563 639
137 229 335 306 172 168 171 149 97 248 4 0 0 0 1 0 5 1 0 1 8 0 0 0 0 0 0 0 6 42 419 600 517 571 623 627 603 559 526 589 712 690
576 340 340 332 177 264 290 136 376 342 12 9 13 20 42 42 23 26 42 31 56 40 45 29 0 0 0 0 0 1 1 77 122 133 151 220 327 415 504 568 560 485
535 420 250 214 270 324 285 416 369 78 23 24 67 110 127 104 104 125 196 303 282 371 408 28 0 0 0 0 0 0 0 0 68 91 82 137 193 236 264 282 301 318
466 242 249 352 320 299 467 472 437 80 33 36 70 62 94 140 162 172 370 424 450 436 248 50 10 4 10 55 62 95 162 147 114 114 46 50 95 109 142 157 184 232
292 285 318 424 498 536 533 510 397 77 52 37 105 71 85 111 145 276 439 525 543 491 535 456 75 0 0 0 0 0 0 0 0 0 0 0 0 0 1 8 126 284
186 277 196 140 127 338 336 153 120 91 72 97 180 178 230 372 406 492 544 547 575 531 392 271 183 0 0 0 0 0 0 0 0 0 0 0 0 3 38 236 385 548
156 266 341 298 187 204 267 213 186 179 173 257 196 343 420 475 544 606 640 491 309 322 259 160 0 0 0 0 0 0 0 0 0 0 0 0 0 0 95 533 720 778
300 447 490 478 429 441 493 431 365 391 406 400 388 382 415 501 592 640 102 0 0 0 94 5 0 0 0 0 0 0 0 0 0 0 0 0 0 458 602 534 477 431
602 688 758 690 656 673 653 494 453 460 468 443 472 464 441 504 514 257 204 0 0 0 2 0 0 0 18 0 0 0 0 0 0 0 0 166 348 240 40 3 2 0

ECMWFNIL_con_mucape_015.txt.gz
CAPE
1246 810 0 0 0 0 0 0 0 0 0 0 0 0 0 0 0 0 1 1 17 0 0 0 116 6 15 0 1 0 1 0 0 0 0 0 0 0 1 2 0 0
1227 670 18 0 0 1 0 0 0 0 0 0 0 0 0 0 0 0 0 0 104 28 0 0 5 1 0 0 0 0 0 3 0 73 1 0 0 0 0 0 0 0
1244 551 0 0 0 0 0 0 0 0 0 0 0 0 0 0 0 0 0 0 5 20 0 0 0 0 0 0 0 0 0 0 0 0 24 0 0 0 0 0 0 0
866 140 0 0 0 0 0 0 0 0 0 0 0 0 0 0 0 0 0 289 0 0 0 0 0 0 0 0 0 0 0 0 0 0 0 0 0 0 0 0 0 0
207 0 0 0 0 0 0 0 0 0 0 0 0 0 2 1 0 0 0 0 0 0 0 0 0 0 0 0 0 0 0 0 0 0 0 0 0 0 0 0 0 0
51 0 0 0 0 0 0 0 0 0 0 0 0 0 0 0 0 0 0 0 0 0 0 0 0 0 0 0 0 0 0 0 0 0 0 0 0 0 0 2 53 220
70 0 0 0 0 0 0 0 0 0 0 0 0 0 0 0 0 0 0 0 0 0 0 0 0 0 0 0 0 0 0 0 0 0 0 0 0 1 0 3 54 265
0 0 0 0 0 0 0 0 0 0 0 0 0 0 0 0 0 0 0 0 0 0 0 0 0 0 0 0 0 0 0 0 0 0 0 0 0 0 1 1 7 198
232 0 0 0 0 0 0 0 0 0 0 0 0 0 0 0 0 0 0 0 0 0 0 0 0 0 0 0 0 0 0 0 0 0 0 0 0 0 0 0 0 210
0 0 0 0 0 0 0 0 0 0 0 0 0 0 0 0 0 0 0 0 0 0 0 0 0 0 0 0 0 0 0 0 0 0 0 0 0 0 0 0 3 85
43 0 0 0 0 0 0 0 0 0 0 0 0 0 0 0 0 0 0 0 0 0 0 0 0 0 0 0 0 0 0 0 0 0 0 0 0 0 19 0 0 0
234 2 308 0 0 0 0 0 0 0 0 0 0 0 0 0 0 0 0 0 0 0 0 0 0 0 0 0 0 0 0 0 0 0 0 0 0 0 0 40 32 213
456 1 57 0 0 0 0 0 0 0 0 0 0 0 0 0 0 0 0 0 0 0 0 0 0 0 0 0 0 0 0 0 0 0 0 0 0 0 258 280 256 352
610 108 0 0 0 16 0 0 0 0 0 0 0 0 0 0 0 0 0 0 0 0 0 0 0 0 0 0 0 0 0 0 0 0 0 0 2 136 251 292 335 484
947 297 252 0 0 0 0 0 0 0 0 0 0 0 0 0 0 0 0 0 0 0 0 0 0 0 0 0 0 0 0 0 0 0 0 0 2 145 220 318 490 620
1170 484 418 227 0 0 0 0 0 0 0 0 0 0 0 0 0 0 0 0 0 0 0 0 0 0 0 0 0 0 0 0 0 0 0 0 31 219 334 479 592 598
1040 761 671 46 136 0 0 0 0 1 0 0 0 0 0 0 0 0 0 0 0 0 0 0 0 0 0 0 0 24 30 0 0 0 1 23 61 310 383 427 442 404
1244 848 598 421 296 0 0 0 0 0 1 0 0 0 0 0 0 0 0 0 0 0 0 0 0 0 0 0 0 0 22 28 0 0 27 20 27 42 290 323 321 299
1276 1118 1076 740 346 129 0 0 0 1 2 0 0 0 0 0 0 0 0 0 0 0 1 0 0 215 26 16 0 0 0 0 2 7 6 9 6 7 11 72 144 141
1266 1212 810 717 424 0 1 0 0 4 31 8 5 0 0 31 0 0 0 0 0 0 6 8 273 310 322 286 81 0 0 0 0 0 0 0 0 0 0 0 12 102
1461 1336 950 875 474 71 0 0 0 17 52 38 10 0 82 337 314 38 1 26 36 48 30 36 305 378 404 409 416 184 0 0 0 0 0 0 0 0 0 0 0 2
1290 932 838 657 104 0 0 0 11 50 79 152 221 278 346 397 338 9 46 103 110 87 61 52 375 467 476 504 474 245 0 0 0 0 0 0 0 0 0 0 0 0
996 798 520 112 65 0 0 14 60 107 150 274 349 400 434 433 349 330 282 110 140 142 44 362 458 544 541 452 0 0 0 0 0 0 0 0 0 0 0 0 0 0
900 739 586 442 9 0 5 50 136 223 312 440 477 503 523 502 421 344 290 275 340 61 428 548 607 457 0 0 0 0 0 0 4 0 0 0 0 0 0 0 0 340
938 818 648 528 419 27 48 129 276 355 430 486 577 615 626 590 416 320 345 386 425 550 597 489 348 0 0 0 0 0 0 18 2 0 0 0 0 0 0 13 160 42
723 614 452 485 8 20 235 243 389 476 552 579 655 710 648 460 320 323 403 495 503 500 478 333 102 0 0 0 0 37 64 0 0 0 0 0 0 0 0 0 0 0

ECMWFNIL_con_mucape_018.txt.gz
CAPE
1860 1674 1631 1764 1349 0 0 0 0 0 0 0 0 0 0 0 0 0 6 0 8 0 0 0 20 3 2 1 5 0 0 0 0 0 0 0 0 0 0 0 0 5
1801 1681 1727 1819 1285 272 0 0 0 0 0 0 0 0 0 0 0 0 0 0 30 9 0 0 9 11 0 2 0 0 0 0 0 16 0 0 0 0 0 0 0 0
1740 1725 1847 1868 1206 371 0 0 0 0 0 0 0 0 0 0 0 0 0 0 2 14 0 0 0 6 0 0 0 2 4 0 0 0 10 0 0 0 2 0 0 0
1828 1825 1911 1840 1203 716 167 0 0 0 0 0 0 0 0 0 0 0 0 112 0 0 1 0 0 0 0 0 0 0 0 0 0 0 0 0 3 1 0 0 0 0
1952 1914 1959 1811 1228 806 141 0 0 0 0 0 0 0 0 0 0 0 0 0 0 0 0 0 0 0 0 0 0 0 0 0 0 0 0 0 0 0 0 0 0 0
2037 1923 1932 1756 1230 754 86 0 0 0 0 0 0 0 0 0 0 0 0 0 0 0 0 0 0 0 0 0 0 0 0 0 0 0 0 0 0 0 0 3 2 1
2015 1968 2002 1847 1258 776 42 0 0 0 0 0 0 0 0 0 0 0 0 0 0 0 0 0 0 0 0 0 0 0 0 0 0 0 0 0 0 0 0 0 15 16
1945 1982 2006 1892 1212 605 0 0 0 0 0 0 0 0 0 0 0 0 0 0 0 0 0 0 0 0 0 0 0 0 0 0 0 0 0 0 0 0 11 2 26 46
1820 1911 2026 1856 1098 0 0 0 0 0 0 0 0 0 0 0 0 0 0 0 0 0 0 0 0 0 0 0 0 0 0 0 0 0 0 1 1 2 0 2 2 26
1730 1873 2002 1663 844 0 0 0 0 0 0 0 0 0 0 0 0 0 0 0 0 0 0 0 0 0 0 0 0 0 0 0 0 0 0 1 4 2 5 8 12 15
1546 1778 2006 1586 876 204 0 0 0 0 0 0 0 0 0 0 0 0 0 0 0 0 0 0 0 0 0 0 0 0 0 0 0 0 0 0 0 0 19 45 19 34
1445 1709 1850 1349 932 324 343 265 299 0 0 0 0 0 0 0 0 0 0 0 0 0 0 0 0 0 0 0 0 0 0 0 0 0 0 0 0 0 3 28 58 61
1368 1546 1757 1572 1122 432 380 326 275 86 0 0 0 0 0 0 0 0 0 0 0 0 0 0 0 0 0 0 0 0 0 0 0 1 1 1 4 8 16 18 20 35
1378 1385 1778 1769 1244 559 527 350 187 0 0 0 0 0 0 0 0 0 0 0 0 0 0 0 0 0 0 0 0 0 0 0 0 0 0 3 16 23 33 42 55 76
1552 1477 1433 1559 1341 513 422 345 44 0 28 0 0 0 0 0 0 0 0 0 0 0 0 0 0 0 0 0 0 0 0 0 0 0 0 0 2 14 28 45 83 121
1682 1612 1490 1486 1070 749 286 201 0 0 0 0 12 11 31 9 0 0 0 0 0 0 0 0 0 0 4 0 0 0 0 0 0 0 0 0 11 43 72 80 99 136
1718 1666 1552 1467 1342 1238 514 359 101 32 0 17 0 0 125 1 0 0 0 0 0 0 0 0 0 0 0 0 0 0 6 0 0 0 0 3 32 67 127 212 246 208
1751 1706 1666 1487 1146 1196 873 343 186 0 0 0 0 0 0 0 0 0 0 0 0 0 0 0 0 0 0 0 0 0 2 122 41 7 4 12 59 125 176 232 262 251
1758 1726 1669 1580 1526 1394 718 671 684 361 76 0 0 0 0 0 0 0 0 0 0 0 0 1 8 0 0 0 0 124 198 219 234 229 199 115 88 111 132 151 170 183
1686 1675 1587 1519 1333 1066 882 694 528 108 0 0 0 0 0 0 1 0 0 0 0 4 171 9 6 4 0 0 125 260 286 309 348 359 277 129 105 67 56 67 74 72
1616 1537 1512 1389 1366 1092 624 610 312 211 0 0 0 138 1 6 7 0 0 0 224 353 315 68 205 1 0 0 244 300 369 407 438 420 338 193 1 1 4 6 7 10
1488 1443 1378 1353 1238 887 233 214 388 4 0 0 106 265 79 3 0 0 0 298 364 378 386 372 166 1 0 184 316 373 442 468 376 257 77 0 0 0 0 0 0 0
1436 1392 1308 1247 1219 858 530 433 195 0 0 0 146 280 136 0 1 3 34 292 384 405 483 499 357 193 149 261 356 450 375 233 86 0 0 0 0 0 0 0 0 0
1447 1404 1322 1212 920 427 488 54 0 5 4 30 310 360 190 14 11 35 198 356 410 470 559 571 384 122 108 404 391 302 48 0 39 0 0 0 0 0 0 0 0 0
1445 1402 1354 1276 1114 798 282 0 0 4 21 310 399 326 69 55 51 34 285 393 495 582 627 530 378 323 415 419 325 53 86 44 48 0 0 0 0 0 0 0 0 0
1373 1336 1300 1250 1150 642 96 0 4 22 28 189 291 57 78 89 292 363 491 565 656 697 717 633 470 399 411 264 116 88 59 0 0 0 0 0 0 0 0 0 0 0

ECMWFNIL_con_mucape_021.txt.gz
CAPE
3115 3049 2930 2425 2116 1792 1503 1361 1403 1394 1462 1335 1110 1054 1171 968 1165 1507 1486 1532 1528 1308 1168 1156 1140 1003 730 656 714 560 482 298 186 213 210 164 143 100 118 132 156 174
2977 2836 2530 2236 1951 1492 1454 1488 1444 1108 1180 1212 1122 1252 1208 1148 1072 1172 1434 1448 1342 1176 1116 959 1120 1093 894 460 711 605 648 585 337 354 395 336 222 136 105 98 80 152
2886 2559 2262 1942 1802 1527 1460 1550 1422 985 993 858 987 1113 980 907 1000 1184 1314 1193 1127 1010 1055 992 1032 1106 916 786 827 710 580 634 506 369 419 371 268 187 151 55 77 152
2760 2386 2035 1902 1794 1596 1528 1582 1336 835 746 795 719 645 736 697 868 898 1135 1003 975 954 846 899 773 622 878 934 992 830 688 678 482 396 423 510 561 438 266 266 252 230
2608 2184 1889 1796 1715 1612 1584 1627 1375 566 479 566 600 633 737 816 824 825 881 985 989 764 969 984 941 752 1008 870 1056 852 788 676 634 763 690 618 733 843 628 620 646 432
2380 2006 1780 1707 1637 1599 1616 1667 1482 666 442 592 637 466 556 808 793 780 720 632 591 455 480 536 718 751 792 880 1004 837 591 438 431 885 796 716 382 460 686 891 789 590
2188 1875 1800 1642 1591 1577 1642 1684 1494 822 492 482 553 382 455 574 730 644 601 528 456 514 445 505 780 668 802 825 822 785 888 804 594 968 788 707 813 746 959 886 846 791
2082 1878 1717 1579 1548 1613 1696 1740 1544 908 601 590 344 361 304 284 444 394 522 563 473 605 682 719 780 876 732 682 713 689 698 780 724 863 901 785 980 894 908 1075 1019 876
1946 1806 1611 1475 1549 1704 1766 1744 1560 971 422 356 296 211 250 223 198 243 483 486 411 465 620 675 839 844 782 670 635 706 730 732 673 692 794 782 806 814 748 838 942 937
1914 1770 1578 1488 1527 1726 1816 1768 1564 967 288 337 218 56 0 46 268 250 262 251 290 417 421 517 632 762 738 681 688 678 652 702 796 788 684 677 669 694 728 846 857 862
1869 1696 1560 1462 1496 1554 1760 1744 1533 964 148 208 101 88 8 28 104 59 126 113 135 238 335 397 495 543 580 529 529 589 648 620 672 711 671 730 834 868 852 919 914 866
1820 1638 1488 1415 1348 1502 1688 1733 1482 1020 250 188 120 54 17 22 134 49 48 36 41 114 244 400 547 538 572 589 557 615 619 524 504 636 730 977 1084 1022 989 1052 984 904
1864 1624 1425 1308 1170 1388 1614 1728 1602 913 219 140 90 28 5 3 48 54 85 15 76 121 157 292 361 379 550 655 658 662 643 633 640 857 1084 1243 1173 885 704 859 909 927
1931 1697 1446 1254 1170 1188 1493 1669 1635 1088 353 320 162 27 38 10 38 48 38 46 32 180 243 255 318 366 553 677 672 624 628 702 852 1024 1122 1137 1064 933 836 748 889 850
1976 1782 1557 1216 1071 1111 1324 1440 1473 944 353 313 134 3 17 10 6 44 25 48 133 158 171 208 267 370 562 656 592 568 684 780 980 1126 1090 989 900 842 971 1067 1012 902
2027 1902 1700 1426 1070 866 996 1056 1211 1197 679 184 5 73 242 89 71 70 26 129 184 140 154 218 335 469 319 9 95 641 1033 1025 1102 1115 1008 846 926 939 904 991 945 889
2077 2019 1947 1798 1563 1208 866 870 1217 521 632 453 222 0 147 128 124 96 45 46 63 96 158 249 332 438 65 0 0 1 508 979 997 1011 899 938 930 1027 1026 950 1008 1205
2083 2061 2002 1928 1784 1650 1429 1298 1160 899 577 432 230 208 242 205 160 106 154 95 122 81 87 184 375 196 2 0 0 0 64 674 868 913 1055 1108 1093 1067 1149 1092 1062 999
2008 1996 1969 1886 1784 1666 1605 1538 1169 932 558 224 196 397 436 290 28 207 227 105 112 178 179 182 260 258 0 0 0 0 0 146 846 1214 1203 1203 1242 1314 1301 1312 1280 1187
1884 1895 1889 1835 1743 1683 1638 1630 1624 1281 930 628 694 653 629 383 296 300 150 127 121 166 205 238 348 337 2 0 0 0 0 47 722 1101 1106 1088 1170 1271 1261 1187 1160 1172
1804 1795 1796 1770 1723 1668 1589 1540 1574 1100 1191 1031 696 509 548 321 288 173 244 240 248 263 308 403 412 268 2 0 54 0 0 9 600 942 1073 1128 1096 979 1077 984 1140 1030
1716 1727 1706 1717 1671 1586 1478 1460 1423 1157 1019 759 536 358 294 280 174 276 314 285 384 411 301 392 425 87 194 385 336 198 0 241 777 1095 1080 1025 1061 1054 1007 1010 701 512
1592 1605 1625 1620 1588 1497 1412 1368 1344 1378 975 706 442 361 278 201 182 260 321 304 342 476 508 567 752 593 353 388 376 350 70 636 1002 947 1052 1006 890 926 651 373 311 230
1437 1458 1492 1498 1515 1474 1386 1314 1292 1136 713 464 375 165 1 41 181 296 402 478 487 579 555 759 892 876 369 357 438 477 378 946 1065 1046 728 674 586 594 354 299 242 7
1323 1365 1396 1417 1450 1414 1319 1214 1159 900 580 235 106 139 62 195 240 310 499 636 588 542 451 509 831 880 452 416 512 587 520 574 727 279 322 395 454 487 225 344 390 128
1282 1302 1332 1358 1350 1337 1242 1088 933 707 407 106 114 144 203 331 427 453 613 691 676 654 610 628 714 1271 496 593 634 680 566 380 259 111 218 286 272 260 499 526 402 284

ECMWFNIL_con_mucape_024.txt.gz
CAPE
4370 4242 4236 3976 3868 3342 3140 3225 3105 3009 2950 2487 2304 2382 2056 2094 1610 1320 1072 720 649 647 467 540 575 679 521 500 512 499 478 488 353 245 302 244 170 122 108 124 120 142
4404 4324 4166 3992 3834 3608 3475 3462 3318 3114 3038 2898 2585 2246 2087 1994 1459 1101 958 590 682 505 478 494 680 684 497 360 495 456 572 330 337 216 336 248 203 152 120 146 131 111
4532 4389 4375 4144 3695 3746 3535 3627 3305 3124 2799 2779 2594 1966 1760 1596 1314 1078 754 607 676 474 554 695 747 694 523 462 565 531 504 381 317 214 306 390 246 152 157 18 45 74
4623 4523 4397 4160 3913 3982 3764 3606 3428 3082 2622 2698 2409 1699 1440 1252 1004 898 663 641 674 604 570 570 542 536 445 525 594 596 574 568 396 379 442 330 296 222 140 104 60 30
4707 4634 4393 4219 3959 3934 3747 3485 3142 2951 2584 2407 2074 1552 1415 1215 942 874 718 755 687 672 591 544 499 500 534 505 588 717 643 624 424 425 458 368 288 220 101 86 86 44
4771 4690 4536 4272 4019 3939 3626 3364 3140 2796 2525 2104 1879 1459 1479 1457 1210 760 696 642 552 372 311 508 522 510 456 546 785 674 630 434 261 340 412 289 180 100 69 74 56 41
4716 4685 4433 4140 3995 3805 3628 3372 3156 2708 2349 2088 1864 1628 1375 1308 868 612 578 610 490 605 369 457 627 685 613 631 635 835 688 563 394 402 348 204 178 162 81 62 64 131
4590 4502 4352 4010 3845 3740 3522 3258 3102 2647 2352 2032 1898 1639 1258 980 814 582 803 768 601 628 562 682 869 851 439 514 657 675 523 440 320 327 321 249 214 198 164 137 156 274
4510 4431 4184 3951 3738 3465 3008 2850 2872 2644 2269 2060 1902 1630 1326 995 968 653 1369 1374 510 519 940 1029 1117 848 715 507 558 532 424 266 196 190 219 210 169 203 201 192 218 316
4432 4217 3932 3671 3468 3061 2690 2598 2594 2577 2286 2125 1829 1548 1218 1076 1055 987 1412 744 342 769 1449 1024 938 896 684 627 839 622 527 466 377 329 258 244 241 213 165 146 184 266
4400 4131 3859 3595 3284 2657 2495 2472 2466 2323 2116 1960 1406 1139 843 736 1010 1272 1000 799 606 968 1131 1034 909 724 612 711 870 709 602 494 455 434 389 434 417 354 324 305 196 212
4450 4181 3707 3576 3295 2803 2449 2391 2373 2272 2108 1763 1426 1171 1203 946 954 772 870 846 592 511 834 940 845 633 713 720 649 693 815 697 568 574 510 485 440 437 476 378 278 238
4505 4214 3781 3540 3454 2955 2538 2214 2010 1980 1793 1577 1488 1103 635 426 608 636 595 610 633 784 748 670 547 594 795 865 832 918 862 900 720 727 624 604 631 469 252 264 268 271
4673 4351 3906 3609 3444 2974 2563 2190 2164 1867 1732 1602 1522 1089 494 222 541 679 643 672 708 510 488 698 820 752 764 951 1023 917 829 883 910 764 799 926 824 536 313 200 154 123
4711 4314 3926 3369 2892 2759 2526 2350 1758 1843 1955 1710 1438 1208 594 258 502 784 827 607 560 392 450 564 538 550 544 580 736 930 866 731 872 1068 1146 941 709 464 422 367 315 197
4415 4134 3540 2897 2888 2445 2500 2107 1933 1804 1638 1599 1466 1264 952 836 839 629 350 220 178 267 455 428 359 404 170 102 502 822 849 1038 882 1173 1180 751 566 604 522 413 449 444
3922 3863 3306 3265 3010 2308 2352 2158 2122 2034 1811 1560 1348 1314 999 897 664 249 212 182 231 344 440 371 380 323 21 2 211 258 600 836 1040 1046 948 784 674 672 764 664 524 500
3758 3428 3126 2956 2770 2474 2188 2130 2162 2089 2015 1900 1766 1527 960 944 840 530 388 262 147 214 180 253 322 56 0 22 60 10 15 429 706 736 662 748 814 684 735 775 656 693
3778 3437 2956 3220 2742 2523 2158 2066 2106 2070 2024 1952 1830 1638 1569 1458 1277 1126 907 362 158 274 242 194 163 4 4 0 0 0 0 107 672 744 630 713 879 1040 1149 1144 1396 1481
3899 3450 3312 3128 2758 2397 1933 1940 2022 2035 2009 1890 1744 1593 1506 1327 1198 1042 1028 735 490 302 293 218 154 109 91 13 0 0 0 64 705 836 722 791 1098 1446 1605 1714 1829 1970
4009 3488 3128 3062 2460 2030 1703 1718 1835 1858 1892 1837 1708 1672 1612 1460 1240 1064 983 807 488 340 233 171 194 2 96 14 0 0 0 99 596 842 865 980 1308 1460 1682 1829 1696 1574
3936 3310 2940 2884 2295 1934 1775 1626 1668 1704 1762 1717 1643 1622 1581 1442 1303 1099 832 675 484 337 270 56 9 0 0 0 0 0 0 127 593 875 1070 1134 1200 1629 1861 1766 1628 1638
3699 3334 2877 2772 2349 2000 1657 1563 1566 1650 1662 1584 1532 1510 1446 1275 1077 879 715 595 551 399 286 58 234 164 0 0 0 0 0 436 712 900 1126 1388 1520 1806 1733 1201 724 698
3169 2421 2704 2721 2351 2016 1574 1474 1520 1596 1608 1524 1449 1404 1342 1203 906 702 540 526 513 476 296 348 274 108 0 0 0 0 33 663 1032 1260 1604 1758 1816 1364 1094 842 628 378
2591 2341 2472 2570 2365 2074 1634 1419 1424 1468 1445 1342 1231 1131 1038 854 656 556 476 419 377 292 151 244 190 185 0 473 432 70 1 718 1179 1629 1845 1807 1252 1000 734 548 370 444
2001 2174 2282 2379 2394 2030 1769 1360 1359 1348 1306 1223 1084 862 646 620 603 524 392 364 420 372 390 297 274 703 1042 612 666 576 385 672 1319 1693 1294 764 716 820 426 708 694 414

ECMWFNIL_con_mucape_027.txt.gz
CAPE
3966 3368 3226 3223 3203 3109 2907 2666 2479 2443 2473 2032 2083 2091 1860 1500 1419 1153 753 481 633 698 478 670 529 643 538 471 580 359 422 411 165 125 180 145 124 48 11 12 0 0
4208 3807 3538 3296 3407 3352 3192 2796 2718 2666 2700 2557 2188 2168 2004 1823 1448 1132 1002 790 787 683 712 620 648 673 588 531 500 454 496 360 192 124 112 170 154 96 41 42 82 86
4206 3942 3687 3442 3146 3288 3094 3017 2794 2813 2879 2732 2414 2220 2174 1824 1584 1225 1008 946 871 638 759 706 686 788 752 454 518 430 458 480 283 108 586 412 284 168 300 98 108 146
4546 4220 3795 3586 3370 3171 3454 3134 3168 3206 2693 2624 2456 2169 1990 1978 1853 1366 1226 1054 878 687 587 624 710 796 740 590 726 783 575 732 486 499 363 463 719 525 327 286 207 126
4797 4485 4126 3880 3690 3490 3475 3536 3036 3337 2993 2569 2497 2290 2136 2012 1807 1415 1204 1035 818 698 639 640 752 822 698 620 789 944 767 723 530 564 648 559 978 841 412 247 252 258
4961 4800 4604 4207 3996 3867 3584 3822 3756 3442 3189 2470 2612 2348 2207 2008 1550 1299 1210 945 695 605 583 551 735 754 734 725 849 844 768 640 796 824 665 801 741 509 248 199 216 254
4966 4977 4706 4486 4194 4111 4075 4177 4122 3626 3357 2804 2812 2727 2167 1835 1537 1336 1205 1007 612 697 611 684 812 606 767 836 882 957 1010 955 833 967 849 916 854 549 213 204 306 220
4888 5091 5036 4616 4528 4267 4312 4444 4352 3929 3630 3318 3146 2884 2203 1881 1596 1244 1165 1000 712 650 780 794 746 664 806 992 940 986 1044 939 836 1014 1004 961 876 426 366 357 297 438
4814 5071 5035 4793 4527 4569 4350 4368 4272 4083 3770 3500 3226 2802 2288 2016 1743 1252 1263 1164 829 799 798 940 967 846 836 918 910 1082 960 732 643 842 820 583 473 433 446 441 422 548
4917 4962 4945 4806 4405 4373 4319 4136 3952 3948 3779 3538 3177 2770 2412 2215 1848 1313 1300 1179 652 806 920 858 462 662 794 860 946 921 865 931 729 765 550 372 401 472 468 443 406 463
4976 4857 5046 4782 4484 4226 4216 3952 3635 3797 3664 3410 3189 2828 2636 2242 1836 1363 1400 1087 545 1110 1238 746 487 862 988 715 675 775 785 760 710 718 605 467 441 533 511 512 475 483
5156 4800 4890 4940 4532 4213 4068 3868 3531 3675 3564 3364 3215 2880 2629 2159 1762 1530 1411 950 852 1375 1154 620 512 943 1075 790 550 498 783 716 724 622 436 467 490 549 532 562 566 567
5298 5030 4822 4757 4757 4372 4106 3906 3420 3020 3162 3368 3113 2863 2619 2228 1810 1712 1274 1160 1123 1212 881 858 1204 1317 1023 888 504 563 768 763 521 502 464 462 454 422 463 460 441 500
5436 5430 5014 4882 4773 4590 4319 4100 3521 3035 3238 3466 3176 2855 2670 2364 2070 1732 1428 1506 1548 1106 859 1232 1374 1196 966 908 656 640 692 670 615 580 458 534 444 387 429 325 231 360
5756 5475 5139 5000 4766 4637 4448 4160 3840 3534 3475 3482 3280 2961 2612 2346 1879 1444 1424 1346 1177 875 703 1166 1265 818 629 730 414 552 586 576 844 710 527 441 471 508 374 131 462 388
5557 5020 4429 4446 4269 4290 4220 3616 3794 3438 3296 3365 3294 2999 2694 2309 1928 1586 1476 1314 719 607 789 1027 907 622 627 491 615 802 904 723 579 732 556 515 676 605 516 446 536 557
5510 5030 4757 4736 4490 4074 4096 3844 3249 3408 3380 3317 2990 3034 2828 2632 2268 1786 1100 962 964 902 878 672 207 302 571 442 575 530 576 469 634 972 659 521 692 806 755 592 446 646
5296 4809 4717 4622 4318 4148 4012 4054 3798 3438 3575 3511 3075 2818 2656 2346 1964 1846 1716 1605 1522 1322 984 642 480 502 380 293 243 156 565 714 330 660 496 683 661 623 715 637 474 712
5173 4589 4386 4542 4329 4111 4187 3913 3556 3791 3847 3474 3234 2986 2669 2030 2083 2097 2028 1883 1726 1553 1299 1033 626 523 451 475 71 127 168 112 195 176 609 588 392 519 755 813 998 878
4918 3960 4378 4230 4294 4189 3980 3668 3415 3224 3306 2985 2822 2904 2938 2256 2053 2005 1894 1798 1700 1630 1300 1198 862 1088 776 471 302 208 188 284 274 102 225 201 390 521 791 1022 1136 1151
4128 3841 4498 4199 3861 3952 3822 3545 3419 3401 3171 2946 2610 2704 2868 2606 2050 1980 1778 1598 1482 1400 1326 1132 899 1017 796 473 406 364 300 286 247 63 249 370 520 562 929 1311 1266 1673
4348 4078 3548 4166 3850 3636 3548 3332 3200 3312 3146 3030 2805 2568 2392 1953 1949 1854 1746 1609 1493 1408 1356 1408 1092 723 601 417 572 374 280 252 269 396 552 404 585 730 779 1264 1532 1909
4297 3987 3684 3530 3696 3362 3304 3010 2964 2849 2804 2752 2434 2230 2060 1716 1840 1814 1702 1639 1652 1666 1524 1165 1075 795 715 589 465 333 282 296 340 276 709 532 667 931 1061 1361 1252 2104
4492 4194 3734 3384 3609 3488 3016 2454 2642 2519 2372 2356 2112 1828 1633 1616 1616 1650 1588 1600 1585 1519 1376 1243 1151 902 660 483 367 322 327 430 653 790 913 625 654 846 1308 1229 1583 1307
4616 4077 3546 3184 3446 3151 2840 2607 2434 2410 2089 1910 1723 1572 1541 1541 1542 1561 1490 1325 1229 1073 976 866 751 614 605 554 420 357 341 482 813 749 676 591 851 1832 1576 1340 1156 867
3964 3665 3469 3165 3017 2977 2823 2580 2301 2038 1676 1508 1516 1503 1452 1382 1325 1265 1305 1170 860 690 645 637 608 595 629 648 534 403 312 614 728 818 599 566 1574 1370 1307 1601 1091 968

ECMWFNIL_con_mucape_030.txt.gz
CAPE
4038 4018 3907 4027 4021 3758 3677 3563 3668 3404 3270 2876 3102 2867 2748 2565 2663 2381 2354 2137 1412 1461 1182 1007 1235 1135 1046 1196 991 1075 1130 890 663 865 577 808 574 355 307 249 236 336
4090 3990 3820 3831 3989 3909 4128 3657 3618 3395 3449 3294 2983 3254 3090 2424 2581 2155 2226 1579 1357 1284 1200 1000 1115 1283 1166 976 1179 864 1398 1036 1106 844 816 648 696 1039 432 482 296 739
4121 3989 3823 3719 3799 3955 3384 3648 3711 3441 3396 3116 3084 3329 2741 2414 1947 2009 2001 1500 1143 1082 1046 1025 884 1242 1131 1284 1211 1130 1037 1221 895 564 883 764 786 379 704 114 371 189
4353 4178 3741 3409 3364 3638 3591 3647 3701 3460 3178 3154 2855 2836 2384 1962 1908 1787 1972 1680 1317 1149 1131 964 879 820 1122 1133 1274 1046 1096 997 861 915 974 1133 852 854 529 713 512 720
4444 4352 3926 3471 3362 3674 3725 3701 3141 3370 2878 3010 2927 2592 2562 2350 2121 1707 1794 1406 1535 1288 1176 1081 1072 978 1153 1196 1242 1094 991 1081 927 915 1314 1242 1123 823 838 838 762 555
4477 4441 4332 3881 3672 3768 3810 3621 3460 3109 2914 3085 3015 2691 2635 2592 2206 1746 1614 1347 1445 1045 948 1005 1091 1018 1216 1212 1278 1295 917 770 748 791 915 988 993 911 658 831 823 707
4635 4613 4340 4120 4017 3756 3777 3723 3642 3280 3103 2895 3034 2740 2526 2466 2282 1948 1585 1369 1133 1097 896 811 910 1000 1122 1107 1074 1256 1154 982 957 908 880 810 978 897 735 811 888 732
4530 4566 4426 4102 3988 3907 3703 3739 3804 3544 3476 3330 3006 2909 2591 2360 2336 2135 1731 1596 1267 1198 1044 979 1055 1073 1205 1067 1079 1195 1181 1004 1148 1097 953 876 812 914 1068 801 887 974
4816 4726 4443 4205 3872 3846 3487 3408 3755 3822 3760 3581 3056 2900 2762 2461 2378 2052 1821 1637 1336 1196 1160 1134 1087 1174 1144 1086 1070 1195 1142 1000 1000 1014 830 842 840 762 762 799 861 868
4933 4911 4292 3956 3593 3630 3422 3179 2999 3778 3909 3759 3188 2814 2898 2700 2442 1990 1820 1691 1373 1204 1204 1118 1164 1128 1059 1138 1222 1183 1185 1156 1059 1042 927 882 894 775 722 769 815 809
4855 4852 4625 4301 3971 3615 3511 3118 2989 3382 3803 3626 3356 2952 3035 2772 2457 2036 1938 1769 1458 1193 1160 1152 1232 1112 925 908 1193 1233 1227 1144 996 914 951 985 850 745 834 759 790 766
4739 4530 4330 4374 4101 3709 3467 3312 3101 3752 3881 3701 3590 3223 3242 2831 2517 2141 1926 1815 1492 1242 1126 1160 1290 1137 974 921 1032 1182 1259 1094 910 753 712 796 741 798 821 917 905 902
4743 4568 4584 4486 4258 3960 3746 3677 3243 3146 3384 3368 3324 3033 3013 2677 2562 2304 1954 1834 1620 1295 1146 1171 1349 1276 1178 1096 1057 1148 1203 1065 866 750 667 729 696 747 736 789 848 831
4912 4737 4569 4576 4414 4421 4226 3924 3717 3668 3790 3865 3661 3406 2980 2781 2577 2450 2100 1877 1757 1330 1201 1258 1270 1042 1053 1036 1020 1137 1100 893 751 608 631 735 690 740 647 550 668 738
5252 5073 4771 4592 4741 4859 4662 4457 4300 4272 4298 4223 3922 3550 3254 3061 2830 2601 2247 2029 1833 1194 1215 1486 1256 816 974 1104 705 949 789 718 594 506 517 545 625 627 682 675 602 642
5537 5437 5111 5099 5186 5209 5044 4799 4689 4720 4472 4320 4242 3848 3586 3389 2884 2852 2217 2047 1596 1329 1480 1669 956 813 737 756 587 828 425 366 668 546 332 377 557 668 646 636 595 601
5944 5877 5581 5410 5513 5538 5438 5176 5018 4974 4677 4251 4332 4094 3749 3656 3608 2946 2404 2229 2026 1851 1615 1368 1254 1270 1211 1018 705 652 646 723 493 391 362 587 364 749 697 719 742 871
6104 6132 5985 5738 5716 5653 5608 5386 5241 5084 4773 4488 4391 4361 4013 3797 3555 3293 2522 2274 2086 1978 1802 1672 1634 1659 1607 1484 905 533 537 574 445 388 443 464 428 659 1118 1276 903 826
6306 6224 5934 5747 5608 5594 5452 5306 5163 4817 4564 4298 4123 4224 4172 3870 3984 3215 2593 2300 2101 2027 1873 1752 1739 1749 1837 1556 864 672 589 445 453 543 451 1037 1395 1255 873 906 1157 914
6299 6026 5785 5605 5546 5425 5137 5014 4897 4666 4436 4291 4145 4150 4022 3739 3516 3283 2637 2324 2085 1922 1821 1745 1737 1745 1702 1488 706 620 757 550 524 498 935 1005 667 393 354 386 983 1253
6137 5947 5792 5583 5423 5229 5011 4851 4815 4660 4366 4230 4062 3961 3873 3742 3296 2853 2522 2370 2183 1971 1854 1754 1710 1756 1584 1443 975 979 690 553 454 519 512 531 491 419 335 314 577 1992
6000 5840 5669 5371 5220 5097 5000 4885 4676 4384 4306 4094 3749 3535 3295 3689 2914 2636 2460 2324 2171 2174 2020 1882 1563 1398 1298 1314 1247 956 779 752 636 548 522 482 572 551 401 487 1467 1973
5767 5435 5312 5221 5064 4914 4817 4634 4374 4241 4161 3915 3505 3129 2830 3212 2892 2563 2402 2321 2217 2086 1938 1786 1569 1238 1409 1416 1332 958 880 776 711 622 518 473 482 417 412 600 2179 1652
5382 5094 5166 4734 4674 4586 4458 4253 4004 4004 4082 3754 3449 2904 2806 2599 2531 2464 2358 2237 2078 1894 1832 1738 1650 1543 1460 1291 1266 1214 1046 910 747 607 564 503 354 437 738 1850 1836 1930
5080 4793 4990 4566 4340 4294 3843 3839 3692 3667 3433 3181 2920 2908 2652 2287 2220 2243 2215 2042 1837 1693 1662 1629 1586 1475 1337 1261 1161 1093 948 796 656 562 438 353 367 499 1530 1974 1791 1652
4759 4551 4313 4134 4178 3946 3817 3672 3374 3079 3061 2859 2636 2319 2161 2017 1914 1856 1853 1662 1304 1344 1507 1455 1349 1298 1226 1118 992 926 796 702 628 546 450 432 834 1036 2294 1557 1638 1464

ECMWFNIL_con_mucape_033.txt.gz
CAPE
2923 2941 2871 2566 2560 2457 2383 2234 1865 2165 1905 1945 2063 1832 1792 1663 1388 1548 1355 1337 1472 1346 843 0 1 4 463 363 138 417 258 381 138 469 91 235 152 64 137 79 3 72
2932 2946 2875 2722 2662 2495 2394 2317 1978 2066 2039 1921 1906 1927 1864 1590 1495 1560 1397 1306 1565 1183 814 81 33 17 269 365 290 471 268 266 198 521 173 296 179 67 90 25 18 56
2946 2937 2881 2876 2807 2712 2506 2459 2288 2066 2165 2088 1858 1955 1736 1867 1581 1613 1438 1228 1465 890 449 203 242 134 264 274 342 551 320 190 342 323 104 143 145 216 200 251 30 168
2935 2939 2859 2888 2949 2868 2731 2408 2676 2232 2182 2156 2053 2005 1824 1749 1913 1640 1470 1524 1130 695 436 173 360 318 428 267 202 210 468 292 209 262 85 162 121 53 88 166 184 37
2968 2929 2825 2829 2890 2960 2809 2631 2598 2462 2257 2185 2174 2048 2047 1647 1836 1621 1391 1167 953 765 609 475 362 398 480 465 272 183 260 391 332 307 272 220 121 159 92 246 254 128
3007 2918 2863 2770 2794 2924 2810 2799 2597 2476 2378 2240 2172 2188 2015 1790 1460 1550 1210 1072 972 883 722 576 283 383 428 568 384 205 344 187 240 202 412 290 164 186 277 303 402 231
3078 2939 2900 2765 2728 2796 2804 2737 2693 2548 2364 2223 2168 2248 1976 1926 1570 1299 1330 1162 1019 899 737 482 241 227 422 475 577 245 244 292 225 200 222 547 315 212 201 226 266 278
3102 3000 2955 2810 2693 2694 2734 2676 2656 2641 2395 2282 2114 2194 1994 1849 1659 1366 1241 1067 929 783 605 407 314 276 300 313 619 446 271 354 275 226 197 352 466 353 169 248 265 253
3149 3110 3055 2912 2745 2639 2666 2648 2644 2611 2522 2300 2300 2058 2006 1788 1648 1482 1254 997 842 666 530 493 416 412 390 360 458 576 390 378 376 343 197 217 384 374 262 226 264 339
3190 3209 3150 3100 2867 2698 2664 2690 2663 2630 2599 2416 2410 2248 2061 1869 1706 1542 1401 1173 896 683 594 566 491 442 475 480 449 531 558 489 415 344 218 204 254 336 336 311 308 383
3237 3248 3250 3199 3074 2867 2741 2726 2720 2717 2681 2552 2447 2423 2279 2061 1865 1684 1514 1316 1088 832 702 604 552 477 489 538 526 500 545 540 469 473 399 247 243 252 441 252 320 451
3261 3302 3289 3248 3168 3041 2936 2783 2749 2780 2783 2733 2564 2472 2436 2297 2082 1876 1675 1465 1243 1020 822 704 609 539 494 556 581 547 527 538 505 483 542 482 355 260 288 214 249 381
3261 3343 3334 3283 3193 3067 2969 2902 2750 2756 2874 2859 2787 2610 2485 2394 2245 2062 1865 1657 1445 1231 1003 796 677 547 466 533 595 594 514 410 364 381 533 541 476 380 306 244 250 372
3273 3342 3376 3328 3228 3076 2912 2873 2789 2653 2832 2978 2932 2812 2626 2490 2346 2163 2001 1806 1634 1432 1235 1008 764 601 479 439 520 434 576 645 488 468 484 500 499 450 404 320 315 403
3332 3366 3454 3449 3320 3144 2965 2840 2791 2697 2728 3015 3068 2977 2792 2615 2481 2345 2188 2008 1833 1664 1477 1307 1138 964 789 628 596 700 769 660 646 646 609 435 263 282 236 443 455 513
3335 3384 3486 3548 3520 3373 3202 3070 2944 2821 2816 3113 3234 3134 2996 2816 2648 2531 2399 2253 2118 1981 1855 1710 1543 1346 1248 1190 1160 1189 1217 1148 980 886 725 511 403 300 301 348 429 480
3405 3418 3467 3531 3594 3556 3395 3262 3175 3029 2936 3123 3383 3362 3211 3037 2878 2777 2667 2559 2460 2338 2190 2017 1881 1821 1704 1614 1608 1564 1445 1250 1092 856 624 527 493 489 318 219 196 322
3546 3536 3501 3506 3585 3648 3555 3378 3283 3241 3158 3208 3388 3484 3460 3342 3165 3014 2906 2839 2730 2626 2508 2434 2346 2212 2111 1999 1894 1707 1530 1276 964 811 597 506 430 376 317 327 282 309
3774 3702 3624 3566 3582 3691 3715 3581 3454 3497 3540 3551 3576 3503 3465 3434 3375 3293 3187 3037 2909 2879 2813 2705 2577 2437 2310 2193 2012 1809 1673 1475 1108 754 585 538 385 288 245 322 292 249
4021 3935 3857 3747 3703 3765 3927 3949 3776 3738 3894 3809 3768 3695 3570 3504 3460 3384 3294 3191 3101 3013 2898 2778 2706 2562 2408 2266 2026 1888 1668 1462 1263 787 582 446 365 290 318 508 629 512
4242 4195 4166 4076 4002 4052 4240 4281 4127 4043 4130 4042 3870 3824 3725 3606 3503 3405 3325 3223 3119 2979 2865 2814 2696 2582 2440 2254 1968 1632 1456 1338 933 903 608 463 413 335 320 551 562 598
4464 4472 4524 4469 4358 4412 4532 4519 4395 4266 4227 4116 3940 3810 3715 3587 3448 3275 3272 3181 3072 2991 2876 2796 2671 2510 2336 2177 1967 1765 1722 1381 922 994 745 673 492 264 316 298 446 376
4698 4787 4802 4757 4638 4576 4606 4616 4529 4396 4258 4116 3985 3870 3762 3640 3495 3337 3283 3235 3150 3038 2924 2801 2684 2458 2216 2050 1924 1928 1681 1268 962 848 806 743 555 355 328 319 385 320
4963 4973 4919 4882 4763 4658 4574 4563 4528 4414 4300 4178 4046 3932 3830 3698 3459 3197 3219 3176 3128 3026 2909 2830 2710 2513 2296 2151 1987 1809 1539 1392 1077 857 735 547 485 436 436 448 324 517
5118 5048 4949 4890 4807 4682 4555 4456 4360 4288 4210 4080 3940 3809 3688 3491 3240 3124 3115 3083 3021 2892 2734 2684 2627 2533 2312 2083 1912 1679 1527 1403 1172 916 770 601 602 557 502 387 343 691
5144 5044 4951 4837 4708 4612 4470 4346 4204 4085 3947 3863 3765 3699 3585 3349 3101 2926 2826 2777 2732 2687 2613 2569 2481 2382 2132 1902 1756 1626 1487 1328 1153 996 930 762 612 619 495 297 333 760

ECMWFNIL_con_mucape_036.txt.gz
CAPE
1722 1689 1784 1918 1901 1684 1491 1613 1623 1692 1975 1994 2104 2313 2310 2018 1888 1765 1522 1364 1103 991 895 781 664 496 20 19 22 5 2 1 32 10 17 20 6 8 29 16 11 0
1816 1837 1910 1943 1922 1876 1623 1565 1620 1613 1768 1785 1798 1917 1952 1806 1762 1674 1516 1368 1096 1051 996 833 601 170 22 20 18 14 20 4 31 149 22 38 3 0 0 0 6 0
1936 1964 2050 2074 2005 1972 1936 1775 1659 1636 1680 1652 1700 1675 1701 1725 1726 1643 1452 1320 1127 1076 1005 886 676 336 59 29 19 43 38 24 2 156 32 21 7 0 0 0 0 0
2027 2063 2148 2192 2126 2062 2057 1987 1836 1703 1743 1720 1689 1646 1579 1632 1629 1562 1395 1329 1180 1146 1050 843 831 473 245 64 30 43 25 42 14 58 86 7 26 4 0 0 4 2
2024 2136 2216 2267 2230 2150 2127 2106 2023 1885 1844 1826 1727 1656 1506 1566 1540 1477 1381 1333 1226 1200 1045 812 808 625 262 70 49 55 50 25 26 42 32 9 2 24 4 0 0 0
2000 2140 2263 2314 2314 2250 2194 2153 2160 2080 2008 1935 1803 1610 1493 1485 1405 1380 1368 1305 1248 1208 1074 951 848 701 444 47 36 50 92 37 25 55 14 5 0 4 3 0 0 0
2133 2168 2283 2343 2371 2316 2263 2193 2142 2115 2039 1938 1761 1619 1572 1545 1456 1388 1369 1316 1295 1217 1068 964 918 872 556 31 24 20 62 82 20 50 50 2 3 0 0 0 0 1
2318 2267 2305 2357 2387 2405 2358 2258 2137 2113 2003 1837 1722 1623 1637 1616 1597 1501 1430 1380 1361 1286 1140 1028 898 777 434 42 38 10 17 78 40 33 60 45 16 5 0 0 0 11
2487 2429 2385 2397 2396 2422 2441 2367 2227 2142 2061 1859 1803 1752 1673 1631 1619 1625 1553 1499 1446 1370 1246 948 751 624 456 224 218 78 9 39 53 36 32 59 75 42 7 0 0 4
2609 2569 2502 2460 2425 2411 2434 2444 2360 2237 2182 2060 1893 1850 1808 1745 1650 1619 1618 1581 1509 1443 1351 1174 966 798 658 536 505 194 34 35 38 26 26 20 77 102 43 7 3 1
2661 2654 2592 2534 2476 2410 2378 2415 2423 2382 2292 2225 2101 1977 1942 1900 1820 1770 1693 1596 1562 1495 1407 1286 1117 941 810 683 613 326 117 73 76 50 28 19 22 57 207 68 166 141
2694 2698 2664 2611 2541 2439 2365 2342 2377 2392 2395 2356 2257 2154 2080 2024 1968 1901 1816 1668 1541 1512 1443 1313 1180 1028 920 802 686 515 177 154 125 109 203 272 322 301 340 128 39 26
2715 2714 2710 2679 2594 2495 2387 2291 2286 2322 2352 2391 2363 2271 2162 2119 2071 2005 1898 1803 1705 1581 1415 1282 1175 1066 975 852 687 492 181 216 252 306 396 424 80 208 295 86 64 48
2751 2725 2715 2695 2635 2557 2453 2309 2250 2268 2304 2348 2367 2347 2273 2175 2135 2082 2010 1914 1834 1723 1619 1466 1332 1197 1056 907 732 540 298 349 409 497 632 646 291 246 193 173 78 60
2806 2759 2728 2702 2660 2598 2516 2402 2283 2263 2284 2313 2341 2338 2314 2260 2166 2101 2048 2007 1929 1848 1752 1651 1530 1400 1269 1104 918 750 599 585 704 867 978 994 528 414 402 272 268 152
2854 2804 2769 2731 2702 2643 2588 2497 2387 2317 2311 2329 2346 2366 2351 2319 2281 2216 2145 2084 2038 1965 1891 1818 1723 1604 1473 1331 1192 1047 945 1184 1342 1334 1340 982 708 452 514 353 337 174
2917 2854 2801 2783 2743 2716 2674 2606 2535 2448 2378 2362 2391 2416 2429 2408 2371 2339 2303 2242 2182 2116 2059 2005 1938 1821 1722 1608 1497 1457 1562 1484 1418 1428 1492 1390 1036 606 672 422 307 470
3016 2920 2846 2821 2795 2770 2739 2704 2637 2570 2505 2444 2444 2492 2535 2535 2490 2448 2428 2400 2366 2320 2257 2194 2116 2027 1944 1843 1785 2065 2232 2127 1823 1631 1543 1463 1152 763 776 681 371 374
3126 3025 2937 2871 2839 2815 2790 2764 2724 2640 2595 2558 2519 2529 2615 2639 2644 2593 2567 2526 2499 2463 2438 2391 2342 2282 2207 2191 2366 2518 2539 2413 2240 1952 1687 1491 1195 1078 939 717 400 265
3192 3106 3029 2962 2899 2856 2850 2829 2778 2719 2645 2602 2593 2573 2609 2712 2748 2732 2701 2677 2655 2608 2588 2547 2524 2499 2615 2684 2746 2800 2752 2586 2336 2106 1883 1732 1401 1123 1005 718 495 472
3229 3179 3119 3050 2978 2933 2913 2902 2859 2792 2720 2665 2622 2608 2658 2792 2853 2876 2868 2837 2821 2794 2769 2746 2801 2966 3041 3020 3006 3016 2862 2639 2391 2112 1861 1684 1483 1180 985 788 534 357
3229 3212 3176 3105 3042 2992 2975 2991 2971 2916 2858 2802 2719 2680 2774 2880 2946 2972 2997 2992 3000 2984 2982 3083 3264 3349 3318 3270 3221 3137 2896 2642 2354 2088 1869 1682 1468 1242 1078 913 587 462
3216 3203 3184 3151 3085 3025 3004 3047 3070 3066 3024 2978 2956 2941 2960 3000 3088 3136 3161 3189 3195 3248 3359 3485 3562 3555 3479 3384 3303 3102 2795 2571 2337 2119 1944 1702 1407 1258 1108 910 774 636
3197 3200 3189 3184 3130 3064 3031 3062 3131 3172 3164 3148 3192 3219 3210 3203 3225 3290 3383 3430 3490 3543 3598 3657 3680 3570 3462 3321 3196 3070 2848 2574 2382 2190 2036 1798 1486 1264 1096 951 731 560
3255 3275 3240 3219 3192 3130 3084 3128 3244 3339 3353 3374 3386 3402 3439 3423 3413 3449 3493 3527 3602 3681 3775 3765 3662 3568 3482 3331 3192 3049 2851 2586 2300 2044 1934 1723 1525 1323 1082 900 639 756
3346 3402 3384 3350 3319 3265 3245 3314 3437 3519 3564 3587 3588 3598 3637 3657 3677 3695 3738 3788 3830 3832 3737 3644 3575 3490 3383 3225 3120 2926 2663 2445 2208 1966 1824 1720 1650 1392 1100 803 515 186

ECMWFNIL_con_mucape_039.txt.gz
CAPE
1514 1475 1454 1416 1385 1304 1246 1312 1383 1480 1748 2008 2069 2150 2179 2174 2240 2366 2592 2734 2697 2428 1940 1173 686 609 529 408 0 0 0 0 0 0 0 0 0 0 0 0 0 0
1539 1504 1489 1468 1427 1346 1232 1260 1415 1520 1634 1932 2008 2026 2090 2102 2137 2309 2548 2692 2627 2368 1878 1139 798 775 698 608 122 0 0 0 0 0 0 0 0 0 0 0 0 0
1566 1535 1500 1487 1469 1423 1291 1211 1354 1518 1564 1756 1937 1959 2016 2059 2106 2234 2470 2614 2467 2187 1820 1215 938 975 940 740 439 60 0 0 0 0 0 0 0 0 0 0 0 0
1604 1559 1512 1471 1463 1482 1422 1257 1240 1390 1485 1483 1745 1886 1952 2021 2087 2188 2347 2434 2238 2014 1718 1227 981 998 1004 817 586 522 0 0 0 0 0 0 0 0 0 0 0 0
1630 1592 1538 1495 1455 1464 1514 1447 1315 1277 1320 1322 1523 1703 1848 1951 2026 2112 2195 2210 2050 1849 1605 1288 984 938 926 845 673 625 0 0 0 0 0 0 0 0 0 0 0 0
1657 1633 1591 1546 1495 1457 1513 1570 1530 1418 1332 1341 1430 1569 1712 1853 1938 1976 2015 1976 1821 1690 1520 1377 1213 981 881 870 820 646 0 0 0 0 0 0 0 0 0 0 0 0
1699 1685 1664 1617 1580 1527 1516 1552 1615 1593 1515 1452 1431 1503 1595 1708 1802 1842 1850 1793 1668 1570 1490 1421 1329 1155 941 896 877 726 0 0 0 0 0 0 0 0 0 0 0 0
1698 1717 1703 1680 1659 1640 1625 1590 1614 1641 1637 1562 1488 1506 1558 1619 1649 1686 1689 1664 1604 1521 1466 1426 1358 1256 998 880 830 731 432 0 0 0 0 0 0 0 0 0 0 0
1665 1695 1737 1746 1747 1756 1756 1717 1692 1704 1692 1665 1616 1564 1548 1591 1611 1635 1649 1628 1578 1515 1450 1389 1361 1298 1144 954 790 647 548 228 0 0 0 0 0 0 0 0 0 0
1630 1653 1723 1796 1817 1838 1862 1844 1815 1798 1797 1779 1751 1684 1613 1599 1611 1623 1636 1643 1598 1507 1418 1358 1340 1304 1234 1100 863 639 574 553 178 0 0 0 0 0 0 0 0 0
1721 1680 1692 1768 1848 1888 1917 1930 1926 1891 1868 1886 1868 1821 1763 1696 1690 1706 1724 1694 1593 1474 1397 1348 1336 1299 1245 1185 1029 760 614 614 616 300 0 0 0 0 39 0 127 145
1904 1832 1785 1792 1841 1902 1953 1986 2006 1986 1954 1959 1950 1931 1904 1872 1864 1852 1847 1767 1602 1443 1366 1343 1336 1326 1269 1207 1078 848 700 758 805 648 336 0 0 0 5 0 0 202
2054 2028 1968 1920 1916 1938 1965 2011 2048 2078 2052 2028 2016 2013 1984 1970 1953 1927 1864 1761 1626 1480 1400 1396 1410 1419 1390 1294 1167 927 804 843 878 739 540 538 538 45 0 246 286 272
2169 2175 2146 2110 2073 2041 2040 2048 2085 2131 2155 2133 2089 2081 2052 1998 1978 1908 1874 1766 1648 1577 1539 1520 1535 1544 1547 1456 1336 1220 1107 1000 916 844 734 690 665 592 270 302 365 448
2266 2279 2291 2282 2251 2222 2168 2136 2132 2153 2191 2203 2179 2148 2106 2082 2020 1948 1872 1786 1707 1653 1642 1647 1666 1690 1707 1649 1488 1400 1350 1257 1150 1036 953 890 820 640 594 572 665 778
2379 2394 2405 2403 2405 2378 2319 2268 2216 2195 2205 2232 2250 2221 2199 2158 2100 2036 1933 1855 1798 1753 1732 1740 1769 1800 1827 1802 1678 1524 1449 1384 1276 1193 1125 1068 971 1052 1049 992 952 830
2492 2498 2484 2505 2519 2494 2463 2408 2344 2285 2239 2241 2253 2277 2282 2242 2184 2130 2061 2006 1942 1910 1874 1857 1889 1895 1915 1896 1817 1708 1605 1517 1419 1334 1217 1365 1404 1350 1360 1419 1322 1034
2590 2589 2582 2594 2592 2594 2565 2517 2460 2399 2321 2266 2252 2269 2285 2293 2270 2222 2178 2140 2092 2066 2023 1981 1949 1961 1972 1973 1903 1832 1780 1732 1674 1606 1482 1497 1522 1523 1477 1475 1534 1335
2664 2660 2672 2674 2664 2653 2624 2585 2547 2490 2434 2349 2283 2249 2237 2254 2280 2252 2241 2218 2190 2166 2147 2141 2129 2066 2052 2021 1969 1922 1908 1874 1810 1770 1700 1698 1794 1842 1828 1844 1756 1642
2746 2744 2745 2743 2728 2700 2652 2630 2598 2580 2520 2436 2330 2244 2218 2226 2235 2246 2250 2257 2249 2235 2226 2216 2197 2176 2165 2108 2039 1995 1971 1953 1886 1990 2139 2198 2100 1981 1974 1939 1869 1716
2838 2817 2802 2786 2761 2722 2691 2680 2659 2622 2579 2497 2399 2307 2255 2249 2248 2257 2270 2278 2293 2303 2308 2294 2284 2258 2250 2213 2165 2130 2117 2127 2400 2376 2391 2448 2305 2196 2162 2116 1967 1767
2905 2875 2860 2810 2759 2749 2744 2728 2700 2672 2623 2560 2483 2405 2320 2284 2292 2306 2336 2332 2336 2370 2376 2396 2381 2379 2373 2347 2306 2286 2264 2425 2664 2616 2621 2396 2482 2259 2213 2110 2010 1845
2934 2920 2891 2827 2779 2791 2795 2775 2752 2737 2685 2620 2560 2502 2422 2370 2368 2386 2407 2429 2444 2472 2481 2510 2508 2523 2532 2514 2487 2450 2372 2612 2340 2152 2057 2146 2244 2182 2297 2145 2032 1792
2908 2927 2901 2862 2844 2844 2833 2819 2806 2786 2754 2694 2659 2599 2550 2495 2442 2444 2488 2541 2576 2594 2627 2652 2681 2691 2692 2678 2638 2583 2528 2586 2306 2430 2360 2362 2373 2318 2331 2168 2006 1709
2778 2878 2910 2914 2916 2915 2884 2863 2845 2841 2807 2768 2734 2684 2637 2580 2536 2547 2577 2620 2667 2701 2757 2792 2786 2800 2785 2778 2762 2718 2875 2568 2600 2663 2577 2380 2268 2176 2214 2119 2024 1640
2737 2858 2912 2947 2959 2962 2946 2932 2899 2868 2866 2828 2805 2773 2731 2668 2646 2616 2635 2685 2741 2797 2863 2902 2895 2912 2906 2891 2898 3044 3264 3283 3200 2901 2695 2525 2253 2100 2160 2164 1890 1538

ECMWFNIL_con_mucape_042.txt.gz
CAPE
1384 1328 1301 1248 1214 1204 1212 1240 1290 1351 1400 1471 1705 1890 2012 2114 2098 2110 2144 2156 2175 2184 2254 2298 2398 2472 2480 2449 1754 546 474 440 0 0 0 0 0 3 6 1 0 2
1411 1392 1378 1319 1271 1245 1229 1213 1238 1262 1316 1367 1566 1757 1911 2011 2044 2072 2085 2102 2116 2148 2215 2312 2463 2555 2493 2380 1757 654 375 55 0 0 0 0 0 0 2 3 1 0
1397 1410 1391 1369 1341 1315 1290 1258 1226 1228 1236 1272 1416 1652 1803 1950 1986 2045 2065 2076 2067 2102 2202 2357 2526 2587 2499 2290 1712 817 361 387 101 0 0 0 0 0 0 0 0 0
1378 1391 1391 1394 1370 1350 1326 1309 1275 1252 1228 1225 1358 1614 1759 1912 1942 2013 2060 2084 2058 2057 2162 2337 2482 2550 2481 2269 1781 1019 466 455 517 0 0 0 0 0 0 0 0 0
1403 1398 1389 1379 1382 1359 1353 1329 1320 1293 1269 1251 1317 1598 1798 1873 1905 1960 2011 2046 2041 2058 2079 2207 2347 2490 2444 2267 1889 1260 646 575 644 603 129 0 0 0 0 0 0 0
1412 1410 1406 1392 1369 1385 1368 1358 1334 1313 1290 1277 1276 1530 1735 1798 1862 1907 1935 1966 1982 1995 2016 2114 2250 2396 2352 2206 1912 1472 892 690 753 799 636 352 0 0 0 0 0 0
1432 1426 1432 1413 1408 1394 1400 1378 1366 1354 1327 1309 1273 1376 1608 1726 1828 1872 1892 1873 1870 1873 1915 2035 2164 2279 2209 2054 1833 1564 1156 867 912 910 787 625 0 0 0 0 0 0
1464 1458 1453 1441 1431 1429 1416 1424 1418 1412 1396 1345 1281 1268 1420 1616 1735 1813 1825 1822 1792 1792 1824 1935 2051 2129 2038 1878 1715 1510 1230 1000 972 947 858 761 36 0 0 2 5 4
1504 1503 1494 1494 1478 1463 1464 1459 1469 1475 1445 1394 1315 1233 1317 1455 1587 1681 1730 1738 1729 1729 1776 1830 1931 1986 1923 1756 1573 1409 1235 1067 954 909 881 867 704 0 0 0 5 18
1518 1533 1539 1540 1529 1520 1505 1494 1490 1489 1490 1455 1385 1300 1280 1356 1437 1525 1595 1629 1653 1679 1703 1749 1820 1869 1837 1710 1559 1420 1280 1144 992 862 819 836 789 299 0 0 13 20
1541 1557 1573 1577 1580 1571 1558 1538 1526 1511 1506 1512 1477 1415 1347 1337 1392 1441 1495 1540 1587 1631 1655 1703 1753 1789 1773 1714 1594 1468 1342 1229 1123 968 813 728 678 613 306 2 20 40
1562 1589 1605 1620 1625 1620 1611 1597 1576 1552 1529 1526 1525 1517 1486 1432 1428 1455 1473 1508 1547 1578 1604 1633 1675 1703 1728 1707 1644 1518 1388 1286 1237 1205 1058 776 583 532 517 498 102 110
1534 1598 1627 1650 1667 1672 1661 1652 1644 1634 1602 1583 1562 1568 1545 1515 1494 1484 1483 1484 1509 1525 1541 1568 1618 1641 1659 1666 1655 1606 1462 1314 1246 1224 1181 1064 830 614 542 560 610 605
1516 1552 1610 1650 1682 1710 1718 1713 1710 1695 1686 1659 1634 1602 1578 1542 1521 1496 1495 1482 1486 1494 1509 1534 1567 1584 1605 1632 1673 1651 1537 1388 1305 1293 1244 1131 1012 842 670 636 722 808
1655 1626 1577 1628 1671 1717 1750 1766 1761 1762 1754 1736 1710 1694 1662 1631 1580 1537 1516 1512 1518 1521 1519 1524 1536 1556 1588 1664 1717 1672 1551 1439 1374 1376 1368 1309 1184 1006 851 819 838 893
1791 1795 1771 1649 1662 1698 1748 1778 1789 1804 1817 1810 1800 1774 1758 1723 1673 1638 1613 1590 1579 1574 1566 1561 1570 1613 1671 1736 1740 1662 1546 1451 1412 1416 1446 1478 1402 1208 1052 1022 1012 1016
1836 1904 1915 1881 1851 1818 1744 1763 1795 1831 1898 1868 1859 1845 1824 1800 1763 1747 1723 1683 1653 1633 1625 1642 1664 1700 1744 1766 1762 1690 1580 1477 1445 1459 1510 1587 1546 1405 1271 1218 1183 1158
1884 1958 2009 2030 1994 1967 1925 1900 1914 1936 1951 1927 1904 1895 1883 1862 1854 1834 1803 1760 1733 1720 1696 1672 1675 1717 1748 1750 1744 1691 1611 1549 1516 1538 1594 1666 1652 1623 1546 1460 1402 1293
1943 2012 2072 2110 2112 2095 2061 2027 2018 1999 1993 1927 1940 1942 1940 1924 1915 1904 1878 1836 1795 1769 1754 1733 1712 1734 1741 1738 1711 1694 1654 1615 1600 1614 1655 1688 1694 1727 1714 1682 1660 1616
2048 2084 2133 2165 2186 2184 2179 2178 2137 2108 2012 1989 1980 1971 1974 1980 1976 1974 1953 1922 1891 1853 1814 1762 1764 1767 1758 1735 1716 1703 1682 1656 1664 1703 1702 1739 1794 1808 1779 1768 1731 1704
2188 2203 2221 2239 2253 2268 2285 2296 2271 2166 2124 2088 2047 2038 2038 2033 2032 2026 2013 1993 1962 1940 1878 1837 1807 1788 1784 1770 1766 1747 1713 1691 1721 1743 1758 1836 1896 1827 1806 1828 1830 1800
2328 2340 2348 2354 2346 2356 2378 2383 2301 2280 2255 2202 2152 2133 2114 2100 2085 2065 2062 2044 2023 1991 1955 1908 1869 1837 1827 1828 1827 1816 1790 1780 1821 1867 1937 1973 1912 1918 1898 1826 1750 1843
2441 2448 2435 2452 2454 2440 2450 2442 2383 2373 2352 2307 2262 2232 2201 2176 2144 2116 2102 2089 2066 2032 2019 1967 1930 1907 1908 1911 1920 1895 1856 1880 1952 2013 2034 2014 2024 2016 1877 1694 1660 1948
2544 2562 2536 2506 2497 2474 2470 2467 2453 2440 2429 2396 2375 2332 2289 2270 2238 2198 2153 2124 2087 2074 2050 2032 2003 1955 1954 1969 1975 1937 1943 1997 2049 2091 2106 2097 2200 2166 1977 1890 2000 2167
2566 2650 2664 2582 2582 2579 2552 2534 2520 2524 2494 2464 2445 2413 2389 2339 2304 2281 2230 2182 2138 2123 2086 2068 2030 2001 1993 2004 2002 1991 2021 2072 2096 2148 2193 2267 2319 2308 2265 2250 2307 2282
2531 2652 2711 2660 2657 2648 2618 2608 2589 2552 2546 2528 2509 2473 2449 2415 2363 2315 2280 2253 2198 2183 2090 2055 2048 2041 2040 2044 2039 2053 2100 2138 2173 2247 2379 2450 2442 2443 2404 2434 2466 2411

ECMWFNIL_con_mucape_045.txt.gz
CAPE
2377 2299 2167 2176 2228 2212 2348 2531 2547 2592 2785 2718 2903 3012 3207 3492 3550 3612 3546 3476 3477 3386 3082 2600 2476 2453 2511 2670 2322 2238 2220 2220 1696 1293 1076 894 800 724 749 642 628 584
2374 2306 2213 2192 2245 2382 2542 2531 2566 2585 2804 2884 2863 2994 3333 3477 3629 3450 3530 3536 3384 3118 2884 2496 2458 2531 2697 2570 2224 2242 2284 2299 1929 1085 999 960 840 744 598 740 542 571
2400 2345 2264 2193 2149 2196 1944 2249 2467 2596 2594 2637 2754 3007 3176 3214 3332 3428 3479 3529 3349 3106 2840 2629 2542 2572 2617 2600 2206 2194 2288 2268 2068 1182 909 959 843 740 702 464 578 763
2437 2400 2269 2083 2099 2120 2129 2302 2435 2484 2360 2509 2589 2622 2735 2889 3085 3359 3416 3362 3384 3248 2886 2536 2641 2552 2585 2576 2224 2184 2284 2276 2118 1514 963 1021 966 760 672 654 539 652
2485 2496 2373 2283 2262 2333 2398 2399 2194 2233 2218 2320 2450 2476 2726 2923 3057 3050 3276 3404 3336 3202 2893 2704 2694 2555 2626 2505 2234 2131 2232 2263 2117 1744 1136 1040 989 799 688 667 666 551
2527 2560 2550 2509 2467 2528 2442 2326 2257 2180 2220 2164 2434 2383 2542 2749 2818 2818 3078 3137 3084 2864 2687 2734 2817 2570 2360 2498 2199 2043 2136 2153 2043 1832 1266 1035 893 689 589 710 663 601
2517 2544 2536 2467 2475 2506 2473 2369 2361 2328 2223 2227 2421 2347 2376 2524 2704 2805 3028 3094 2923 2893 2776 2898 2970 2733 2703 2474 2244 2064 2004 2070 1990 1838 1565 1017 1054 975 646 698 674 679
2348 2331 2412 2402 2387 2409 2425 2406 2427 2417 2355 2364 2399 2462 2424 2440 2669 2769 2965 3029 2930 3057 3052 3287 3388 3189 2722 2443 2313 2158 1923 2010 2000 1912 1698 1323 1086 1160 951 689 744 733
2329 2393 2392 2432 2350 2343 2312 2261 2337 2390 2307 2363 2281 2238 2411 2426 2637 2662 2971 3095 3018 3138 3271 3322 3379 3220 2901 2534 2400 2251 2084 1915 1954 1867 1696 1431 1148 1139 1107 937 816 801
2486 2437 2336 2235 2211 2254 2233 2193 2173 2294 2341 2285 2217 2162 2312 2461 2561 2723 2995 3196 3095 3092 3226 3232 3267 3128 2963 2605 2444 2308 2190 1992 1832 1762 1603 1414 1241 1185 1105 1023 895 898
2454 2397 2336 2274 2178 2170 2198 2140 2106 2164 2218 2186 2182 2168 2246 2411 2511 2684 2939 3129 2997 3016 3026 3161 3152 3074 2992 2638 2410 2285 2212 2077 1870 1718 1556 1368 1362 1310 1142 1100 957 956
2487 2370 2292 2294 2224 2191 2183 2161 2133 2181 2249 2222 2155 2172 2215 2218 2417 2532 2658 2912 2964 2963 3090 3131 3125 3056 2978 2774 2390 2176 2077 2028 1944 1736 1603 1492 1424 1368 1252 1126 1016 954
2517 2430 2364 2319 2410 2316 2294 2254 2187 2176 2212 2267 2198 2158 2136 2154 2208 2409 2505 2683 2870 2907 2951 3081 3091 2995 2970 2845 2580 2258 2052 1960 1849 1702 1682 1572 1387 1225 1176 1064 958 932
2657 2594 2453 2486 2502 2555 2487 2372 2302 2281 2328 2377 2372 2246 2135 2137 2150 2275 2451 2485 2658 2798 2874 2952 3053 2957 2938 2890 2678 2406 2095 1964 1842 1705 1665 1603 1531 1366 1195 1062 1002 915
2645 2704 2630 2640 2654 2743 2611 2520 2469 2480 2479 2485 2525 2384 2245 2199 2214 2217 2371 2466 2465 2647 2729 2758 2848 2830 2796 2774 2672 2492 2257 2006 1911 1803 1654 1613 1566 1485 1327 1169 1102 1058
2808 2793 2824 2810 2884 2860 2862 2732 2623 2609 2581 2594 2636 2526 2462 2425 2372 2342 2326 2430 2454 2550 2621 2674 2648 2682 2338 1988 2033 2434 2322 2088 1977 1878 1748 1597 1557 1533 1420 1261 1178 1181
2733 2769 2774 2829 2802 2785 2843 2799 2796 2826 2789 2740 2674 2635 2548 2604 2569 2459 2373 2362 2412 2470 2551 2533 2554 2533 1933 1732 1633 1634 2114 2221 2099 1997 1826 1690 1540 1560 1500 1356 1247 1255
2635 2722 2770 2818 2843 2852 2913 2909 2852 2807 2842 2830 2750 2754 2757 2699 2673 2614 2626 2438 2400 2436 2466 2511 2534 2081 1798 1643 1550 1509 1531 2095 2160 2084 1868 1729 1569 1563 1518 1405 1322 1325
2840 2864 2836 2808 2910 2893 2870 2896 2933 2966 2931 2860 2787 2828 2855 2880 2813 2672 2663 2618 2487 2532 2444 2458 2483 2016 1720 1601 1519 1482 1465 1570 2113 2114 1953 1766 1575 1575 1508 1534 1442 1350
3014 2909 2862 2893 2920 2858 2908 2924 2941 2892 2886 2873 2834 2856 2815 2832 2769 2772 2787 2740 2665 2646 2621 2552 2550 2122 1747 1593 1512 1470 1462 1460 1916 2100 2018 1867 1664 1599 1527 1616 1603 1415
3034 3000 3056 3057 3026 2945 2896 2877 2888 2896 2900 2865 2818 2792 2733 2739 2707 2738 2716 2611 2657 2537 2599 2602 2537 2114 1860 1682 1578 1508 1485 1480 1627 2025 2056 1938 1814 1779 1787 1783 1708 1467
3026 3073 3112 3151 3104 2981 2903 2842 2852 2912 2934 2909 2793 2676 2652 2559 2816 2782 2701 2563 2640 2348 2388 2550 2603 2077 1894 1776 1698 1628 1568 1539 1549 1900 2072 1944 1902 1851 1885 1898 1647 1549
2956 3028 3128 3115 3134 3064 2997 2934 2982 2999 3002 2895 2802 2767 2793 2838 2812 2668 2756 2782 2642 2432 2468 2434 2346 2328 2022 1875 1805 1743 1678 1658 1634 1705 1977 1820 1961 1956 1894 1763 1633 1642
2982 3007 3064 3133 3162 3158 3114 3034 3028 3035 2998 2972 2910 2778 2708 2654 2691 2690 2704 2547 2746 2679 2594 2501 2674 2851 2170 1995 1876 1848 1778 1739 1695 1720 1913 1817 1857 1936 1691 1710 1689 1704
3024 2892 3025 3117 3190 3229 3151 3146 3157 3191 3152 3133 2887 2827 2828 2950 2750 2748 2922 2975 2745 2801 2527 2508 2752 2456 2240 2142 2006 1952 1895 1832 1771 1717 1750 1799 1793 1889 1717 1754 1753 1796
2826 3168 3286 3166 3252 3289 3280 3270 3321 3230 3184 3067 2894 2805 2831 2821 2808 2835 2988 2978 2944 2911 2766 2468 2687 2737 2307 2201 2102 2019 1974 1949 1880 1824 1800 1826 1903 1775 1752 1698 1804 1865

ECMWFNIL_con_mucape_048.txt.gz
CAPE
3568 3611 3512 3444 3325 3031 2952 3157 3211 3277 3259 3056 3168 3364 3355 3703 3746 3407 3852 4186 4525 4334 4145 3932 3558 3084 2891 3048 3145 3078 2977 2896 2636 2406 1925 1720 1213 654 358 362 260 211
3258 3536 3481 3389 3327 3236 3104 3190 3384 3323 3468 3433 3254 3270 3608 3719 4104 3884 4035 4344 4508 4347 4240 4019 3576 3248 3036 2887 2984 2982 3071 2952 2993 2406 2043 1877 1380 892 531 556 409 293
3273 3341 3294 3434 3375 3334 2911 3116 3386 3457 3294 3449 3412 3382 3614 3785 4022 4201 4258 4409 4370 4225 4299 4124 3911 3587 3153 2920 3041 3116 3046 3000 2964 2377 2196 2172 1538 1070 902 576 377 473
3514 3466 3163 3472 3309 3190 3226 3192 3394 3510 3222 3279 3387 3348 3343 3548 3790 4201 4353 4484 4289 4266 4214 4187 3831 3569 3195 3016 3130 3071 3238 3172 3006 2735 2470 2263 1878 1367 1076 734 559 607
3496 3455 3270 3622 3445 3232 3394 3216 3112 3336 3376 3221 3217 3438 3426 3524 3808 3873 4215 4296 4252 4234 4124 4078 3905 3502 3439 3198 3115 3005 3057 3122 2945 3041 2715 2436 2211 1732 1255 929 776 698
3538 3687 3860 3826 3494 3419 3346 3341 3322 3209 3385 3118 3304 3210 3400 3598 3663 3594 3745 3945 4134 3806 3707 3834 3958 3558 3500 3452 3122 3022 3024 3067 2799 2865 2722 2578 2276 1910 1362 1185 1097 830
3865 3979 3722 3663 3590 3450 3364 3402 3396 3198 3166 3256 3250 3324 3368 3585 3675 3589 3552 3818 3731 3869 3538 3684 3971 3734 3632 3503 3191 3067 3262 3293 3128 2968 3031 2809 2478 2155 1562 1410 1424 1113
3710 3796 3761 3663 3588 3444 3574 3304 3442 3385 3316 3464 3344 3414 3479 3450 3771 3735 3625 3657 3656 3912 3860 3716 3972 3923 3734 3474 3282 3199 3394 3440 3294 3233 3267 3179 2673 2453 1990 1671 1706 1553
3602 3603 3697 3696 3594 3580 3361 3244 3391 3565 3497 3395 3307 3231 3570 3514 3608 3659 3905 3819 3817 3867 4212 3964 4006 4028 3873 3617 3490 3432 3488 3394 3431 3494 3330 3138 2772 2549 2372 1996 1893 1857
3542 3524 3518 3502 3389 3386 3292 3255 3208 3462 3575 3456 3384 3137 3408 3658 3545 3614 3826 4099 4073 4047 4234 4246 4060 4102 4048 3775 3638 3666 3790 3964 3686 3561 3408 3203 2974 2748 2586 2355 2067 2020
3497 3456 3444 3430 3238 3206 3211 3182 3159 3245 3400 3439 3415 3235 3245 3627 3655 3614 3805 4137 4145 4253 4279 4298 4204 4258 4057 3687 3795 3994 4044 3917 3710 3684 3522 3370 3127 2991 2594 2632 2408 2173
3566 3403 3308 3321 3277 3169 3078 3066 3013 3019 3168 3424 3455 3406 3272 3230 3652 3610 3656 4078 4258 4281 4325 4406 4349 4248 4124 3779 3650 3934 3929 3746 3756 3643 3440 3416 3264 3077 2841 2656 2619 2444
3546 3362 3282 3108 3347 3181 2959 2942 2893 2792 2873 3130 3368 3337 3284 3186 3259 3680 3658 3810 4246 4330 4309 4460 4459 4190 4097 4036 3967 3888 3914 3804 3567 3626 3440 3419 3302 3036 2869 2696 2580 2523
3584 3588 3308 3292 3214 3368 3250 3055 3038 3014 3009 3134 3292 3368 3259 3203 3109 3374 3721 3737 3959 4246 4345 4412 4490 4260 4277 4329 4060 3894 3866 3813 3568 3574 3449 3454 3287 3150 2896 2726 2638 2530
3794 3704 3524 3435 3334 3526 3467 3299 3191 3257 3239 3225 3324 3408 3294 3202 3162 3142 3578 3831 3888 4089 4234 4228 4278 4309 4304 4296 4143 4072 3923 3692 3585 3492 3517 3440 3390 3163 2979 2767 2712 2556
3972 3846 3823 3622 3602 3648 3783 3569 3398 3487 3380 3382 3400 3424 3506 3409 3289 3270 3310 3636 3849 3935 4128 4133 4131 4316 3891 3451 3503 4133 3942 3615 3580 3488 3434 3320 3417 3213 2964 2881 2731 2606
4147 4067 3990 3850 3742 3710 3905 3837 3656 3513 3614 3669 3646 3695 3707 3632 3505 3364 3190 3289 3577 3857 3936 3999 4098 4017 3412 3118 3164 3237 3735 3803 3550 3541 3484 3346 3335 3375 3108 2893 2786 2696
4340 4272 4127 4052 3967 3954 3981 4058 3862 3783 3800 3840 3732 3730 3869 3741 3623 3481 3538 3332 3405 3614 3733 3868 3978 3529 3193 2997 2896 2790 2845 3535 3599 3515 3442 3392 3327 3236 3197 2975 2876 2775
4264 4365 4371 4216 4136 4043 4063 4190 4134 3884 3827 3873 3832 3879 3921 4020 3802 3728 3648 3562 3420 3550 3626 3714 3800 3334 3021 2846 2653 2471 2368 2631 3341 3486 3383 3372 3321 3231 3210 3127 3000 2895
4284 4302 4388 4254 4216 4186 4200 4291 4277 4122 4028 3957 3938 3956 3962 4023 3923 3865 3876 3894 3699 3690 3734 3697 3756 3299 2963 2654 2467 2301 2183 2124 2912 3115 3216 3310 3344 3280 3167 3168 3156 3089
4258 4118 4074 4239 4314 4292 4228 4283 4312 4215 4192 4064 3863 3888 4015 4120 4016 3980 3946 3964 3899 3748 3713 3752 3677 3090 3032 2734 2417 2190 2045 1952 2632 2834 2991 3230 3402 3371 3113 3042 3160 3158
3965 3904 3872 4041 4228 4140 4138 4116 4045 4068 4180 4057 3901 3816 3849 3877 4067 3972 3968 3968 3927 3828 3676 3674 3652 3016 2936 2813 2589 2308 2056 1883 2410 2775 2954 3176 3404 3094 2730 2705 2676 2756
3845 3862 3865 3954 4212 4178 4120 4150 4113 4212 4204 4112 4019 3817 3817 3971 4025 3972 3829 3512 3422 3406 3398 3548 3435 3599 2875 2703 2610 2457 2228 1992 2340 2681 2879 2990 3129 3150 2833 2668 2624 2680
3827 3821 4134 4162 4169 4172 4177 4044 4046 4096 4128 4096 4050 3922 3705 3750 3856 3731 3572 3500 3542 3664 3335 3558 3628 3671 2882 2626 2619 2539 2346 2171 2433 2626 2821 3062 3161 2916 2669 2583 2646 2311
3949 4044 4172 4238 4264 4216 4142 4022 4029 4090 4016 4014 3973 3908 3778 3772 3626 3549 3565 3632 3557 3416 3125 3206 3620 3623 3053 2725 2663 2602 2430 2320 2551 2676 2820 3040 3039 2906 2810 2557 2505 2311
3856 4101 4154 4099 4195 4261 4299 4228 4048 3906 3929 3932 3965 3824 3824 3735 3528 3558 3714 3791 3720 3541 3434 3283 3414 3852 3110 3081 2808 2644 2486 2364 2765 2772 2934 3056 3103 2886 2789 2499 2403 2741

ECMWFNIL_con_mucape_051.txt.gz
CAPE
3670 3620 3660 3544 3327 2886 2845 3224 3723 3774 3733 2950 2865 3102 3008 3166 3113 2737 2770 3056 3665 3873 3518 3410 3810 3876 3810 3734 3665 3739 3291 3223 2770 2613 2302 1772 1548 1199 635 622 640 506
3615 3715 3739 3650 3557 3450 3164 3029 3372 3713 3747 3515 2889 2817 3249 3152 3240 3162 3104 3212 3586 4121 3986 3552 3890 4214 4067 3540 3681 3784 3806 3460 3238 2566 2460 1901 1523 1369 804 770 672 661
3588 3581 3832 3753 3392 3406 3146 3016 3224 3338 3413 3628 3211 2832 2941 3320 3294 3585 3456 3427 3614 3956 4202 3712 3697 4036 3918 3394 3587 3650 3784 3787 3534 2678 2677 2297 1602 1429 1282 624 612 595
3902 3914 3722 3672 3517 3459 3479 3248 3152 3261 3372 3479 3494 3018 2643 2847 3406 3651 3925 3824 3858 4100 4104 3986 3616 3610 3824 3350 3480 3402 3524 3921 3726 3235 2652 2385 2001 1518 1438 988 660 570
3927 3962 3905 3823 3668 3434 3729 3578 3108 3139 3310 3187 3306 3447 3260 3132 3265 3650 4086 4159 4134 4258 4136 4054 3779 3725 3850 3680 3533 3456 3318 3546 3538 3458 2939 2504 2330 1829 1586 1336 957 650
3938 4030 4040 3978 3538 3709 3657 3722 3480 3089 3335 2984 3068 3268 3391 3390 3347 3604 3914 3870 4108 4058 3513 3620 3883 3682 3807 3954 3791 3463 2955 3049 3218 3364 3135 2765 2393 1932 1634 1616 1290 942
4076 4167 4148 3653 3633 3753 3785 4018 3930 3467 3272 3232 3173 3192 3226 3597 3690 3607 3746 3903 3817 4111 3528 3554 3998 3911 3752 3913 3886 3692 3353 3367 3206 3136 3050 2725 2568 2170 1728 1800 1629 1266
3885 4002 4105 3824 3805 3550 4019 4030 4054 3893 3586 3592 3404 3519 3563 3703 3885 3984 3841 3790 3982 4116 4125 3656 4083 4116 3708 3790 3909 3861 3560 3236 3234 3218 2905 2772 2711 2425 2136 1901 1808 1648
3902 4084 4357 4051 3816 3560 3816 3790 4005 4140 3920 3674 3496 3477 3867 3718 3888 4051 4270 4076 4090 4097 4217 3972 4053 4266 4039 3958 4021 4038 3652 3262 3167 3292 3104 2968 2786 2621 2460 2291 2052 1938
4032 4060 3870 3754 3727 3376 3467 3667 3585 3832 4001 3824 3641 3210 3466 4026 3925 4102 4386 4508 4254 4140 4150 4145 4017 4152 4360 4067 4130 4089 3904 3557 3286 3418 3264 3181 3077 2832 2642 2527 2338 2238
4133 4037 3846 3743 3426 3385 3474 3467 3306 3214 3535 3783 3642 3226 2847 3537 4118 4123 4446 4741 4515 4220 4209 4311 4307 4359 4418 4049 4134 4088 3970 3658 3422 3550 3550 3521 3364 3325 2922 2794 2694 2523
4243 4164 3781 3908 3897 3495 3399 3169 2843 2652 2960 3622 3743 3433 3079 2813 3848 4169 4337 4746 4826 4620 4370 4500 4626 4473 4580 4441 4100 4046 4014 3788 3645 3667 3614 3768 3730 3668 3352 3015 3020 2845
4322 4321 3886 3800 3964 3526 3089 2922 2586 2394 2371 2953 3629 3617 3469 2920 3092 4254 4352 4599 4990 4807 4618 4690 4799 4710 4829 4688 4346 4083 4047 4152 3638 3527 3627 3773 3935 3809 3404 3147 3030 3013
4654 4468 4125 3938 4041 4308 3726 3069 2864 2570 2714 2650 3349 3838 3599 3462 2990 3751 4378 4404 4875 4889 4828 4884 5010 4898 4818 4886 4631 4189 4162 4234 3831 3682 3898 4105 4027 3728 3328 3119 3015 2997
4940 4750 4609 4236 3902 4430 4290 3750 3306 3397 3360 3106 3455 3804 3828 3602 3410 3230 4231 4500 4710 4965 4943 4906 5004 5070 4904 4936 4938 4474 4195 4130 4049 3686 3696 3806 3852 3720 3376 3114 3043 2944
5312 5047 4867 4882 4529 4423 4794 4555 4005 3735 3476 3335 3426 3544 4023 4141 4017 3706 3640 4354 4576 4918 5126 4916 4986 5114 4719 4409 4511 4754 4342 3937 4021 3958 3759 3692 3798 3782 3419 3200 2963 2888
5410 5288 5060 5033 5051 4782 4844 4809 4610 4179 4326 4499 4221 3987 4323 4700 4286 3879 3637 3841 4458 4648 4949 4914 4952 5156 4621 4277 4176 4195 4377 4370 3933 4094 4076 3888 3753 3926 3550 3234 3129 2972
5422 5497 5385 5162 5076 4920 4929 5033 4914 4554 4456 4482 4223 4093 4629 4208 4310 4279 4360 3864 4039 4462 4716 4892 4880 4695 4573 4242 3958 3944 3977 4388 4056 3970 3946 3742 3688 3638 3734 3274 3044 3094
5475 5538 5530 5354 5264 5078 5041 5081 5146 4884 4570 4557 4438 4457 4413 4663 4758 4481 4450 4264 3984 4414 4446 4624 4780 4523 4374 4167 3813 3702 3683 3719 4098 4024 3698 3566 3592 3698 3500 3490 3269 3189
5642 5637 5655 5542 5459 5230 5100 5093 5209 5171 4809 4583 4579 4724 4561 4652 4628 4642 4718 4680 4357 4284 4534 4472 4763 4358 4250 4049 3790 3534 3451 3356 3899 4014 3915 3678 3647 3818 3525 3565 3651 3413
5688 5728 5791 5679 5577 5391 5189 5186 5273 5328 5055 4721 4513 4579 4702 4775 4662 4756 4808 4726 4484 4072 4037 4239 4423 4120 4166 4024 3756 3482 3271 3108 3705 3782 4127 4144 4128 4091 3901 3563 3735 3705
5632 5716 5718 5698 5565 5455 5320 5178 5267 5432 5190 4964 4603 4400 4567 4645 4848 4652 4662 4600 4624 4438 4085 4064 4019 3687 3897 3988 3776 3408 3184 3014 3481 3748 3931 4126 4184 4154 4117 4028 3838 3910
5345 5434 5494 5570 5650 5488 5323 5256 5328 5363 5208 5104 4834 4446 4374 4480 4700 4707 4772 4669 4664 4608 4461 4293 4254 4133 3617 3719 3775 3569 3159 2905 3384 3578 3654 3747 4042 4153 4158 4150 4071 4128
5187 5184 5281 5384 5522 5534 5354 5227 5144 5002 5200 5174 4844 4489 4206 4342 4510 4734 4755 4668 4560 4620 4266 4674 4351 4488 3656 3584 3533 3534 3304 3024 3438 3551 3566 3623 3698 3880 4011 4000 4090 3705
4971 4965 5066 5220 5404 5445 5291 5113 4885 4942 5038 5036 4906 4718 4481 4412 4228 4416 4582 4682 4619 4372 4332 4360 4589 4265 3948 3754 3541 3387 3271 3229 3487 3494 3543 3606 3560 3683 3842 3949 4047 3671
4761 5054 5152 5050 5080 5150 5298 5130 4964 4946 4987 4889 4789 4546 4556 4431 4192 4058 4298 4458 4588 4519 4534 4455 4546 4690 3724 3780 3726 3550 3330 3243 3678 3632 3568 3595 3656 3644 3765 3900 3828 3727

ECMWFNIL_con_mucape_054.txt.gz
CAPE
3119 3399 3595 3516 3174 2916 2905 3689 3967 3833 3764 3552 3746 3689 3628 3826 3647 3491 3352 3863 4241 4213 4168 4200 3929 4206 4106 4143 4261 4258 3859 3518 3318 3584 2967 2395 2053 1536 1005 729 667 738
3170 3448 3558 3494 3335 3139 3231 3442 4014 4043 4109 4030 3769 3878 4113 4109 3886 3805 3739 3714 4164 4223 4251 4255 4122 4004 4125 3946 4351 4219 4352 3858 3719 3337 3154 2511 2260 1792 1315 1066 809 739
3232 3464 3808 3496 3128 3283 2679 3140 3707 4359 4353 4113 3944 3986 4202 3941 3882 3730 4008 3871 4008 3966 4390 4142 4196 4198 4185 4308 4456 4274 4360 4119 3664 3100 3229 2712 2428 1927 1694 1051 864 1118
3308 3419 3357 3179 3218 3229 2874 2800 3129 3942 3954 4139 3789 3392 3432 3107 3448 3828 3713 4038 3915 3972 4270 4276 3925 4074 4423 4420 4510 4336 4246 4285 3828 3539 3289 3157 2566 2104 1820 1472 1091 935
3378 3444 3338 3317 3303 3410 3178 2792 2539 3155 3514 3655 3897 3484 3181 3331 3803 3738 3786 3828 4056 4199 4470 4468 4228 4194 4590 4532 4418 4291 4166 4294 4075 4078 3484 3253 2890 2363 2019 1725 1486 1065
3462 3491 3600 3678 3605 3548 3522 3077 2772 2626 2936 2970 3622 3674 3538 3296 3883 3562 3810 3799 3783 3814 3848 4361 4388 4114 4484 4522 4287 4198 3855 3991 4025 4171 3776 3280 2943 2379 1952 1981 1816 1465
3636 3696 3608 3556 3538 3560 3544 3383 3208 2966 3158 3026 3386 3547 3601 3351 3230 3431 3830 3998 3598 3401 3511 4038 4312 4084 4124 4316 4128 4044 3883 3834 3859 4184 3922 3388 3061 2576 1971 2066 2058 1687
3424 3433 3563 3358 3301 3367 3373 3421 3609 3539 3334 3404 3378 3622 3727 3506 3345 3127 3596 4151 4171 4048 3919 4170 4346 4358 4159 4265 4150 4071 3883 3708 3664 4078 3953 3676 3219 2934 2369 2042 2197 2048
3591 3707 3564 3369 3039 3097 3055 2924 3373 3666 3580 3532 3292 3242 3512 3540 3747 3321 3405 3922 4174 4388 4500 4276 4437 4297 4047 4213 4269 4157 3892 3365 3196 3820 3873 3699 3450 3126 2792 2315 2202 2230
3578 3714 3428 3484 3261 3462 3150 2959 2816 3129 3574 3419 3293 3040 3310 3431 3611 3743 3956 3990 4202 4288 4535 4269 4358 4298 4051 3982 4266 4273 4032 3672 3358 3487 3682 3546 3460 3218 2941 2601 2246 2316
3574 3646 3740 3524 3418 3161 3149 2928 2603 3164 3425 3348 3002 2845 3095 3591 3607 3948 4365 4351 4118 4271 4683 4624 4304 4414 4191 3891 4076 4255 4107 3809 3669 3553 3596 3545 3360 3199 2959 2779 2530 2287
3752 3366 3138 3514 3572 2862 2864 2974 2815 2786 3363 3672 3603 3113 3154 3276 3905 3902 4260 4658 4373 4230 4481 4775 4566 4431 4360 4126 3902 4123 4159 3933 3728 3576 3471 3600 3400 3188 3141 2958 2784 2578
3755 3499 3593 3737 3688 3270 3133 2917 2507 2613 3022 3320 3444 3329 3112 2730 3571 3978 3938 4577 4755 4466 4346 4544 4615 4440 4411 4412 4245 4195 4303 4234 3916 3716 3406 3422 3513 3260 3140 3052 2916 2838
4044 3806 3585 3546 3484 3620 3388 3018 2852 2885 3018 3445 3979 3813 3106 3124 2882 3801 4370 4357 4791 4764 4576 4474 4607 4561 4512 4597 4572 4478 4432 4346 4136 3912 3526 3430 3443 3483 3261 3043 2950 2873
4267 4272 4020 3642 3636 3834 3523 3266 3226 3258 3335 3427 3640 3801 3545 3332 3050 2719 3816 4289 4477 4906 4831 4583 4500 4522 4484 4616 4692 4558 4407 4355 4235 3971 3738 3504 3535 3555 3613 3427 3251 2993
4568 4495 4322 4122 3909 3998 3806 3559 3505 3618 3539 3492 3340 3566 3804 3928 3724 3274 2990 4165 4353 4877 5165 4866 4532 4450 4199 4216 4293 4422 4326 4146 4183 4110 3906 3663 3664 3613 3582 3588 3447 3200
4864 4841 4726 4435 4279 4215 4338 3998 3750 3784 3795 3634 3402 3349 3629 4301 4218 3931 3124 3138 4236 4568 5033 4985 4714 4516 4164 4108 4074 4036 4191 4122 4083 4254 4150 3896 3683 3722 3748 3709 3528 3387
5122 5112 5031 4818 4548 4442 4535 4473 4112 3829 3829 3863 3646 3491 3625 4123 4421 4287 3933 3302 3940 4445 4620 4960 4808 4387 4380 4331 4142 4073 3934 3996 4057 4232 4260 4032 3802 3833 3950 3794 3688 3628
5491 5413 5299 5131 4886 4603 4548 4726 4628 4265 4017 3989 3876 3764 3715 3961 4511 4481 4332 3966 3693 4503 4715 4872 5038 4713 4633 4496 4264 4150 4033 3866 4056 4017 4049 4026 3781 3620 3667 3731 3586 3526
5801 5790 5592 5315 5220 5064 4852 4840 4905 4779 4458 4245 4199 4204 4100 4108 4275 4608 4493 4413 4144 4269 4640 4739 4848 4792 4676 4614 4386 4100 3972 3746 4047 4072 3891 3884 3898 3661 3396 3478 3642 3466
6021 6195 6067 5729 5604 5462 5232 5029 5083 5102 5032 4735 4458 4450 4346 4405 4381 4520 4774 4638 4535 4392 4492 4878 4567 4540 4652 4613 4506 4269 3948 3794 3696 4077 4076 4034 4050 4007 3790 3481 3533 3679
6118 6365 6385 6149 5866 5689 5492 5336 5348 5441 5326 4974 4364 4130 4321 4647 4763 4498 4587 4813 4859 4670 4239 4304 4296 4059 4475 4586 4562 4381 4146 3877 3571 3860 3986 4146 4227 4150 4099 3878 3617 3638
6097 6426 6416 6290 6146 5827 5570 5386 5460 5681 5639 5306 4688 4248 4261 4542 4497 4437 4454 4579 4673 4766 4629 4294 4122 3808 3811 4252 4480 4500 4328 4062 3719 3652 3818 3907 4115 4263 4235 4108 3950 3800
6172 6548 6411 6234 6223 6132 5780 5603 5541 5494 5487 5424 5005 4475 4133 4193 4414 4451 4503 4538 4505 4632 4642 4663 4614 4272 3670 3610 4023 4400 4420 4295 4009 3681 3833 3814 3768 3987 4322 4367 4233 3832
6058 6453 6462 6226 6273 6190 6050 5838 5640 5604 5640 5766 5129 4718 4242 4430 4527 4639 4764 4776 4415 4310 4429 4341 4618 4506 4164 3802 3596 3894 4247 4339 4206 3940 3799 3915 3849 3813 3959 4351 4584 4256
5822 6265 6424 6244 6314 6367 6000 5977 5842 5528 5622 5553 5310 4866 4696 4444 4323 4515 4826 4899 4554 4649 4178 4384 4575 4767 4208 4121 3950 3788 3806 4103 4138 4052 3846 3980 4020 3938 3926 3945 4118 4458

ECMWFNIL_con_mucape_057.txt.gz
CAPE
1838 1929 2074 2071 2016 2014 2428 2339 2262 2141 2551 2218 2660 2759 2716 2566 2460 2540 2676 2751 2975 2861 3083 3274 3261 2963 2689 2954 2842 2701 3106 2774 2568 2669 1974 1726 1154 658 256 303 536 640
1854 1952 2136 2151 2153 2155 2260 2524 2430 2260 2251 2705 2395 2744 2954 2844 2758 2556 2630 2907 3092 2987 3044 3210 3082 2867 2723 2685 3278 2781 2942 2780 2596 2650 2202 1904 1529 924 491 257 166 313
1898 1972 2044 2178 2166 2195 2139 2554 2637 2407 2271 2470 2807 2668 2945 3032 2942 2712 2572 2931 3094 3101 3060 3204 2945 2799 2914 2722 3116 3025 2786 2646 2632 2598 2427 2056 1677 1249 775 394 95 92
1936 1978 2033 2114 2148 2167 2076 2199 2850 2760 2558 2473 2766 2957 2853 3078 3011 2804 2640 3096 3064 3122 3134 3156 3132 2793 2967 2910 2900 3201 2970 2623 2647 2724 2611 2253 1898 1513 1101 698 269 164
1936 1960 2030 2082 2153 2161 2084 1966 2339 3033 2914 2791 2750 2984 3037 2944 3054 2916 2792 2730 2890 3073 3150 3158 3218 3016 2896 3052 3037 3002 3204 2928 2661 2791 2654 2455 2150 1769 1366 1047 627 267
1910 1892 1980 2096 2177 2193 2150 2002 2002 2593 3145 3112 2965 2964 3134 3049 2963 2979 2868 2965 2851 2974 3121 3217 3174 3209 2998 2991 3299 3113 3058 3159 3018 2782 2683 2536 2323 1964 1608 1286 1069 746
1979 1892 1948 2086 2192 2189 2196 2082 1990 2084 2794 3192 3188 3013 2962 3167 3013 2939 2846 2933 3059 3009 3106 3261 3253 3229 3219 3081 3291 3351 3208 3133 3167 2954 2844 2608 2456 2195 1845 1516 1250 1029
2064 1962 1965 2097 2234 2234 2221 2180 2022 1976 2137 2702 3203 3209 2880 2794 3022 2910 2877 2707 2950 3114 3112 3288 3352 3261 3303 3296 3279 3350 3341 3292 3210 3148 2994 2863 2587 2391 2115 1791 1487 1192
2172 2084 2055 2146 2261 2334 2358 2312 2144 1949 1908 2148 2573 3077 3089 2743 2468 2739 2925 2813 2684 2911 3137 3303 3432 3357 3306 3419 3412 3367 3352 3286 3269 3234 3098 3049 2838 2577 2349 2070 1726 1406
2314 2224 2185 2226 2282 2358 2427 2445 2385 2100 1871 1939 2097 2403 2984 2996 2617 2310 2803 3045 2876 2723 2829 3157 3444 3457 3368 3379 3461 3437 3356 3253 3184 3210 3198 3099 2983 2743 2492 2259 1961 1644
2431 2306 2294 2284 2313 2349 2408 2445 2446 2372 2105 1978 2114 2180 2431 2850 2916 2512 2303 2812 3162 3009 2804 2770 3161 3482 3457 3379 3391 3406 3342 3227 3082 3008 3122 3156 3043 2862 2620 2382 2146 1890
2524 2396 2349 2340 2322 2310 2372 2432 2366 2360 2421 2279 2234 2328 2389 2597 2838 2852 2524 2282 2752 3255 3234 2942 2934 3312 3464 3424 3372 3363 3318 3213 3070 2891 2833 3025 3047 2924 2736 2513 2292 2039
2586 2487 2403 2369 2340 2247 2203 2294 2327 2245 2373 2542 2448 2392 2416 2530 2687 2818 2861 2542 2358 2669 3305 3450 3240 3247 3404 3428 3381 3368 3346 3259 3125 2939 2726 2733 2930 2892 2790 2668 2472 2257
2593 2496 2456 2418 2351 2252 2160 2172 2218 2185 2160 2384 2574 2478 2358 2355 2563 2670 2777 2902 2775 2570 2736 3268 3555 3446 3405 3434 3364 3334 3388 3363 3260 3090 2863 2672 2747 2855 2810 2723 2612 2446
2570 2476 2411 2445 2528 2438 2370 2344 2320 2248 2169 2236 2456 2448 2339 2221 2223 2577 2667 2744 3035 3037 2862 2940 3320 3553 3498 3469 3438 3305 3280 3392 3374 3248 3072 2874 2744 2798 2836 2749 2634 2533
2624 2502 2406 2414 2597 2671 2599 2485 2423 2349 2177 2172 2534 2602 2415 2234 2095 2217 2670 2779 2916 3236 3250 3107 3126 3415 3588 3519 3460 3374 3242 3279 3378 3330 3212 3060 2904 2766 2784 2824 2720 2582
2724 2604 2478 2421 2536 2737 2742 2598 2423 2311 2207 2140 2371 2824 2831 2640 2419 2216 2386 2890 2930 3129 3464 3436 3300 3273 3442 3674 3597 3471 3352 3275 3338 3424 3364 3260 3105 2927 2757 2713 2780 2754
3109 2708 2650 2542 2498 2667 2813 2710 2505 2373 2242 2176 2268 2705 3028 2955 2802 2602 2440 2683 3100 3132 3324 3570 3570 3408 3374 3550 3685 3636 3489 3378 3380 3430 3494 3441 3327 3178 2981 2795 2735 2787
3500 3138 2906 2763 2674 2662 2776 2809 2645 2434 2350 2318 2358 2523 2955 3187 3111 2969 2802 2583 2847 3359 3362 3475 3627 3630 3570 3523 3602 3664 3626 3465 3366 3410 3481 3511 3441 3308 3160 3016 2870 2822
3784 3486 3170 3109 2991 2869 2789 2840 2797 2580 2416 2464 2546 2577 2688 3024 3287 3234 3098 2952 2740 2957 3416 3503 3634 3753 3788 3700 3628 3633 3633 3570 3330 3338 3349 3401 3466 3404 3281 3136 3028 2897
4057 3799 3506 3426 3336 3213 3058 2975 2953 2831 2614 2561 2665 2745 2734 2719 2880 3239 3354 3316 3166 2885 2999 3446 3630 3790 3951 3953 3844 3730 3661 3632 3453 3307 3297 3274 3299 3397 3388 3265 3112 2990
4233 4085 3884 3744 3648 3507 3345 3215 3190 3140 2936 2728 2700 2793 2837 2794 2738 2794 3151 3399 3439 3312 3064 3068 3611 3901 4043 4130 4116 4020 3890 3734 3565 3412 3305 3247 3216 3246 3375 3386 3266 3110
4387 4294 4143 4034 3957 3857 3664 3461 3353 3373 3338 3123 2892 2767 2826 2903 2872 2801 2837 3134 3432 3507 3404 3208 3179 3734 4197 4283 4280 4226 4138 3974 3737 3588 3423 3335 3233 3239 3271 3344 3364 3289
4572 4491 4390 4309 4260 4161 4033 3816 3605 3531 3581 3574 3356 3081 2910 2914 2991 3015 3008 3068 3296 3571 3624 3560 3394 3343 3708 4260 4505 4524 4440 4343 4225 4118 4004 3918 3785 3582 3405 3281 3402 3401
4818 4772 4717 4657 4578 4473 4358 4229 4045 3869 3808 3919 3812 3598 3326 3173 3205 3270 3318 3355 3393 3510 3768 3836 3801 3751 3661 3663 3940 4368 4578 4593 4534 4440 4362 4288 4200 4095 3964 3834 3672 3612
4949 5007 5054 5037 4973 4888 4746 4584 4433 4284 4250 4267 4240 4034 3797 3525 3418 3465 3579 3654 3680 3700 3711 3885 4011 4068 4047 3997 3883 3760 3871 4343 4532 4568 4539 4484 4418 4332 4247 4153 3998 3836

ECMWFNIL_con_mucape_060.txt.gz
CAPE
918 811 943 922 1090 1499 1130 951 1277 1373 1176 1469 1751 1908 2014 2086 2108 2247 2350 2373 2585 2751 2823 3074 3180 3194 3138 3014 2962 2956 2947 2741 2511 2411 1975 1820 1466 600 1 4 0 0
977 864 1003 1036 946 1270 1594 1186 1202 1567 1474 1450 1760 1925 2013 2090 2138 2202 2282 2282 2440 2672 2791 2946 3084 3131 3107 3063 2927 2782 2784 2658 2598 2464 2264 2124 1698 1316 489 0 0 0
1012 958 980 1125 1121 1081 1460 1619 1320 1441 1740 1638 1768 1991 2066 2117 2138 2134 2239 2246 2337 2521 2699 2882 2980 3069 3100 3116 3065 2764 2700 2621 2569 2426 2408 2377 1971 1664 1366 2 2 0
1052 1072 1056 1158 1229 1198 1223 1678 1687 1454 1526 1912 1843 2073 2162 2212 2143 2097 2152 2554 2293 2444 2532 2754 2896 2941 2991 3030 3053 2818 2722 2645 2567 2502 2506 2482 2309 2082 1709 1368 142 7
1110 1170 1208 1257 1331 1353 1327 1515 1821 1752 1553 1683 2027 2071 2317 2375 2294 2184 2119 2301 2379 2436 2505 2605 2786 2853 2899 2949 2961 2818 2646 2600 2564 2555 2542 2506 2403 2193 1993 1696 1193 222
1190 1214 1296 1374 1458 1494 1499 1500 1788 1963 1832 1634 1826 2194 2310 2511 2457 2352 2240 2211 2454 2525 2581 2595 2698 2758 2799 2867 2890 2796 2581 2623 2648 2641 2568 2486 2408 2236 2066 1897 1620 1168
1350 1325 1342 1406 1497 1580 1610 1587 1676 2035 2072 1875 1723 2039 2318 2518 2625 2526 2438 2320 2382 2579 2660 2694 2705 2761 2730 2752 2782 2735 2540 2624 2633 2636 2588 2457 2353 2232 2111 2028 1853 1550
1448 1470 1442 1428 1463 1547 1650 1670 1662 1862 2220 2154 1928 1883 2232 2401 2534 2677 2623 2525 2452 2495 2643 2734 2766 2787 2783 2702 2677 2615 2465 2462 2674 2641 2583 2511 2369 2262 2204 2144 2035 1788
1501 1550 1545 1514 1494 1518 1596 1652 1672 1679 1985 2374 2282 2073 2130 2359 2429 2476 2614 2642 2580 2530 2556 2661 2762 2792 2822 2776 2664 2592 2525 2450 2529 2651 2598 2521 2428 2340 2294 2265 2162 1967
1611 1582 1602 1593 1576 1572 1594 1637 1649 1622 1639 2066 2503 2449 2295 2332 2460 2487 2484 2547 2598 2602 2583 2599 2682 2775 2806 2819 2760 2648 2617 2583 2534 2565 2620 2562 2465 2387 2345 2288 2170 1996
1765 1672 1629 1615 1614 1619 1644 1661 1677 1653 1586 1622 2031 2537 2602 2469 2462 2555 2556 2520 2510 2540 2622 2636 2645 2722 2790 2806 2819 2752 2685 2671 2667 2638 2617 2607 2568 2486 2401 2304 2193 2034
1893 1816 1719 1645 1612 1618 1652 1697 1722 1711 1653 1607 1624 1996 2540 2680 2565 2509 2597 2631 2577 2526 2535 2649 2702 2738 2798 2820 2841 2868 2816 2749 2741 2751 2734 2702 2655 2610 2525 2412 2256 2109
1954 1926 1840 1750 1678 1640 1634 1687 1742 1765 1731 1663 1615 1644 1926 2475 2713 2598 2490 2601 2728 2709 2627 2583 2670 2774 2848 2883 2890 2925 2963 2927 2857 2801 2793 2786 2792 2752 2667 2558 2424 2248
2068 2007 1941 1861 1790 1724 1676 1682 1746 1794 1804 1749 1646 1604 1622 1831 2347 2671 2628 2455 2511 2692 2754 2664 2574 2615 2792 2932 2964 2962 2994 3041 3016 2949 2869 2824 2815 2841 2818 2724 2597 2438
2246 2180 2074 1979 1899 1831 1765 1712 1734 1808 1857 1862 1791 1664 1600 1633 1759 2204 2597 2640 2460 2339 2503 2662 2615 2527 2555 2779 2990 3028 3005 3030 3061 3046 2992 2916 2847 2806 2812 2826 2778 2634
2466 2351 2269 2151 2042 1964 1882 1805 1765 1796 1864 1909 1924 1864 1721 1650 1667 1792 2121 2456 2561 2456 2324 2404 2667 2754 2648 2586 2740 2963 3038 3036 3045 3049 3036 2986 2921 2832 2756 2736 2781 2765
2642 2510 2414 2319 2213 2095 2011 1926 1834 1806 1842 1887 1926 1985 1947 1807 1762 1809 1954 2146 2358 2473 2409 2287 2274 2573 2888 2877 2728 2748 2883 3007 3042 3062 3046 3028 2976 2902 2803 2695 2644 2653
2797 2695 2577 2465 2343 2239 2111 2021 1933 1834 1803 1847 1871 1913 2029 2034 1955 1899 1958 2095 2227 2360 2462 2464 2374 2288 2426 2864 3033 2951 2870 2910 3007 3058 3095 3094 3062 2997 2897 2784 2673 2588
3036 2943 2854 2738 2580 2379 2246 2110 2016 1904 1810 1787 1841 1876 1951 2095 2129 2060 1990 2010 2158 2319 2425 2545 2602 2568 2450 2449 2783 3099 3166 3092 3005 3044 3075 3105 3129 3115 3065 2975 2858 2742
3297 3241 3211 3152 3034 2828 2552 2263 2130 2016 1902 1821 1806 1824 1864 1974 2109 2142 2103 2023 2012 2144 2323 2415 2536 2676 2749 2687 2617 2773 3070 3254 3187 3103 3071 3061 3083 3126 3128 3104 3039 2955
3578 3536 3507 3476 3403 3254 3014 2682 2253 2193 2081 1976 1909 1882 1868 1946 2104 2175 2155 2105 2037 2001 2078 2265 2394 2496 2715 2851 2865 2824 2862 3053 3102 3087 3092 3084 3075 3085 3132 3153 3144 3099
3778 3745 3711 3673 3616 3518 3379 3161 2850 2434 2280 2187 2088 2023 1981 1953 2055 2236 2342 2318 2220 2077 2014 2128 2370 2503 2632 2816 2964 3014 3000 2995 3040 3044 3045 3076 3112 3128 3142 3183 3227 3234
3923 3886 3849 3806 3770 3697 3586 3414 3231 3006 2664 2318 2275 2186 2120 2086 2082 2188 2410 2552 2560 2486 2352 2254 2322 2548 2771 2871 2991 3118 3173 3165 3118 3070 3049 3064 3120 3156 3157 3164 3177 3220
4043 4005 3983 3940 3875 3818 3708 3607 3467 3279 3057 2795 2499 2347 2272 2206 2167 2164 2250 2458 2672 2761 2728 2634 2532 2492 2652 2986 3161 3231 3272 3274 3273 3221 3177 3152 3163 3184 3206 3205 3191 3083
4140 4128 4077 4032 3973 3908 3818 3741 3612 3460 3275 3094 2910 2707 2512 2323 2292 2306 2325 2352 2453 2661 2892 2958 2920 2861 2786 2765 3122 3351 3445 3463 3427 3357 3310 3313 3309 3326 3333 3373 3489 3636
4107 4141 4127 4075 4038 3973 3907 3825 3720 3587 3464 3283 3142 2975 2827 2665 2455 2387 2415 2460 2477 2509 2564 2782 3007 3120 3166 3156 3086 3311 3498 3579 3586 3558 3556 3563 3564 3588 3662 3744 3850 3919

ECMWFNIL_con_mucape_063.txt.gz
CAPE
1182 1166 1161 1141 1104 1056 1004 927 865 845 859 1133 1464 1712 1848 1897 1945 2058 2105 2086 2094 2167 2317 2492 2677 2772 2841 2891 2914 2985 3018 2918 2637 2575 2447 2158 1835 1588 1411 1291 900 0
1226 1186 1158 1131 1100 1044 988 916 880 843 806 901 1250 1494 1718 1817 1850 1963 2070 2104 2100 2173 2256 2400 2590 2713 2786 2847 2900 2966 3014 2987 2832 2706 2568 2310 2024 1723 1512 1472 1357 493
1236 1185 1132 1108 1067 1020 1003 964 928 886 853 810 1050 1333 1550 1715 1784 1828 1980 2060 2098 2162 2264 2338 2462 2627 2725 2779 2851 2910 2973 2954 2864 2830 2729 2511 2217 1952 1892 1816 1683 1141
1262 1206 1159 1121 1072 1016 1000 1040 974 960 932 902 932 1210 1429 1654 1756 1812 1881 2184 2049 2114 2237 2347 2400 2498 2611 2683 2713 2754 2818 2860 2881 2802 2734 2607 2465 2357 2240 2158 1956 1589
1265 1250 1199 1147 1095 1009 891 1126 1095 996 963 1069 1024 1148 1432 1610 1748 1800 1847 1945 2016 2060 2173 2307 2400 2443 2513 2580 2589 2606 2640 2745 2851 2827 2651 2572 2521 2466 2369 2315 2296 1963
1286 1275 1254 1195 1111 1005 892 996 1256 1156 979 1089 1238 1242 1444 1609 1743 1774 1819 1884 1990 2048 2108 2209 2321 2419 2482 2526 2558 2546 2557 2614 2726 2824 2756 2605 2546 2463 2374 2355 2408 2348
1265 1262 1261 1212 1136 1015 913 900 1076 1343 1290 1148 1276 1450 1523 1682 1774 1819 1841 1855 1953 2028 2058 2107 2174 2304 2428 2496 2531 2530 2522 2538 2592 2695 2757 2692 2570 2500 2418 2390 2426 2413
1214 1230 1237 1215 1141 1044 952 985 976 1161 1440 1440 1327 1479 1698 1784 1847 1888 1890 1879 1891 1984 2030 2058 2108 2176 2302 2427 2475 2500 2495 2483 2512 2596 2650 2665 2547 2452 2446 2448 2439 2431
1151 1150 1156 1158 1121 1063 1004 1076 1090 1105 1285 1541 1569 1478 1641 1875 1958 2007 2004 1961 1902 1914 2010 2076 2123 2153 2215 2310 2380 2420 2447 2445 2464 2524 2568 2567 2515 2403 2368 2410 2465 2461
1157 1140 1135 1140 1129 1111 1129 1166 1194 1217 1294 1499 1647 1640 1590 1730 1975 2099 2150 2118 2044 1965 1974 2076 2160 2212 2243 2292 2345 2370 2390 2419 2442 2478 2514 2522 2493 2375 2280 2294 2346 2409
1219 1201 1183 1157 1150 1160 1192 1237 1292 1315 1341 1483 1657 1761 1727 1665 1771 2012 2182 2255 2232 2143 2070 2060 2146 2252 2314 2350 2381 2403 2406 2408 2427 2441 2453 2462 2460 2398 2283 2223 2229 2237
1293 1272 1246 1226 1200 1200 1217 1253 1318 1374 1395 1459 1600 1796 1882 1819 1756 1839 2012 2168 2268 2291 2232 2172 2163 2228 2327 2388 2436 2465 2473 2457 2436 2428 2416 2400 2396 2388 2342 2278 2225 2199
1381 1358 1332 1314 1295 1282 1260 1255 1286 1349 1400 1432 1502 1676 1875 1970 1933 1866 1924 2011 2089 2191 2263 2283 2264 2254 2280 2360 2432 2480 2515 2528 2500 2464 2436 2402 2358 2350 2348 2344 2314 2260
1515 1465 1470 1472 1444 1368 1357 1332 1313 1322 1365 1399 1420 1491 1643 1920 2076 2056 2008 2012 2056 2066 2110 2160 2222 2262 2298 2319 2370 2442 2498 2529 2533 2509 2485 2455 2412 2384 2374 2375 2377 2358
1664 1632 1630 1632 1625 1569 1463 1429 1398 1381 1379 1399 1415 1424 1437 1555 1853 2115 2165 2142 2112 2112 2123 2133 2136 2154 2220 2311 2378 2428 2463 2507 2540 2553 2547 2519 2487 2467 2458 2458 2446 2438
1821 1809 1799 1790 1784 1775 1679 1504 1474 1468 1464 1467 1464 1460 1440 1426 1447 1684 2023 2187 2203 2186 2188 2212 2232 2206 2190 2242 2336 2419 2484 2518 2547 2579 2598 2586 2570 2544 2540 2536 2538 2531
2032 2008 1990 1976 1956 1913 1879 1737 1551 1521 1511 1522 1522 1534 1519 1480 1438 1427 1548 1867 2140 2212 2201 2179 2230 2311 2359 2347 2348 2410 2474 2556 2593 2617 2632 2670 2682 2676 2654 2618 2605 2604
2256 2224 2192 2178 2138 2102 2074 1994 1829 1624 1551 1529 1541 1558 1567 1553 1520 1477 1442 1486 1693 2004 2189 2213 2169 2185 2317 2444 2482 2488 2500 2526 2574 2618 2646 2689 2728 2758 2749 2716 2675 2650
2490 2445 2421 2370 2332 2302 2311 2266 2153 1980 1760 1597 1561 1566 1605 1633 1611 1573 1542 1495 1478 1563 1786 2062 2200 2205 2206 2244 2385 2506 2557 2552 2499 2530 2616 2666 2710 2746 2780 2775 2759 2740
2685 2650 2597 2543 2507 2522 2548 2518 2427 2301 2124 1912 1671 1621 1645 1682 1712 1716 1674 1629 1574 1529 1543 1645 1857 2053 2188 2234 2248 2285 2396 2497 2491 2423 2445 2563 2646 2707 2752 2784 2794 2782
2854 2806 2758 2729 2728 2749 2739 2688 2609 2518 2410 2304 2147 1940 1703 1727 1750 1796 1810 1791 1737 1678 1622 1611 1661 1767 1941 2106 2204 2242 2247 2299 2443 2461 2423 2454 2546 2630 2694 2754 2797 2812
2994 2958 2942 2939 2944 2925 2888 2841 2760 2839 2838 2820 2689 2532 2340 2095 1823 1784 1822 1859 1882 1878 1819 1756 1734 1760 1862 1978 2104 2214 2257 2255 2259 2319 2371 2420 2517 2617 2689 2744 2793 2849
3139 3128 3116 3102 3085 3047 3013 2970 3016 3151 3232 3250 3202 3063 2826 2599 2314 2046 1853 1834 1890 1941 1942 1900 1863 1850 1861 1948 2072 2199 2302 2365 2410 2406 2378 2358 2408 2542 2670 2746 2805 2861
3278 3245 3225 3213 3185 3171 3120 3149 3250 3353 3448 3478 3459 3319 3156 2958 2725 2463 2153 1884 1846 1894 1938 1978 1966 1953 1944 1938 1954 2073 2206 2317 2395 2434 2435 2430 2447 2468 2533 2636 2735 2836
3467 3436 3394 3370 3352 3258 3286 3360 3441 3524 3579 3614 3617 3553 3448 3298 3102 2877 2608 2287 1970 1834 1881 1944 1965 1976 1986 1994 1993 2000 2064 2181 2238 2273 2303 2347 2386 2438 2477 2521 2624 2743
3663 3624 3589 3534 3516 3432 3460 3541 3603 3664 3702 3726 3717 3675 3642 3550 3399 3230 3045 2838 2615 2368 2065 1958 2042 2104 2135 2155 2162 2142 2127 2136 2262 2318 2371 2440 2511 2567 2599 2654 2728 2794

ECMWFNIL_con_mucape_066.txt.gz
CAPE
901 836 865 885 960 1003 1026 1052 1074 1107 1131 1139 1373 1569 1696 1817 1859 1915 1979 1918 1963 2002 2085 2147 2330 2394 2482 2512 2582 2615 2636 2602 2657 2726 2818 2741 2496 2332 2106 1807 1536 1392
1028 908 1032 903 938 990 1012 1025 1067 1082 1102 1103 1158 1372 1544 1669 1733 1882 1902 1925 1989 2044 2028 2113 2270 2407 2507 2553 2484 2545 2572 2631 2723 2748 2832 2879 2772 2536 2391 2144 1818 1638
1081 949 954 948 942 979 998 1021 1028 1046 1056 1071 1066 1132 1356 1583 1625 1749 1874 1899 1924 1987 1999 2066 2221 2389 2450 2525 2490 2513 2563 2614 2674 2751 2808 2888 2874 2768 2608 2351 2068 1842
1188 1062 995 985 976 976 973 986 990 997 989 976 987 952 1225 1528 1610 1654 1762 2193 1919 1926 1998 2075 2192 2333 2445 2467 2455 2491 2538 2562 2599 2655 2757 2832 2888 2872 2804 2635 2346 2084
1230 1168 1108 1072 1035 989 956 953 979 989 978 960 922 869 1208 1431 1572 1581 1658 1839 1950 1916 1934 2078 2180 2277 2395 2450 2410 2453 2470 2502 2556 2597 2631 2734 2803 2839 2818 2718 2560 2385
1191 1176 1158 1107 1029 978 944 954 984 993 982 958 936 852 1009 1268 1478 1554 1615 1698 1822 1907 1927 1973 2135 2248 2320 2430 2376 2404 2400 2403 2470 2513 2564 2626 2670 2712 2783 2743 2612 2467
1171 1159 1145 1091 1036 1001 993 1002 1011 1006 984 968 921 867 937 1165 1364 1498 1577 1635 1729 1838 1878 1916 2015 2170 2300 2409 2406 2398 2358 2358 2374 2372 2442 2498 2519 2595 2681 2725 2682 2596
1182 1172 1166 1139 1100 1084 1070 1050 1020 997 984 970 936 892 976 1151 1287 1426 1524 1578 1656 1742 1844 1884 1942 2032 2163 2338 2430 2422 2396 2336 2309 2320 2367 2393 2415 2480 2531 2558 2608 2575
1201 1187 1184 1172 1144 1116 1100 1077 1048 1021 996 976 963 930 1115 1157 1256 1371 1510 1560 1594 1685 1764 1837 1906 1958 2062 2230 2334 2402 2429 2359 2315 2310 2317 2338 2346 2391 2414 2427 2473 2497
1214 1209 1190 1197 1175 1138 1120 1102 1060 1041 1023 1116 1037 986 1112 1311 1318 1391 1511 1573 1594 1657 1688 1792 1873 1939 1998 2068 2199 2312 2370 2392 2394 2329 2344 2308 2315 2328 2337 2336 2313 2306
1214 1210 1207 1193 1172 1159 1154 1110 1076 1042 1021 1022 1190 1210 1155 1258 1472 1522 1570 1617 1652 1668 1695 1735 1822 1909 1960 2036 2102 2190 2250 2316 2342 2349 2345 2366 2374 2370 2341 2306 2323 2337
1200 1210 1208 1190 1173 1172 1158 1134 1100 1054 1016 996 1102 1257 1309 1276 1361 1603 1690 1728 1744 1759 1752 1757 1788 1862 1964 2034 2118 2184 2244 2276 2311 2342 2307 2340 2351 2356 2360 2312 2335 2334
1162 1193 1180 1160 1154 1156 1147 1137 1116 1074 1042 996 1122 1170 1266 1364 1362 1444 1682 1805 1856 1883 1874 1864 1840 1844 1940 2031 2116 2235 2296 2351 2356 2359 2374 2352 2342 2284 2274 2300 2316 2338
1120 1129 1132 1122 1113 1120 1127 1122 1097 1071 1038 994 1143 1198 1242 1298 1426 1438 1496 1693 1832 1893 1982 2004 1981 1950 1956 2023 2115 2216 2339 2380 2426 2431 2433 2419 2390 2400 2311 2322 2326 2326
1084 1091 1104 1094 1092 1105 1106 1102 1077 1050 1037 1126 1198 1239 1286 1328 1423 1520 1515 1548 1651 1770 1882 1990 2056 2084 2076 2079 2118 2189 2320 2404 2428 2469 2504 2514 2499 2396 2367 2354 2354 2352
1125 1116 1111 1115 1112 1120 1113 1100 1091 1085 1079 1090 1153 1244 1302 1376 1434 1548 1633 1640 1650 1706 1772 1834 1940 2039 2028 2017 2026 2210 2253 2332 2375 2426 2489 2534 2554 2529 2479 2402 2364 2376
1292 1204 1176 1180 1190 1164 1166 1171 1174 1180 1210 1224 1190 1192 1300 1352 1412 1432 1588 1708 1776 1803 1804 1848 1900 1933 1853 1906 2013 2066 2088 2305 2342 2398 2443 2524 2538 2529 2586 2562 2543 2553
1430 1424 1388 1298 1265 1274 1270 1270 1267 1300 1354 1378 1382 1351 1263 1329 1358 1358 1405 1508 1678 1834 1914 1925 1968 1842 1850 1890 1921 1975 2032 2158 2346 2370 2436 2494 2541 2612 2638 2645 2654 2606
1574 1584 1556 1517 1394 1380 1372 1380 1406 1454 1510 1539 1560 1542 1488 1395 1398 1366 1377 1374 1419 1547 1700 1868 2009 1876 1902 1942 1982 1996 2023 2042 2078 2325 2461 2494 2569 2610 2664 2702 2686 2738
1747 1726 1709 1684 1641 1529 1526 1544 1569 1632 1669 1704 1716 1721 1725 1658 1491 1446 1430 1434 1424 1408 1447 1522 1679 1736 1836 1913 1957 1997 2046 2086 2122 2104 2300 2452 2526 2644 2685 2717 2738 2795
1947 1897 1860 1833 1759 1708 1716 1732 1759 1801 1844 1888 1902 1921 1950 1929 1800 1634 1475 1508 1404 1424 1364 1417 1426 1372 1510 1702 1861 1950 2005 2044 2106 2169 2164 2242 2427 2523 2606 2702 2710 2812
2159 2096 2046 1937 1902 1907 1914 1940 1962 1991 2042 2061 2116 2192 2255 2233 2163 2013 1832 1646 1509 1490 1473 1454 1422 1393 1383 1409 1524 1710 1856 1968 2038 2081 2096 2112 2165 2326 2429 2534 2617 2701
2372 2318 2267 2139 2122 2121 2127 2130 2141 2169 2196 2280 2376 2436 2467 2458 2414 2345 2243 2122 1973 1822 1670 1619 1522 1522 1480 1472 1468 1467 1552 1698 1816 1891 1919 1971 1992 2155 2289 2383 2482 2606
2573 2534 2481 2352 2327 2318 2252 2273 2330 2398 2472 2518 2575 2606 2616 2618 2615 2615 2594 2527 2408 2285 2138 1987 1846 1674 1600 1598 1583 1570 1568 1572 1621 1672 1728 1776 1834 1969 2162 2299 2432 2274
2656 2522 2546 2562 2601 2612 2632 2638 2678 2723 2731 2751 2804 2868 2924 2994 3052 3032 2998 2946 2876 2742 2591 2450 2306 2173 2021 1826 1713 1709 1716 1718 1712 1716 1728 1755 1812 1910 2020 2165 2291 2264
2829 2864 2884 2884 2892 2928 2923 2936 2967 3006 3048 3078 3110 3145 3186 3248 3312 3316 3322 3281 3230 3072 2940 2779 2637 2500 2337 2156 1975 1835 1822 1816 1812 1813 1812 1822 1862 1928 2086 2210 2252 2344

ECMWFNIL_con_mucape_069.txt.gz
CAPE
1885 1920 1863 1906 1927 1871 2031 2146 2092 2140 2411 2336 2534 2660 2917 3279 3333 3344 3461 3536 3585 3540 3626 3686 3602 3492 3412 3534 3612 3375 3204 3278 3310 3386 3318 3210 3265 3293 3265 3223 2904 2661
1812 1829 1822 1870 1976 2074 2240 2143 2214 2200 2516 2643 2593 2784 3152 3279 3308 3198 3403 3474 3512 3412 3578 3516 3553 3578 3545 3456 3642 3272 3083 3032 3137 3191 3087 3137 3190 3226 3260 3479 3170 2938
1821 1788 1803 1781 1791 1889 1630 1907 2123 2203 2270 2310 2544 2874 2995 2987 3052 3163 3285 3382 3373 3296 3535 3517 3459 3560 3534 3604 3809 3485 3023 3059 2960 3199 3152 3078 3017 3095 3466 3218 3264 3121
1859 1832 1696 1588 1629 1697 1685 1945 2110 2121 2013 2312 2343 2357 2561 2562 2799 3023 3184 3244 3313 3473 3477 3446 3381 3330 3530 3623 3753 3455 3126 3044 2997 3148 3135 3107 3044 3126 3296 3401 3305 3028
1915 1893 1733 1686 1649 1788 1906 1902 1704 1873 1900 1996 2053 2262 2575 2681 2854 2704 2905 3106 3229 3294 3441 3470 3517 3374 3608 3523 3365 3169 2911 2890 2915 2908 2896 3003 3209 3100 3157 3361 3532 3317
2029 1994 1949 1862 1845 1926 1879 1767 1724 1732 1803 1801 2057 2040 2155 2504 2544 2522 2683 2727 2841 2805 2808 3042 3316 3343 3428 3516 3362 3074 2936 2836 2986 2952 2925 3094 3210 3257 3149 3415 3708 3570
2111 2072 1997 1902 1914 1943 1849 1789 1824 1807 1739 1764 1995 1959 1985 2156 2393 2529 2669 2716 2592 2747 2705 2962 3341 3326 3413 3539 3395 3069 2896 2970 3020 2933 2950 3076 3318 3460 3337 3240 3328 3606
2124 2065 2053 1951 1911 1872 1871 1840 1896 1909 1847 1868 1957 2017 1979 1930 2218 2322 2594 2650 2550 2737 2965 3041 3414 3592 3368 3434 3421 3270 3140 2918 2858 2969 3067 2896 3097 3254 3397 3325 3157 3162
2173 2192 2112 2051 1911 1866 1787 1726 1821 1882 1873 1877 1710 1728 1972 1884 2057 2099 2528 2701 2650 2761 3071 3124 3338 3369 3300 3340 3443 3522 3460 3286 3155 3152 3109 3137 3186 3338 3511 3619 3268 3090
2255 2192 2020 1998 1897 1870 1812 1739 1691 1798 1892 1806 1711 1664 1871 1995 1997 2124 2538 2860 2758 2829 3040 3080 3156 3206 3216 3312 3468 3523 3579 3666 3574 3409 3390 3434 3524 3614 3629 3631 3365 3512
2190 2096 2039 1990 1889 1849 1833 1742 1675 1665 1776 1759 1722 1669 1766 1987 2116 2226 2483 2723 2510 2708 2899 2971 2994 3126 3212 3029 3143 3314 3424 3437 3587 3718 3701 3672 3629 3713 3657 3693 3708 3658
2197 2068 1952 1956 1914 1838 1809 1748 1690 1643 1684 1778 1759 1776 1798 1857 2099 2142 2232 2541 2516 2580 2791 2977 3033 3108 3212 3186 2939 3144 3313 3314 3412 3616 3542 3638 3644 3599 3678 3698 3599 3656
2166 2071 2009 1938 2002 1897 1852 1802 1708 1651 1632 1726 1783 1822 1844 1868 1911 2166 2264 2359 2589 2638 2632 2907 3048 3083 3217 3247 3205 3187 3307 3428 3221 3371 3461 3496 3552 3420 3371 3452 3522 3531
2251 2169 2040 2068 2052 2119 2035 1886 1807 1743 1768 1740 1820 1871 1840 1905 1927 2022 2271 2345 2421 2583 2687 2814 3058 3096 3162 3278 3276 3220 3243 3325 3354 3245 3262 3389 3453 3434 3327 3231 3317 3371
2325 2277 2196 2194 2171 2268 2177 2042 1955 1923 1890 1897 1915 1897 1848 1905 1976 1985 2176 2345 2356 2524 2677 2748 2870 2992 2976 3160 3188 3264 3234 3130 3286 3339 3328 3346 3439 3358 3342 3386 3332 3246
2487 2416 2369 2356 2328 2411 2388 2218 2108 2075 1991 1996 2011 2012 1993 1994 2000 2073 2098 2243 2378 2547 2722 2780 2828 2891 2813 2483 2587 3061 3251 3105 3161 3347 3384 3302 3406 3492 3341 3300 3338 3331
2554 2484 2438 2429 2424 2401 2412 2374 2287 2234 2184 2183 2131 2100 2066 2148 2144 2092 2092 2090 2214 2298 2488 2593 2671 2716 2452 2236 2116 2102 2642 3175 3245 3338 3451 3418 3350 3465 3476 3271 3247 3386
2439 2412 2376 2405 2408 2353 2386 2352 2325 2286 2338 2333 2227 2220 2304 2221 2263 2156 2220 2079 2052 2164 2252 2397 2533 2315 2165 2032 1947 1927 1944 2596 2950 3113 3097 3194 3281 3155 3252 3321 3354 3245
2403 2434 2424 2390 2388 2348 2371 2379 2389 2395 2363 2288 2175 2210 2255 2345 2290 2183 2251 2260 2191 2315 2267 2263 2403 2162 1964 1824 1789 1766 1837 1942 2524 2778 2928 3039 3161 3226 3192 3264 3419 3424
2548 2474 2448 2431 2443 2425 2448 2431 2404 2372 2327 2274 2217 2290 2341 2375 2243 2302 2345 2444 2383 2393 2483 2397 2339 2230 2003 1804 1675 1651 1679 1722 2294 2509 2751 2925 3020 3096 3186 3266 3394 3484
2589 2513 2537 2528 2552 2512 2481 2464 2429 2445 2375 2291 2192 2250 2404 2404 2332 2316 2366 2408 2412 2330 2407 2411 2254 2053 2017 1875 1724 1650 1630 1660 2043 2436 2608 2816 2935 3087 3243 3248 3294 3430
2568 2586 2631 2647 2637 2560 2512 2491 2522 2545 2548 2431 2269 2195 2253 2263 2400 2303 2338 2410 2395 2343 2211 2247 2231 1778 1752 1747 1724 1692 1674 1683 1806 2468 2693 2742 2905 3092 3198 3323 3398 3406
2477 2544 2698 2733 2700 2633 2596 2562 2624 2643 2617 2545 2432 2298 2289 2315 2380 2357 2402 2401 2390 2376 2362 2338 2350 2044 1657 1508 1460 1486 1539 1573 1884 2363 2640 2748 2841 2981 3154 3218 3327 3475
2561 2626 2773 2802 2850 2783 2716 2654 2640 2621 2630 2600 2563 2444 2312 2418 2450 2455 2468 2499 2410 2430 2390 2480 2437 2339 1890 1673 1527 1404 1345 1600 2165 2396 2570 2720 2803 2957 3092 3224 3286 2872
2733 2796 2888 2901 2968 2915 2800 2781 2772 2784 2675 2703 2632 2553 2500 2598 2521 2543 2598 2608 2524 2247 2301 2322 2446 2406 2214 2137 2012 1872 1717 1805 2202 2291 2449 2621 2649 2755 2973 3066 3170 2977
2954 3148 3126 2948 3038 3052 3038 3024 3028 2897 2918 2915 2822 2696 2714 2734 2695 2685 2689 2732 2457 2498 2532 2528 2511 2503 2490 2421 2359 2278 2187 2078 2208 2353 2386 2467 2594 2552 2763 2970 3071 3199

ECMWFNIL_con_mucape_072.txt.gz
CAPE
2136 2224 2406 2516 2740 2416 2311 2480 2517 2448 2470 1991 1964 2093 2018 2510 2802 2620 2712 2894 3104 3210 3143 3388 3431 3398 3148 3073 3288 3094 2974 3118 2891 2800 3057 3028 3195 3039 2810 2762 2722 2744
2006 2256 2278 2446 2783 2733 2594 2698 2831 2648 2821 2587 1925 1962 2596 2542 2884 3043 3010 2983 2953 3146 3144 3063 3412 3425 3321 2874 3350 3227 3137 3059 3358 3009 3265 3484 3222 3101 3233 3205 2968 2959
2112 2138 2105 2265 2409 2870 2506 2668 2966 2905 2689 2681 2316 2193 2674 3018 3037 3420 3314 3029 2716 2568 2889 3114 3098 3295 3196 3075 3324 3252 2982 3100 2952 2889 3195 3530 3100 3062 3326 3129 3198 3211
2214 2226 1960 2109 2438 2864 2800 2757 2936 2994 2482 2533 2512 2264 2074 2186 2984 3165 3654 3489 3166 3018 2724 2936 2937 2789 3131 3152 3320 3106 3008 3160 2734 2963 3041 3113 3386 3099 3082 3356 3363 2930
2252 2255 2269 2263 2569 2897 3033 2762 2705 2800 2530 2208 2426 2404 2658 2598 2980 3077 3280 3692 3651 3295 3133 3109 3264 2947 3208 3303 3204 3142 2888 2816 2737 2848 2881 3022 3324 3512 3248 3190 3544 3485
2470 2381 2466 2453 2520 2589 2715 2864 2768 2556 2687 2188 2356 2422 2577 3019 3029 2936 2943 3015 3290 3025 2428 2516 2817 2893 2926 3394 3294 3182 2734 2559 2501 2926 2689 2932 3120 3202 3254 3331 3648 3615
2503 2561 2595 2558 2558 2553 2805 2905 2809 2640 2702 2414 2493 2475 2496 2889 3210 2986 2754 3007 2772 2756 2395 2254 2692 2678 2874 3184 3439 3481 3306 3263 2848 2965 2939 2820 3093 3285 3166 3549 3913 3904
2673 2551 2633 2737 2667 2841 2787 2859 2863 2973 2797 2697 2470 2734 2746 2725 3081 3060 2952 2875 2876 2888 3008 2892 3056 3455 2906 3042 3350 3561 3520 3265 3201 3172 3024 2972 3088 3176 3407 3510 3835 4138
2904 2871 2877 2889 2927 2774 2669 2721 2917 2984 2724 2789 2503 2521 2873 2774 2786 2837 3065 3256 3138 3108 3324 3332 3396 3598 3313 2933 3222 3707 3856 3147 2996 3315 3315 3214 3175 3259 3499 3690 3793 4131
3210 3128 3084 3104 2840 2666 2690 2681 2573 2742 2788 2768 2684 2426 2629 2921 2714 2629 3044 3403 3555 3407 3428 3629 3658 3563 3505 3331 3399 3680 3791 3722 3295 3391 3614 3518 3436 3428 3467 3624 3729 4010
3258 3068 3046 3010 2807 2634 2670 2610 2455 2494 2758 2784 2740 2430 2341 2689 2886 2841 2992 3308 3530 3570 3542 3622 3712 3717 3615 3194 3176 3493 3610 3482 3562 3625 3718 3728 3582 3623 3539 3622 3767 3774
3424 3128 2990 3034 2901 2706 2580 2538 2414 2416 2635 2821 2724 2630 2329 2283 2888 2978 2837 3264 3539 3592 3598 3761 3809 3759 3818 3628 2927 3109 3508 3456 3388 3692 3683 3887 3815 3521 3667 3884 3757 3872
3438 3116 3065 2944 3090 2766 2586 2563 2474 2385 2423 2665 2778 2653 2441 2323 2512 3012 3051 3134 3544 3608 3481 3702 3893 3854 3971 3975 3516 3063 3206 3670 3290 3300 3471 3689 3782 3491 3225 3389 3751 3863
3516 3440 3042 3132 3121 3237 2978 2695 2607 2459 2502 2628 2867 2757 2448 2364 2357 2658 3111 3146 3393 3579 3508 3456 3843 3988 4063 4122 3996 3484 3126 3518 3771 3279 3115 3417 3444 3452 3219 2985 3193 3474
3643 3510 3316 3273 3281 3416 3241 2956 2874 2836 2794 2841 2972 2870 2535 2390 2400 2381 2851 3172 3228 3366 3424 3315 3428 3820 3888 4017 4011 3981 3593 3258 3519 3651 3254 2974 3152 3206 3346 3366 2855 2642
3732 3681 3572 3447 3445 3463 3500 3281 3106 3111 2980 2951 2972 2999 2905 2744 2621 2576 2620 2975 3266 3398 3430 3401 3319 3532 3628 3228 3458 3912 3919 3217 3408 3650 3691 3306 3356 3286 2955 3016 3159 3049
3827 3730 3656 3587 3571 3600 3664 3584 3345 3301 3243 3209 3212 3246 3172 3148 3000 2816 2662 2739 3070 3320 3457 3394 3445 3373 3009 2967 2884 3040 3578 3944 3634 3758 4068 4024 3692 3877 3678 3043 2945 3158
3892 3857 3787 3721 3661 3708 3848 3699 3592 3493 3477 3446 3352 3381 3421 3274 3171 3103 3110 2825 2844 3122 3263 3380 3498 3075 2936 2774 2612 2554 2795 3279 3596 3712 3658 3847 4060 3606 3698 3558 3304 3059
3953 3905 3811 3837 3898 3875 3920 3820 3690 3594 3584 3556 3373 3416 3486 3495 3455 3309 3262 3138 2907 3076 3079 3190 3381 3024 2806 2615 2475 2320 2171 2280 2699 3128 3170 3595 3817 3912 3822 3782 3796 3800
4003 3934 3970 3922 3949 3935 3954 3932 3887 3796 3711 3632 3537 3586 3584 3619 3403 3450 3413 3426 3279 3168 3173 3094 3119 2715 2667 2507 2324 2193 2096 2010 2637 2612 2826 2989 3355 3697 3845 4018 4116 4019
3980 3971 3993 4000 3991 3982 3938 3985 3889 3934 3805 3656 3472 3500 3622 3662 3628 3569 3522 3618 3516 3303 3149 3071 2887 2488 2511 2463 2284 2074 1939 1858 2606 2631 2686 2906 3168 3458 3787 3954 4185 4294
3957 3963 3971 3964 3995 3992 3927 3884 3929 3903 3908 3697 3419 3348 3433 3514 3606 3468 3522 3534 3491 3426 3068 3102 2982 2451 2423 2356 2286 2144 1952 1769 2416 2763 2872 2925 3135 3403 3589 3934 4068 4171
3653 3685 3860 3845 3883 3850 3818 3818 3864 3837 3825 3759 3561 3345 3267 3363 3498 3399 3439 3370 3421 3449 3437 3294 3262 2912 2432 2298 2202 2117 1986 2046 2509 2742 2912 3116 3249 3394 3661 3830 4020 4299
3611 3653 3765 3831 3950 3870 3817 3731 3732 3815 3811 3697 3585 3304 2971 3096 3314 3539 3516 3397 3279 3370 3298 3529 3407 3139 2696 2409 2195 2033 1939 2413 2775 2853 3033 3207 3392 3497 3660 3747 3971 3885
3585 3597 3720 3774 3835 3805 3738 3713 3744 3759 3656 3614 3518 3398 3135 3142 3141 3309 3384 3409 3288 3188 3002 3165 3438 3211 2826 2611 2326 2098 1931 2598 2833 3040 3132 3313 3422 3553 3732 3822 3946 3876
3456 3660 3735 3693 3830 3788 3824 3724 3665 3572 3632 3678 3610 3400 3301 3184 3094 3163 3331 3406 3347 3224 3173 3031 3077 3583 3035 2726 2514 2294 2104 2406 2969 3121 3259 3377 3508 3500 3803 3930 3959 4172

ECMWFNIL_con_mucape_075.txt.gz
CAPE
2303 2205 2212 2461 2753 2773 2504 2618 2463 2206 2042 1782 2142 2348 1687 1814 1864 1750 2039 2260 2743 2953 2968 3298 3517 3420 3160 3235 3414 3223 3050 2979 2726 2865 2849 2829 2953 3009 2754 2570 2510 2556
2376 2301 2362 2462 2788 3070 2956 2566 2519 2168 2304 2113 1779 1843 2026 2043 2278 2009 2230 2412 2773 2947 3140 3094 3324 3480 3281 2768 3240 3320 3414 3308 3166 2751 2828 3047 3107 3054 2899 2864 2714 2664
2323 2365 2441 2466 2566 3068 2920 2790 2600 2372 2321 2264 1869 1586 1882 1920 2542 2659 2486 2517 2667 2546 2970 3027 3096 3432 3327 2994 3034 3236 3176 3595 3402 2572 2716 3129 2962 2804 2991 2563 2621 2792
2425 2465 2388 2378 2653 2892 2968 2879 2735 2751 2275 2586 2203 1579 1541 1681 2189 2778 2902 2857 2735 2430 2450 2906 2812 2764 3139 3114 3136 3197 2913 3372 3330 3050 2891 3342 3498 3084 2774 2738 2664 2403
2475 2485 2431 2568 2612 2816 3096 2976 2707 2812 2363 2215 2351 1856 1802 1832 2170 2280 2667 2932 2846 2601 2625 2666 2799 2638 2910 3126 3279 3262 2828 3042 3141 3329 3494 3603 3668 3548 3247 2799 2886 2917
2553 2646 2748 2734 2656 2887 3136 3019 2880 2745 2642 1844 2408 1964 1857 1890 2085 2266 2481 2853 2924 2440 1832 2399 2801 2743 2775 3123 3304 3226 2768 2424 2225 3151 3402 3214 3162 2819 2905 2837 3055 3052
2546 2671 2669 2655 2766 2916 3189 3252 3065 2745 2663 2052 2251 2055 2089 2042 1989 2372 2457 2658 2275 2311 1788 2013 2614 2695 2727 2856 3315 3305 3151 2833 2371 2890 3294 3278 3222 3165 2860 2903 3152 3356
2680 2686 2795 2901 2835 2987 3149 3220 3178 2877 2863 2587 1943 2215 2131 2286 2463 2230 2260 2387 2249 2088 2113 1869 2558 2773 2383 2468 3182 3321 3261 2950 2734 2632 3353 3441 3383 3309 3386 3400 3173 3598
2899 3003 3010 2934 2734 3076 3036 2920 3072 3209 3026 2826 2211 2171 2224 2380 2770 2504 2493 2638 2446 2224 2543 2341 2701 2697 2598 2510 2842 3268 3400 2796 2532 2877 3279 3441 3320 3248 3306 3403 3447 3605
3179 3036 2836 2839 2948 2890 2852 2612 2953 3509 3140 2886 2539 2091 2391 2488 2579 2776 2884 2969 2705 2541 2817 2758 2789 3004 2962 2565 2570 3061 3418 3400 2885 2883 3169 3240 2889 2932 3059 3160 3317 3570
3019 2935 2787 2871 2778 2600 2693 2681 2762 2963 3121 3006 2720 2062 2036 2585 2635 2883 3201 3377 3050 2930 3153 3302 3140 3261 3318 2579 2485 2875 3408 3485 3308 3131 3277 3478 3280 3179 3239 3375 3400 3377
3099 2805 2784 2779 2709 2524 2571 2747 2562 2290 2778 2970 2738 2258 1946 2418 2896 2828 3058 3565 3718 3392 3356 3731 3550 3470 3424 3054 2361 2559 3057 3190 3166 3150 3112 3580 3559 3464 3370 3334 3296 3444
3296 2776 2738 2894 2954 2544 2657 2704 2345 2026 2177 2779 2750 2351 1999 2088 2778 3076 2878 3417 3808 3817 3740 3918 3911 3713 3910 3696 2916 2515 2889 3176 2699 2962 3240 3351 3608 3504 3075 3052 3207 3119
3552 3250 2635 3048 3051 3138 2819 2481 2285 2010 1989 2309 2697 2464 2134 2007 2253 2866 2952 3101 3674 3855 3829 4026 4210 3963 4150 4119 3640 2823 2520 3092 3176 2660 2831 3235 3186 3387 2682 2050 2186 2542
3932 3474 3016 3097 3329 3332 2895 2597 2523 2411 2260 2498 2897 2694 2292 1918 1888 2232 2969 3079 3353 3689 3760 3602 3960 3938 3978 4089 4165 3474 2789 2672 3348 3177 2813 2811 3038 2748 2627 2289 1667 1608
4246 4103 3551 3444 3398 3527 3582 3081 2775 2679 2321 2372 2895 2928 2748 2421 2163 1970 2452 3108 3278 3637 3720 3516 3599 4001 4008 3739 3974 3923 3242 2499 2945 3374 3164 2642 2854 2938 2286 2183 2194 1682
4398 4335 3922 3945 3860 3736 3675 3578 3508 3241 3308 3360 3296 3271 3388 3322 2583 2038 2033 2529 3162 3475 3710 3652 3285 3570 3735 3668 3684 3618 3576 3213 2665 3191 3635 3246 2564 3024 2900 1985 1834 2175
4585 4475 4281 4148 4129 4098 4162 3904 3636 3559 3618 3531 3150 3330 3721 3229 2783 2590 2722 2194 2696 3210 3485 3539 3420 3098 3384 3498 3553 3513 3584 3680 2797 2678 3138 3328 3189 2587 2797 2676 1942 1508
4806 4825 4576 4312 4400 4510 4477 4295 4029 3878 3655 3497 3274 3561 3640 3676 3602 2963 2959 2709 2344 3043 3001 3314 3415 2849 3059 3326 3411 3396 3370 3484 2788 2550 2442 3064 3260 3026 2500 2842 3014 2302
5037 4939 4711 4659 4750 4746 4775 4536 4254 4143 4014 3838 3777 3930 4034 3986 3477 3416 3308 3562 3015 2994 3598 3092 3429 2976 2890 3072 3181 3179 3153 3293 3222 2518 2559 2444 2860 3186 3024 2870 3241 3387
4936 5116 5017 4978 5021 4938 4951 4815 4606 4512 4343 4185 3963 3936 4145 4276 3962 3792 3755 3732 3312 2978 3189 2909 2800 3173 3050 2981 2962 2969 2905 2758 3167 2559 2475 2678 2826 3128 3683 3480 3534 3670
4782 4792 5006 5032 5086 5066 5044 4892 4776 4681 4599 4336 3984 3642 3933 4187 4325 3966 4024 3987 3862 3469 3036 3152 2678 2857 3090 3097 2998 2818 2733 2532 2847 2751 2765 2755 2918 3113 3390 3958 4062 4112
4737 4674 5056 4998 5096 5038 5003 4928 4884 4853 4662 4558 4176 3730 3673 3975 4283 3950 4107 4136 4035 3968 3498 3174 3077 2476 2698 2964 2962 2884 2662 2732 2970 3083 3199 3119 3163 3246 3379 3603 3933 4288
4888 4904 5014 4975 5048 5069 5004 4891 4879 4840 4675 4695 4452 3901 3218 3450 3860 4029 3990 4051 3937 4098 3828 3736 3280 4430 2575 2633 2802 2749 2652 3084 3258 3314 3382 3424 3411 3474 3571 3787 3922 4173
4833 4872 4990 4972 5066 5023 4837 4872 4926 4907 4675 4689 4318 3976 3464 3172 3307 3591 3758 3881 3932 3956 3993 3711 3523 4442 2883 2657 2515 2555 2538 3426 3422 3439 3465 3458 3490 3682 3807 3762 3897 4219
4712 4987 5066 4917 5056 4926 4934 4968 4733 4619 4642 4516 4206 3991 3596 3199 2970 3096 3379 3461 3480 3629 3645 3772 3888 3528 3082 2999 2824 2611 2467 3388 3647 3513 3484 3596 3810 3844 4090 3950 3944 4111

ECMWFNIL_con_mucape_078.txt.gz
CAPE
2365 2302 2319 2328 2215 1721 1880 2768 2615 2540 2547 2366 2785 2270 1966 2139 2278 2990 2706 3174 3601 3619 3743 4091 4074 4041 3642 3831 3744 3723 4148 3466 3299 4118 3606 3720 3752 3128 2631 2636 2393 2641
2519 2425 2596 2626 2673 2619 2687 2863 2991 2780 2968 2749 2610 3058 2721 2500 2017 3209 2743 3290 3508 3439 3820 3793 4306 4221 4102 3860 4198 4133 4030 3927 3606 2889 3981 3694 3892 3464 2741 3023 2650 3324
2463 2751 2763 2595 2508 2836 1829 2553 3155 3104 3001 2515 2668 3468 2903 2563 2187 2652 3126 3103 3067 2937 3929 3853 4112 4332 4097 4063 4314 4210 4129 4181 3867 3278 3688 3736 3797 3673 3543 2404 2764 2719
2505 2488 2212 2112 2310 2507 2469 2730 3135 3099 2482 2354 2116 2288 2511 1748 2279 2501 3204 3333 3320 3488 3458 3520 3580 3666 4001 3939 4038 4062 4183 4339 4104 4150 3826 3981 4007 3822 3390 3406 3063 2936
2460 2492 2254 2131 2237 2595 2849 2863 2477 2774 2303 2250 1940 1840 2463 2749 2836 2633 2966 3088 3537 3452 3604 3670 3789 3657 4024 4084 3988 4078 3775 3948 4016 4272 4028 3898 4344 4192 3666 3574 3675 3379
2497 2473 2490 2392 2543 2932 2980 2902 2779 2474 2324 2105 2307 1909 2021 3232 2632 2699 2731 2805 2981 2714 2605 2906 3370 3179 3506 3878 3982 3928 3634 3197 3474 4061 3905 4162 3845 3921 3552 3795 3684 3577
2544 2588 2375 2489 2374 2720 2950 3007 3050 2765 2345 2039 2507 2152 1796 2108 2593 2656 2990 2949 2611 2788 2410 2538 3193 3166 3073 3483 3809 4109 4128 3780 3653 3882 3900 3988 4210 3992 3312 3437 3883 3782
2395 2308 2464 2519 2218 2431 2833 3021 2986 2981 2862 2524 2432 2642 2073 1665 2323 2418 2961 2986 2790 2861 2550 2764 3425 3460 3022 3376 3782 3920 3866 3352 3416 4061 3868 3897 3960 3895 3848 3617 3926 4026
2518 2436 2430 2384 2043 2262 2325 2464 2838 2794 2968 2690 1954 2097 2367 1879 2032 2027 2640 3066 2878 2950 2926 2856 3352 3407 3022 3088 3502 3794 3822 3294 2928 3190 3693 3746 3826 3986 3727 3707 3822 4061
2624 2526 2215 2285 2283 2218 2241 2483 2650 2363 2877 2701 1852 1870 2117 2301 2077 2017 2845 3153 3010 3046 2928 2679 3460 3058 2926 3052 3428 3708 3702 3743 3435 3154 3120 3438 3732 3722 3666 3660 3602 3783
2420 2429 2432 2384 2116 2134 2242 2391 2764 2573 2388 2302 1942 1757 1924 2102 2470 2243 2733 3220 2904 3139 3057 2659 3171 2957 2950 2698 3029 3322 3626 3568 3504 3512 3308 3386 3552 3740 3827 3562 3587 3498
2551 2453 2279 2264 2235 2225 2344 2220 2358 2402 2272 2501 2030 1825 2000 1882 2464 2479 2622 3004 2745 2872 3186 2966 3062 3078 3153 2926 2630 2809 3297 3394 3588 3537 3143 3312 3488 3536 3526 3463 3416 3467
2521 2493 2515 2310 2537 2346 2255 2330 2271 2196 2308 2338 2240 1901 1694 1650 1793 2480 2708 2982 2910 2830 2853 3178 3178 3144 3440 3442 3025 2682 2921 3368 3252 3482 3277 3222 3311 3269 3176 3179 3264 3423
3008 2633 2450 2731 2630 2589 2715 2730 2335 2128 2796 2889 2802 2381 1645 1738 1819 2161 2763 2991 3023 2908 2810 3246 3429 3352 3653 3741 3493 2992 2945 3293 3366 3266 3159 3167 2962 3282 3286 3047 3196 3191
3352 3074 2954 3025 2912 2910 2880 2720 2455 2480 2979 3143 2948 2422 1806 1651 1990 1953 2375 2766 3235 3127 3044 3168 3511 3445 3554 3809 3634 3339 2857 2916 3196 3162 3113 3017 3104 2991 3119 3252 3120 2765
3619 3278 3121 3209 3084 3104 3061 2867 2842 2803 2644 2986 3013 2748 2332 1779 1718 2464 2339 2582 3323 3651 3503 3289 3435 3495 3326 3291 3296 3343 3066 2377 2927 3231 3036 2806 3205 3225 3070 3170 2956 2541
3782 3572 3324 3352 3351 3391 3265 3174 3105 2978 2806 2902 3186 3002 2566 2451 2037 2592 2480 2420 2737 3299 3468 3370 3504 3394 3314 3085 3165 3093 3030 2800 2699 3310 3398 3321 3079 3269 3110 2772 2539 2515
3996 3833 3470 3534 3630 3604 3427 3424 3457 3224 3053 2965 3188 3055 3026 2794 2438 2326 2592 2740 2706 3084 3177 3292 3495 3497 3383 3193 3288 3224 3010 3040 2788 2995 3372 3533 3413 2862 3130 3076 2776 2294
4223 4091 3775 3663 3826 3834 3707 3569 3573 3526 3293 3147 3170 3255 3191 3181 2730 2446 2448 2754 2901 3052 3155 3335 3309 2799 3202 3187 3231 3302 3156 2971 2764 2533 2477 3100 3292 3214 2833 2933 2970 2732
4532 4326 4074 3820 3944 4052 4013 3722 3564 3710 3501 3247 3092 3476 3509 3455 3148 2768 2604 2703 2969 3320 3222 3193 3218 2711 2958 3195 3171 3192 3242 3155 3292 2877 2590 2498 3100 3447 3126 2933 3203 3143
4905 4607 4323 4069 4093 4128 4186 3940 3673 3744 3805 3480 3099 3396 3728 3664 3314 2923 2912 2921 2796 3266 3549 3118 3014 2959 2597 3011 3171 3154 3204 3195 3322 3288 2761 2550 2848 3364 3540 3210 3142 3300
5044 4848 4690 4293 4234 4212 4285 4129 3906 3832 3912 3582 2824 2623 3161 3793 3812 3226 3166 3149 2949 2676 2600 3163 2696 3152 2777 2759 3013 3103 3100 3143 3093 3535 3448 3430 3139 3092 3579 3852 3624 3464
4943 4866 4959 4654 4376 4274 4325 4261 4028 3892 3911 3718 3158 2735 2910 3388 3557 3264 3310 2965 2773 2834 2705 2804 3605 2925 2843 2754 2753 2961 3015 2943 3079 3320 3364 3279 3250 3800 3994 4133 4227 4081
4946 5014 5059 4974 4689 4404 4417 4342 4264 3878 3702 3830 3538 3213 2851 3072 3367 3680 3416 3089 2838 2902 2615 3096 3445 2881 2706 2696 2705 2781 2827 2854 3156 3360 3260 2959 2934 3098 3484 4016 4145 4370
4918 4889 5093 4990 5047 4842 4616 4821 4403 3951 3652 3851 3491 3302 3296 3680 3651 3714 3407 3317 2992 2954 2982 3064 2893 3868 2637 2545 2612 2674 2723 2917 3305 3395 3256 3066 2949 2858 2940 3213 3637 3932
4574 4760 4944 4941 5201 5136 5030 5089 4872 4157 4136 4193 3847 3341 3098 3110 3392 3694 3741 3527 3107 3233 3524 3368 2919 3949 2640 2488 2533 2654 2767 2960 3558 3467 3268 3324 3364 3422 3370 3310 3258 3476

ECMWFNIL_con_mucape_081.txt.gz
CAPE
660 858 590 637 909 1108 879 495 681 930 1636 1367 1410 1389 1447 1664 1284 1939 2647 2671 2658 2533 3246 2504 3085 3169 2907 3105 2979 3055 4356 2498 2615 2888 2930 3119 2978 2935 2944 2572 2382 1993
786 887 898 565 785 1048 1217 718 813 574 1538 1643 1178 1366 1702 1836 1560 1497 2497 2640 2743 2619 2949 3010 2786 2888 3078 3114 3152 2871 3029 3658 3121 3164 2607 3114 3014 2977 2797 2818 2695 2404
826 893 863 669 683 812 1412 1182 1121 785 1127 1744 1603 1097 1093 1512 1666 1828 2233 2502 2594 2564 2774 3114 3095 3105 3125 3110 3121 3255 2980 3199 2744 2927 2798 2651 2757 2830 2872 3074 2698 2492
861 803 856 781 670 751 905 1635 1483 1279 1215 1579 1863 1706 1188 1294 1162 2193 1945 2972 2390 2396 2827 2835 3252 3219 3231 3301 3185 3111 3296 3215 3193 2864 3349 3133 3049 2851 2654 2554 2755 2722
960 828 800 851 753 873 744 1379 1835 1625 1537 1589 1812 1986 1752 1313 1271 1151 2073 2529 2273 2341 2723 2785 3130 3253 3267 3251 3384 3023 3248 3195 3316 3168 3211 3345 2968 2978 3048 3231 3193 3045
1155 974 919 889 894 1051 950 1058 1795 1966 1782 1747 1684 2057 2034 1556 1432 1005 2064 2373 2203 2331 2658 2740 2957 3168 3287 3162 3294 3089 3084 3282 3200 3273 3191 3316 3458 3223 3198 3048 2926 3063
1364 1272 1177 1102 1135 1225 1202 1099 1467 2093 2007 1870 1699 1683 2154 1780 1556 1180 1516 2153 2321 2375 2568 2726 2792 3024 3212 3168 3128 3068 3020 3144 3095 3177 3127 3008 3349 3302 3291 3116 2953 2764
1471 1442 1411 1302 1284 1398 1511 1356 1509 1872 2105 1910 1768 1472 1781 1937 1590 1466 1398 1910 2216 2346 2528 2615 2705 2761 3092 3058 3097 2984 2922 3092 2797 2973 2962 2820 3082 3165 3309 3314 3156 2738
1511 1475 1470 1417 1373 1462 1631 1602 1667 1823 2012 1897 1768 1569 1258 1612 1817 1725 1568 1839 1939 2197 2282 2507 2618 2642 2756 2876 2893 2960 2863 3003 2893 3155 3000 2884 2964 3018 2993 2943 3035 3112
1554 1482 1473 1440 1387 1482 1716 1794 1834 1937 2028 1917 1751 1644 1322 1217 1815 1823 1800 1857 1876 2038 2141 2168 2348 2507 2519 2549 2742 2786 2853 2899 2860 2760 3040 2841 2976 3085 3038 2950 2830 2839
1656 1458 1454 1470 1443 1472 1728 1921 2000 2070 2140 1976 1736 1724 1540 1267 1511 1744 1998 1988 1954 2004 2093 2071 2120 2364 2406 2380 2526 2710 2804 2852 2828 2692 2607 2830 2832 2863 3475 3115 2990 2861
1788 1533 1433 1448 1487 1486 1645 1872 2041 2124 2180 2164 1820 1700 1710 1482 1292 1594 1897 2139 2086 2120 2104 2059 2113 2291 2345 2289 2326 2603 2726 2810 2840 2753 2539 2391 2711 2853 3076 3097 3074 3041
1956 1672 1496 1450 1489 1490 1562 1734 1900 2049 2089 2197 2042 1724 1675 1646 1355 1364 1611 2072 2154 2162 2186 2053 2093 2227 2280 2232 2226 2379 2628 2750 2796 2774 2790 2560 2363 2659 2932 3074 3064 3018
2081 1812 1591 1464 1465 1475 1548 1669 1802 2008 2021 2034 2085 1855 1586 1596 1528 1325 1351 1870 2110 2093 2189 2102 1976 2179 2148 2116 2086 2183 2441 2649 2696 2718 2700 2722 2586 2506 2675 2877 2965 2951
2171 1924 1658 1523 1580 1556 1591 1668 1754 2079 2154 1997 2008 1914 1600 1465 1535 1469 1346 1581 2035 2063 2113 2144 1963 1934 2156 2068 2011 2038 2184 2446 2584 2648 2694 2675 2623 2551 2572 2660 2750 2744
2231 2006 1772 1668 1639 1610 1638 1757 1809 2020 2279 2147 1982 1890 1638 1423 1451 1583 1532 1527 1814 2009 2022 2158 2045 1851 2132 2158 2046 2037 2073 2192 2398 2479 2585 2666 2655 2563 2531 2627 2672 2698
2303 2062 1837 1799 1792 1698 1672 1770 1819 1890 2101 2198 2038 1877 1674 1430 1409 1487 1666 1719 1773 1869 1895 1971 2181 2138 2036 2198 2183 2102 2082 2072 2170 2347 2418 2532 2619 2631 2546 2488 2621 2720
2468 2117 1884 1881 1902 1844 1760 1818 1915 1884 1934 2118 2081 1963 1821 1530 1367 1360 1556 1776 1942 1962 1866 1833 1951 2176 2199 2217 2308 2264 2164 2133 2059 2180 2307 2336 2391 2490 2515 2443 2422 2542
2706 2274 1962 1958 1997 1985 1888 1860 2014 2005 1894 2083 2262 2174 2007 1762 1450 1454 1556 1666 1948 2178 2089 1962 1928 2053 2280 2294 2347 2399 2353 2187 2036 2012 2228 2301 2283 2245 2288 2423 2449 2448
2864 2465 2168 2106 2149 2123 2030 1939 2013 2118 1988 2013 2338 2306 2182 1976 1684 1410 1679 1703 1844 2206 2383 2312 2199 2216 2348 2406 2385 2424 2468 2349 2060 1905 1930 2239 2360 2326 2263 2288 2434 2462
2909 2623 2236 2267 2274 2283 2199 2054 1990 2084 2079 1992 2210 2372 2274 2098 1850 1537 1620 1862 1861 2052 2413 2570 2523 2485 2518 2555 2518 2463 2462 2486 2228 1981 1834 1875 2274 2502 2476 2382 2325 2391
2891 2667 2383 2404 2363 2407 2368 2231 2069 2070 2190 2115 2034 2283 2316 2167 1920 1711 1485 1780 2026 2048 2190 2492 2621 2628 2639 2699 2723 2633 2521 2436 2342 2160 2000 1915 1895 2178 2580 2594 2479 2343
3048 2706 2533 2533 2429 2496 2524 2409 2216 2120 2230 2274 2076 2115 2309 2197 2026 1836 1599 1530 1854 2219 2195 2284 2509 2693 2698 2741 2888 2982 2919 2746 2480 2261 2198 2218 2321 2162 2225 2532 2633 2513
3278 3061 2884 2723 2514 2537 2622 2590 2406 2222 2252 2439 2256 2034 2244 2302 2126 1916 1807 1669 1583 1846 2362 2302 2333 2529 2734 2746 2718 2825 2918 2847 2690 2441 2366 2322 2299 2475 2724 2924 3134 3608
3462 3270 3093 2937 2706 2590 2647 2729 2625 2392 2260 2424 2444 2141 2057 2390 2380 2205 2048 1944 1774 1673 1847 2354 2421 2399 2471 2607 2610 2531 2566 2624 2594 2491 2389 2395 2365 2268 2240 2339 2437 3145
3602 3484 3298 3142 2944 2728 2706 2775 2785 2612 2374 2352 2446 2330 2049 2129 2501 2412 2281 2198 2114 1984 1847 1793 2004 2410 2454 2380 2499 2532 2525 2483 2496 2433 2397 2426 2439 2396 2238 2057 1956 2016

ECMWFNIL_con_mucape_084.txt.gz
CAPE
0 0 8 258 2 0 23 185 216 282 596 668 624 324 254 251 1141 1686 2077 2148 2210 2304 2376 2360 2356 2410 2242 2381 2240 2196 2483 2704 2742 2595 2498 2623 2628 2650 2515 2453 2464 2312
5 4 67 188 161 47 0 64 164 398 604 736 671 403 257 282 807 1612 1993 2193 2222 2212 2336 2357 2327 2418 2110 2344 2603 2351 2449 2509 2518 2586 2464 2545 2662 2681 2593 2551 2516 2376
77 13 5 53 223 157 55 13 78 213 696 804 712 632 589 488 487 1427 1735 2126 2255 2218 2283 2461 2370 2352 2121 2177 2513 2486 2498 2373 2232 2426 2490 2481 2594 2610 2567 2514 2479 2596
167 59 45 10 116 248 194 90 20 55 314 898 850 716 624 743 733 908 1597 2416 2108 2204 2204 2481 2397 2328 2348 2395 2383 2442 2588 2548 2333 2429 2472 2506 2558 2567 2532 2540 2576 2553
327 145 114 78 17 162 332 273 92 41 58 569 933 826 726 885 1015 945 1061 1829 2052 2094 2126 2322 2392 2256 2355 2462 2467 2364 2463 2527 2552 2549 2557 2447 2298 2323 2373 2382 2445 2467
505 314 206 176 92 59 205 387 253 134 66 100 689 929 808 861 1060 1124 1126 1353 1932 2041 2091 2134 2430 2349 2357 2410 2546 2430 2476 2492 2520 2630 2509 2585 2729 2589 2397 2447 2467 2591
713 521 322 245 215 107 129 309 401 341 188 107 305 856 936 823 996 1163 1330 1340 1662 1928 2013 2106 2230 2467 2469 2436 2585 2499 2464 2555 2518 2632 2601 2471 2656 2848 2652 2481 2516 2546
832 735 557 354 296 201 175 177 460 648 477 321 292 593 1001 956 715 781 1062 1400 1586 1758 1876 2007 2140 2315 2534 2520 2569 2651 2580 2604 2663 2669 2670 2570 2565 2826 2887 2671 2582 2556
907 821 708 536 363 290 223 177 187 606 846 678 530 559 956 1131 993 763 658 826 1491 1714 1758 1872 2065 2249 2479 2600 2583 2672 2696 2664 2650 2691 2732 2610 2563 2658 2848 2907 2834 2781
1018 910 797 673 499 353 293 251 190 230 804 988 846 756 850 1187 1226 1060 882 711 1060 1580 1728 1816 1993 2162 2408 2608 2646 2673 2725 2712 2657 2648 2712 2708 2564 2535 2587 2716 2871 2910
1090 1010 910 793 653 471 370 340 325 267 473 1019 1090 996 917 1025 1315 1291 1160 982 929 1358 1665 1789 1948 2092 2254 2515 2657 2687 2692 2674 2634 2628 2687 2717 2648 2562 2801 2524 2572 2666
1193 1075 1019 928 808 669 511 451 466 444 439 836 1173 1186 1112 999 1126 1369 1362 1241 1119 1173 1528 1742 1885 2040 2147 2308 2530 2662 2695 2648 2560 2548 2589 2646 2628 2603 2604 2613 2499 2497
1409 1312 1164 1056 998 884 732 632 630 655 638 732 1112 1253 1250 1176 1061 1202 1433 1440 1355 1264 1315 1606 1789 1944 2087 2156 2271 2464 2618 2657 2587 2517 2491 2492 2594 2680 2693 2672 2670 2587
1641 1530 1401 1203 1131 1060 952 836 802 853 885 892 1090 1259 1290 1289 1212 1118 1229 1453 1491 1427 1298 1438 1623 1765 1947 2089 2140 2210 2385 2532 2555 2491 2458 2396 2361 2482 2624 2644 2596 2644
2012 1856 1682 1505 1349 1206 1119 1014 934 988 1064 1092 1194 1320 1335 1329 1312 1224 1132 1240 1467 1491 1412 1438 1538 1628 1730 1892 2026 2089 2123 2279 2410 2430 2418 2411 2345 2257 2279 2410 2525 2578
2206 2110 1990 1858 1683 1502 1316 1137 1022 1033 1176 1278 1322 1412 1433 1378 1353 1331 1231 1151 1312 1532 1550 1542 1589 1621 1750 1796 1890 1944 1974 2070 2256 2358 2391 2396 2400 2367 2292 2257 2312 2470
2328 2259 2168 2060 1909 1761 1575 1358 1149 1065 1197 1365 1461 1529 1583 1524 1410 1394 1363 1271 1190 1477 1639 1672 1705 1692 1706 1787 1886 1917 1900 1937 2076 2258 2342 2378 2350 2326 2325 2338 2354 2368
2484 2411 2343 2249 2139 2014 1835 1591 1310 1100 1187 1362 1526 1609 1674 1687 1570 1452 1421 1389 1295 1331 1591 1720 1785 1802 1784 1793 1872 1947 1938 1892 1917 2026 2194 2296 2316 2292 2248 2217 2271 2346
2689 2638 2590 2515 2421 2291 2104 1828 1490 1192 1193 1325 1522 1639 1675 1727 1702 1594 1470 1440 1379 1302 1411 1656 1777 1837 1871 1837 1837 1906 1962 1928 1827 1826 1941 2112 2226 2293 2310 2270 2213 2228
2933 2890 2833 2780 2695 2538 2299 2003 1686 1382 1245 1329 1520 1694 1724 1720 1715 1654 1541 1438 1411 1378 1306 1451 1650 1760 1869 1902 1873 1860 1906 1927 1844 1746 1760 1903 2063 2172 2238 2284 2307 2283
3110 3082 3042 2993 2900 2780 2574 2204 1829 1534 1296 1396 1508 1707 1810 1789 1749 1692 1596 1486 1427 1414 1376 1319 1470 1632 1784 1911 1949 1914 1875 1894 1868 1776 1724 1769 1908 2055 2144 2186 2232 2302
3218 3220 3196 3159 3088 2997 2845 2593 2154 1712 1455 1482 1563 1684 1844 1877 1854 1765 1666 1566 1451 1406 1446 1425 1452 1517 1645 1802 1948 1991 1953 1852 1815 1774 1746 1745 1790 1917 2068 2140 2160 2164
3334 3316 3298 3275 3240 3170 3070 2887 2581 2081 1654 1532 1624 1691 1834 1960 1973 1925 1827 1671 1497 1393 1500 1594 1632 1615 1619 1658 1775 1947 2000 1984 1884 1805 1788 1813 1803 1790 1868 2035 2160 2169
3425 3408 3372 3355 3316 3268 3187 3079 2899 2618 2046 1594 1692 1732 1808 1967 2033 2000 1927 1801 1619 1425 1482 1614 1731 1845 1822 1764 1725 1769 1858 1918 1970 1944 1907 1910 1932 1907 1854 1831 1994 2788
3462 3458 3410 3383 3364 3319 3261 3188 3064 2892 2588 1973 1732 1778 1822 1928 2092 2102 2061 1966 1837 1644 1567 1630 1726 1933 2032 2021 1929 1848 1820 1818 1826 1854 1893 1937 1976 2001 1996 1954 1889 2401
3492 3481 3461 3412 3386 3353 3311 3247 3150 2984 2763 2434 1840 1831 1871 1907 2055 2150 2155 2105 2032 1941 1782 1723 1776 1879 2086 2251 2224 2091 1974 1905 1852 1880 1928 1992 2028 2069 2082 2084 2074 2068

ECMWFNIL_con_mucape_087.txt.gz
CAPE
6 0 0 0 0 0 0 0 16 115 156 160 152 176 616 860 974 1183 1591 1930 2182 2329 2374 2362 2409 2462 2491 2524 2552 2560 2498 2422 2319 2413 2612 2783 2731 2338 2255 2395 2318 2233
6 2 43 2 0 0 0 0 0 10 97 158 160 130 112 172 104 597 1174 1732 2030 2211 2280 2323 2370 2404 2424 2418 2395 2380 2283 2248 2245 2498 2642 2707 2619 2541 2517 2525 2385 2371
14 0 0 0 0 0 0 0 0 0 14 131 189 154 120 171 74 293 906 1529 1884 2075 2170 2234 2252 2274 2345 2383 2338 2254 2097 2091 2191 2413 2617 2675 2552 2612 2664 2635 2546 2475
23 0 0 0 1 1 0 0 0 0 1 64 191 254 223 218 114 195 732 1909 1773 1955 2045 2117 2184 2223 2305 2379 2347 2251 2224 2139 2146 2292 2550 2556 2520 2518 2572 2609 2592 2564
107 6 0 0 0 15 1 0 0 5 45 81 175 250 367 265 193 145 541 1204 1721 1869 1980 2051 2158 2225 2270 2346 2360 2306 2332 2407 2373 2338 2402 2402 2403 2418 2533 2580 2602 2576
236 117 7 0 0 0 9 0 0 0 34 144 264 392 315 254 251 200 367 917 1517 1814 1964 2033 2129 2232 2261 2308 2380 2384 2252 2377 2436 2384 2335 2276 2245 2304 2473 2529 2495 2445
201 174 87 2 0 0 2 28 7 3 0 40 287 444 388 325 344 338 290 582 1238 1705 1894 1999 2071 2208 2276 2316 2363 2384 2238 2304 2441 2510 2437 2359 2347 2380 2445 2467 2415 2410
136 129 122 62 2 0 0 1 42 58 4 0 18 322 657 407 396 465 469 426 851 1466 1785 1888 1956 2088 2234 2274 2312 2322 2316 2295 2321 2404 2540 2559 2551 2542 2584 2626 2626 2597
192 163 140 93 44 9 0 0 1 51 117 49 0 2 322 701 685 662 691 701 722 1012 1504 1765 1874 1956 2113 2243 2254 2264 2282 2292 2341 2368 2369 2426 2479 2487 2462 2544 2691 2722
357 300 258 199 110 51 22 2 0 1 92 137 95 8 4 287 659 682 676 745 866 983 1201 1512 1732 1889 1995 2166 2274 2268 2266 2277 2321 2393 2437 2393 2354 2346 2308 2336 2497 2647
478 519 518 495 272 154 80 42 21 6 36 148 202 160 66 61 335 543 632 646 756 988 1223 1379 1554 1737 1904 2044 2203 2296 2317 2330 2350 2400 2469 2514 2484 2384 2491 2236 2324 2495
596 611 679 711 639 527 213 124 79 50 26 112 295 344 283 175 188 438 673 649 354 573 928 1302 1476 1591 1753 1920 2084 2238 2325 2367 2402 2442 2486 2541 2567 2538 2497 2434 2343 2368
753 761 799 842 870 831 684 505 181 115 72 55 194 408 484 464 363 387 669 775 730 566 420 800 1198 1461 1629 1784 1948 2137 2297 2381 2435 2478 2519 2554 2575 2616 2595 2598 2609 2506
963 859 898 943 994 1029 958 799 628 417 150 99 106 217 426 550 627 531 606 800 867 820 736 690 905 1223 1485 1669 1820 1998 2205 2354 2422 2462 2493 2512 2541 2566 2589 2598 2619 2622
1043 1018 980 1018 1072 1152 1188 1089 938 779 602 195 195 199 312 441 573 660 667 733 912 983 941 867 872 1086 1334 1555 1733 1873 2035 2215 2342 2423 2443 2462 2478 2482 2472 2485 2504 2544
1115 1135 1044 1102 1137 1230 1325 1331 1240 1111 961 776 558 248 270 403 513 682 729 738 822 1002 1088 1062 1011 1040 1316 1447 1623 1758 1884 2008 2163 2288 2374 2406 2412 2410 2416 2396 2369 2315
1275 1281 1174 1198 1245 1318 1408 1453 1439 1394 1289 1134 915 691 377 428 601 685 798 836 827 892 1089 1188 1202 1184 1179 1325 1499 1677 1754 1844 1945 2080 2208 2306 2336 2350 2328 2301 2257 2201
1525 1506 1461 1334 1372 1438 1515 1560 1605 1598 1544 1434 1261 1060 810 602 697 772 836 902 917 910 964 1130 1258 1296 1315 1308 1352 1507 1668 1741 1797 1869 1981 2103 2200 2237 2237 2202 2164 2122
1769 1732 1691 1633 1521 1579 1635 1681 1754 1784 1762 1691 1609 1442 1203 930 870 915 964 992 1020 1005 987 1012 1169 1299 1368 1390 1394 1374 1484 1625 1661 1716 1785 1880 1990 2068 2104 2110 2091 2066
1991 1951 1908 1864 1804 1762 1787 1840 1900 1938 1960 1935 1862 1731 1587 1332 1088 1059 1088 1094 1094 1094 1076 1052 1070 1192 1322 1390 1425 1439 1438 1483 1545 1608 1653 1713 1799 1899 1973 2022 2050 2033
2191 2145 2108 2083 2057 2027 2018 2023 2025 2130 2205 2194 2127 2028 1905 1660 1447 1108 1226 1223 1191 1170 1144 1133 1116 1126 1238 1342 1412 1463 1483 1501 1514 1548 1591 1629 1670 1741 1842 1919 1967 1994
2331 2278 2272 2262 2256 2247 2229 2223 2181 2358 2510 2526 2398 2276 2157 1971 1738 1383 1276 1328 1307 1277 1240 1213 1197 1192 1198 1261 1376 1448 1499 1537 1542 1546 1569 1602 1644 1675 1716 1787 1850 1894
2280 2328 2389 2404 2411 2400 2388 2366 2399 2549 2688 2763 2736 2562 2371 2167 1873 1560 1264 1376 1390 1364 1353 1318 1300 1282 1271 1272 1284 1401 1473 1522 1577 1595 1600 1619 1630 1644 1670 1695 1723 1761
2352 2272 2396 2606 2551 2537 2522 2531 2602 2721 2831 2902 2912 2861 2649 2340 2053 1733 1418 1397 1410 1400 1386 1380 1364 1338 1321 1311 1295 1293 1380 1453 1511 1556 1585 1602 1611 1617 1632 1657 1712 2257
2233 2379 2410 2636 2734 2686 2720 2792 2858 2914 2984 3011 3006 2968 2930 2781 2420 1923 1539 1381 1446 1439 1413 1405 1390 1370 1347 1322 1314 1305 1297 1323 1379 1402 1437 1477 1530 1570 1604 1633 1653 1836
2098 2367 2765 2996 3214 3109 3091 3064 3066 3098 3097 3118 3112 3079 3034 2980 2839 2595 2038 1550 1507 1501 1486 1467 1450 1423 1392 1374 1340 1327 1328 1322 1289 1314 1306 1343 1410 1476 1528 1566 1611 1641

ECMWFNIL_con_mucape_090.txt.gz
CAPE
889 0 0 0 0 0 0 65 263 427 442 385 638 801 891 1040 1223 1474 1761 1970 2091 2215 2286 2352 2366 2340 2379 2375 2457 2488 2504 2477 2470 2433 2390 2328 2391 2651 2749 2528 2192 2192
708 13 66 0 0 0 0 0 124 313 334 294 318 598 654 567 872 1072 1323 1578 1904 2166 2129 2223 2305 2323 2320 2361 2400 2436 2442 2425 2369 2512 2354 2292 2348 2484 2672 2515 2269 2271
90 39 18 4 0 0 0 0 4 109 230 227 197 170 167 344 296 673 924 1222 1585 1887 2009 2100 2186 2249 2263 2282 2329 2336 2312 2275 2222 2335 2584 2399 2351 2477 2548 2508 2512 2488
74 59 19 14 0 0 0 0 0 0 44 116 174 221 192 247 193 215 413 1466 1344 1637 1843 1940 2064 2127 2176 2218 2237 2252 2279 2262 2201 2114 2424 2526 2477 2447 2470 2436 2501 2533
68 48 34 25 11 1 0 0 0 0 0 17 73 196 373 313 192 134 257 700 1218 1423 1642 1865 1911 2023 2088 2138 2153 2195 2241 2253 2217 2134 2186 2350 2394 2427 2369 2314 2404 2482
124 71 68 42 24 3 0 0 0 0 0 0 1 164 246 236 213 166 226 426 978 1342 1566 1713 1845 1937 1983 2069 2093 2149 2213 2232 2264 2195 2194 2258 2313 2233 2314 2382 2324 2386
212 93 43 29 16 1 0 0 0 0 0 0 12 46 170 204 220 206 197 355 665 1246 1480 1628 1758 1910 1979 2054 2064 2115 2156 2201 2251 2258 2239 2228 2240 2274 2208 2377 2380 2315
264 150 81 26 6 0 6 5 0 0 0 3 18 62 151 207 229 238 233 257 492 889 1312 1512 1647 1801 1897 2039 2108 2094 2107 2154 2185 2230 2277 2222 2230 2280 2344 2323 2469 2439
266 235 141 52 2 0 0 0 6 4 1 0 2 50 267 264 257 260 320 283 391 699 1083 1394 1560 1690 1843 2009 2096 2133 2173 2135 2194 2183 2247 2304 2258 2298 2321 2309 2382 2479
235 231 193 131 32 0 0 0 0 4 51 3 0 0 149 455 374 332 384 394 393 567 851 1229 1466 1601 1734 1925 2063 2114 2137 2189 2218 2200 2210 2244 2315 2304 2225 2275 2348 2411
203 187 202 199 141 37 0 0 0 0 21 50 18 0 4 187 545 439 422 462 514 559 671 977 1289 1503 1634 1788 1959 2057 2088 2112 2143 2187 2244 2284 2285 2253 2393 2230 2210 2295
343 206 182 174 166 126 58 4 0 0 0 23 72 65 8 5 206 458 474 449 534 622 678 808 1035 1310 1494 1636 1817 1968 2044 2088 2117 2160 2192 2274 2289 2252 2324 2370 2253 2250
465 458 292 170 176 149 103 64 20 0 0 0 26 62 98 55 26 194 516 447 447 535 679 818 936 1115 1315 1487 1645 1809 1987 2085 2112 2158 2235 2246 2261 2278 2258 2245 2284 2249
540 492 375 291 231 227 274 473 476 499 160 1 7 28 52 84 98 70 240 459 412 405 478 664 874 1050 1187 1348 1498 1696 1881 2020 2102 2173 2189 2214 2239 2291 2277 2264 2271 2269
591 539 477 510 560 596 574 604 630 641 672 662 634 567 60 73 114 157 154 344 442 458 431 448 594 827 1074 1248 1433 1589 1742 1912 2040 2120 2160 2207 2214 2193 2195 2246 2267 2272
635 593 538 504 596 659 709 722 740 793 825 872 890 827 765 661 566 294 306 319 446 551 586 545 524 580 790 862 1052 1395 1579 1716 1889 1998 2113 2164 2223 2195 2132 2037 2100 2174
669 633 796 758 580 603 680 766 815 863 918 980 1018 1058 1039 950 852 677 572 430 456 550 664 716 698 658 374 605 755 929 1278 1568 1725 1862 2020 2161 2159 2234 2190 2148 2066 2020
762 686 864 894 862 820 669 713 784 863 930 999 1051 1144 1199 1182 1111 989 870 727 565 519 614 747 818 709 364 322 651 748 904 1367 1594 1753 1902 2012 2124 2149 2178 2162 2136 2032
852 797 769 978 979 910 752 750 806 902 972 1011 1081 1172 1249 1290 1284 1244 1154 1031 869 730 579 646 812 728 730 718 712 724 800 1035 1492 1620 1727 1849 1964 2074 2118 2142 2146 2096
978 971 970 944 961 965 956 946 978 1027 1088 1111 1131 1219 1314 1383 1441 1428 1408 1331 1194 1019 851 678 705 709 749 782 790 794 814 875 1252 1554 1632 1692 1780 1903 1929 2028 2046 2036
1083 1087 1116 1139 1183 1237 1281 1315 1304 1290 1314 1312 1289 1300 1456 1542 1608 1624 1605 1580 1497 1358 1138 958 743 677 706 783 838 872 888 916 962 1371 1495 1581 1651 1704 1775 1885 1907 1935
1222 1267 1293 1345 1388 1442 1532 1617 1686 1655 1557 1506 1461 1556 1676 1763 1861 1873 1877 1829 1781 1678 1488 1309 1035 826 688 726 814 879 924 971 1029 1129 1374 1506 1558 1528 1616 1678 1810 1828
1722 1726 1720 1740 1647 1646 1674 1682 1636 1543 1504 1566 1644 1777 1833 2032 2207 2236 2188 2083 1995 1907 1772 1570 1400 1171 923 747 780 830 880 961 1016 1061 1154 1370 1436 1479 1489 1550 1626 1673
2158 2064 2018 2027 1981 1785 1846 1772 1667 1617 1650 1637 1440 1524 1835 2102 2133 2499 2526 2436 2308 2112 2008 1840 1595 1365 1147 915 848 854 859 907 960 1011 1080 1141 1344 1426 1453 1464 1507 1864
2162 2030 2000 2053 1963 1949 1981 2040 1900 1589 1527 1599 1742 1890 1710 1880 2062 2388 2614 2699 2609 2398 2170 2009 1830 1632 1366 1093 924 936 927 933 950 995 1050 1107 1210 1345 1395 1444 1424 1615
2164 2245 2328 2302 2252 2220 2186 2159 2031 1790 1647 1605 1861 2021 2413 2611 2517 2558 2674 2765 2762 2716 2510 2220 1942 1727 1518 1256 1071 1038 1029 1014 1023 1048 1094 1120 1152 1205 1334 1377 1398 1393

ECMWFNIL_con_mucape_093.txt.gz
CAPE
1827 1692 1520 1365 1374 1310 1563 1674 1666 1967 2419 2202 2333 2559 2817 3196 3235 3287 3393 3566 3682 3598 3556 3564 3653 3863 3801 3902 4043 4047 4054 4090 3840 3895 3976 3909 3687 3138 2891 3334 3493 3303
1718 1631 1605 1371 1498 1434 1516 1485 1834 1976 2347 2498 2302 2500 2810 2895 2920 2849 3131 3336 3507 3422 3703 3681 3775 3759 3844 3587 3906 3878 4150 4131 4078 3730 4021 4160 4035 3490 3110 3291 3126 3293
1612 1550 1453 1309 1142 1037 808 984 1545 1729 1823 1841 2074 2330 2368 2326 2434 2595 2808 2979 3070 3080 3643 3655 3636 3837 3731 3708 3945 3676 3560 4177 3977 3558 3999 4123 3973 3612 3297 2798 2968 3213
1610 1498 1240 1162 1090 998 803 943 1198 1472 1426 1871 1814 1669 1826 1612 1990 2255 2478 2575 2862 3169 3371 3405 3335 3327 3641 3732 3929 3684 3523 3841 3550 3954 3961 4124 4072 3601 3343 3332 3015 3097
1479 1445 1262 1188 1113 1087 955 760 624 865 1022 1305 1468 1783 1869 1935 1944 1808 2080 2278 2678 2846 3135 3297 3419 3280 3651 3632 3774 3701 3602 3535 3790 4057 3901 4021 4235 4032 3681 3444 3430 3102
1423 1471 1418 1229 1216 1200 894 735 688 676 752 939 1269 1373 1467 1864 1816 1709 1774 1782 2014 2118 2252 2541 2979 3003 3205 3529 3630 3532 3302 3083 3198 4035 3895 3834 3526 3513 3346 3714 3657 3314
1347 1360 1274 1165 1100 1050 922 780 756 756 625 621 1036 1118 1276 1427 1673 1758 1822 1795 1613 1946 1934 2301 2909 2870 3035 3348 3608 3737 3648 3617 3488 3986 3871 3633 3830 3818 3489 3744 3886 3737
1218 1152 1158 1120 999 981 902 839 774 769 758 791 750 861 1081 1069 1361 1392 1595 1600 1519 1801 2129 2280 2842 3144 2882 2944 3333 3438 3515 3394 3558 3883 3923 3778 3863 3846 3908 3659 3978 4062
1198 1205 1116 1044 924 882 782 714 760 739 748 741 473 503 865 872 1098 1053 1526 1688 1445 1671 2200 2272 2698 2728 2638 2893 3070 3384 3434 3140 3057 3464 3599 3498 3694 3786 3563 3713 3675 3763
1299 1206 996 916 800 795 737 690 629 663 762 594 508 448 660 885 936 977 1488 1714 1509 1707 2072 2031 2397 2456 2533 2737 3097 3181 3239 3518 3537 3517 3373 3300 3316 3378 3391 3599 3392 3462
1185 1123 1049 928 791 724 705 640 590 572 632 536 500 436 546 774 1104 1218 1442 1637 1227 1482 1752 1961 2052 2327 2597 2419 2610 2863 3100 3068 3231 3567 3480 3428 3324 3449 3483 3613 3561 3336
1171 1069 1017 983 862 760 671 607 558 518 534 592 488 454 516 582 970 1111 1204 1494 1416 1368 1614 1917 2093 2272 2584 2599 2304 2576 2906 2935 3012 3290 3160 3319 3277 3204 3450 3534 3473 3558
1106 1065 1047 994 1011 852 727 637 525 460 434 508 529 473 455 439 519 919 1246 1331 1588 1516 1456 1839 2088 2083 2499 2656 2550 2576 2828 3024 2613 2892 2973 3106 3123 2905 2861 3081 3237 3220
1181 1045 999 1044 1054 1125 985 761 594 468 443 403 511 534 447 388 368 501 978 1098 1299 1422 1540 1804 2168 2115 2420 2628 2613 2522 2622 2816 2789 2621 2547 2774 2848 2912 2853 2642 2854 2988
1312 1144 1103 1095 1104 1264 1160 967 822 672 528 450 478 500 426 401 378 334 523 800 952 1262 1365 1494 1610 1830 1931 2214 2414 2544 2503 2259 2438 2599 2560 2609 2838 2665 2724 2989 2794 2629
1542 1410 1320 1254 1230 1279 1339 1146 989 929 700 601 508 441 405 450 461 474 417 561 803 1142 1264 1250 1330 1471 1708 1183 1455 2093 2383 1916 2055 2534 2531 2460 2799 2861 2579 2786 2789 2552
1542 1498 1473 1528 1565 1487 1478 1331 1188 1073 1015 937 686 476 480 491 484 516 493 434 450 614 858 901 998 984 857 709 728 793 1444 2108 2164 2557 2858 2831 2619 2993 2900 2441 2643 2837
1440 1504 1531 1612 1658 1564 1539 1540 1422 1318 1331 1260 1043 716 973 672 711 711 714 737 747 709 641 644 824 625 29 0 0 0 366 1378 1691 1918 1992 2444 2558 2300 2585 2589 2491 2536
1588 1664 1707 1659 1761 1731 1761 1760 1680 1579 1472 1315 904 777 785 832 864 905 941 986 1005 971 957 896 852 737 616 39 0 0 0 293 1036 1521 1658 1872 2220 2436 2309 2590 2778 2722
1748 1695 1709 1747 1882 1922 1910 1857 1777 1753 1608 1417 1288 1345 1329 1182 928 957 1034 1076 1131 1175 1191 1173 1170 1114 1005 854 455 0 0 94 899 1092 1521 1692 1859 2186 2249 2447 2867 2969
1808 1796 1878 1985 2050 2086 2046 1961 1938 1905 1810 1619 1440 1435 1523 1466 1029 1011 1095 1158 1218 1282 1351 1389 1374 1374 1315 1202 1049 828 121 5 652 991 1176 1589 1832 2099 2448 2401 2618 2975
1718 1813 1939 2024 2047 2085 2101 2073 2089 2140 2102 1876 1617 1438 1315 1279 1482 1139 1192 1234 1305 1395 1471 1534 1590 1613 1584 1518 1384 1195 890 480 556 1180 1397 1470 1860 2211 2399 2704 2650 2784
1801 1775 1994 2053 2111 2117 2108 2110 2146 2194 2160 2074 1850 1436 1267 1276 1508 1288 1276 1334 1352 1438 1527 1632 1731 1784 1768 1745 1679 1542 1263 961 690 1094 1493 1594 1713 2168 2417 2594 2722 2836
2172 2081 2187 2285 2321 2250 2214 2133 2187 2207 2164 2290 2060 1752 1281 1619 1633 1637 1396 1406 1435 1506 1588 1702 1783 1899 1975 1984 1913 1809 1596 1361 1072 1177 1466 1716 1774 2002 2369 2620 2731 2492
2443 2799 2426 2278 2328 2280 2116 2151 2281 2373 2377 2560 2205 2015 1861 1868 1804 1815 1805 1750 1554 1561 1676 1787 1880 1966 2057 2135 2076 2005 1862 1672 1427 1332 1472 1662 1767 1970 2328 2514 2750 2479
2242 2442 2942 2774 2454 2490 2458 2457 2605 2430 2502 2458 2213 2186 2130 2121 2028 2006 1946 1957 1860 1537 1723 1858 1976 2084 2190 2261 2267 2169 2049 1890 1694 1417 1524 1627 1814 1836 2138 2478 2527 2720

ECMWFNIL_con_mucape_096.txt.gz
CAPE
2316 2415 2502 2538 2360 1848 1800 1991 1899 1835 2099 1396 1037 1203 1265 1816 1852 2190 2352 2388 2598 2778 3220 3595 3745 4016 3953 4192 4873 4085 4014 4302 3728 3847 3877 3809 3655 2792 2426 2049 2221 2234
2369 2363 2386 2376 2415 2309 2144 2183 2327 1946 2157 2268 1425 1024 1438 1658 2167 2238 2305 2358 2679 2536 2726 3025 3217 3488 3826 3710 4306 3987 4346 4169 4101 3528 3925 4002 3881 3203 2498 2399 2192 2178
2500 2376 2370 2240 2090 2286 1846 1967 2197 2187 1919 1876 1705 1843 1712 1846 2025 2645 2498 2401 1993 1896 2640 2828 2737 3114 3282 3506 3823 4092 4067 4517 4088 3503 3835 4030 3873 3874 2924 2298 2172 2176
2731 2380 2024 1834 1635 1855 2024 1768 1982 2166 1873 1694 1801 1612 1680 769 1566 2444 2921 3112 2378 2206 2241 2583 2448 2480 2861 3047 3496 3606 3632 4094 3889 3929 4233 4176 3944 3784 3220 2981 2390 2010
2849 2553 1988 1818 1518 1565 1946 1811 1609 1752 1757 1428 1596 1748 1918 1958 2276 2028 2471 3094 3016 2498 2443 2639 2797 2535 2733 2954 3224 3348 2966 3273 3454 3817 3938 3958 4224 3792 3414 3242 3010 2554
2887 2782 2478 2014 1731 1685 1824 1887 1785 1411 1529 1227 1521 1516 1707 2468 2206 1558 1824 2099 2057 1840 1306 1752 2078 2015 2079 2626 2973 2891 2669 2379 2535 3201 3451 3168 3180 3354 3336 3427 3554 2976
2845 2813 2523 2209 1806 1681 1964 1883 1763 1496 1221 1144 1282 1479 1472 1736 2022 1693 1648 1764 1298 1318 1098 1169 1831 1576 1724 2072 2570 2841 2734 2625 2466 2964 3416 2974 2847 3024 3230 3459 3622 3485
2690 2636 2628 2392 1926 1748 1972 1817 1637 1594 1432 1473 1164 1549 1527 1384 1639 1504 1693 1683 1325 1354 1545 1466 2274 2576 1786 1747 2310 2601 2638 2180 2514 2898 3245 3118 2832 2962 3006 2885 3185 3594
2615 2663 2656 2406 2104 1786 1768 1469 1443 1448 1444 1510 1165 1003 1575 1384 1184 1147 1414 1861 1577 1382 1990 1970 2283 2776 2098 1754 2028 2610 2677 1882 1554 2274 2818 2790 2880 3059 2816 2860 2838 3133
2698 2530 2406 2339 2067 1820 1603 1451 1090 1218 1471 1404 1198 750 963 1436 1112 972 1336 2161 2164 1875 2196 2301 2319 2318 2047 1820 2259 2469 2612 2715 2245 2241 2257 2300 2324 2238 2416 2325 2358 2615
2503 2360 2272 2227 1995 1713 1561 1434 1206 1015 1198 1309 1161 815 556 883 1403 1226 1301 2124 2027 1957 2073 2389 2057 2234 2193 1501 1513 1860 2068 1930 2095 2377 2461 2343 2037 2006 2098 2255 2355 2188
2475 2330 2116 2094 2026 1748 1560 1442 1326 1105 1040 1333 1230 898 646 542 1039 1303 1142 1792 2113 1585 1735 2240 2279 2136 2385 2158 1140 1148 1604 1713 1559 1977 2091 2208 2127 1762 1803 1976 2040 2478
2347 2298 2164 2011 2116 1899 1602 1437 1311 1144 1059 1174 1343 1045 673 376 412 1120 1301 1432 1963 1783 1236 1800 2305 2059 2315 2672 1944 1087 1145 1777 1557 1336 1730 1889 1912 1474 1197 1352 1758 1838
2396 2307 2194 2142 2124 2238 1974 1629 1459 1324 1345 1263 1437 1391 941 474 251 377 1104 1330 1476 1628 1488 1357 2107 2366 2484 2657 2472 1666 1043 1227 1795 1441 1013 1335 1636 1552 1210 858 869 1260
2445 2356 2267 2250 2246 2354 2250 1937 1716 1667 1605 1559 1560 1518 1302 1035 728 387 521 1036 1196 1342 1366 1183 1145 1842 2063 2309 2335 2310 1574 893 1296 1641 1539 1050 1065 1156 1248 1320 976 633
2502 2536 2432 2394 2360 2456 2598 2327 2001 1901 1673 1648 1618 1637 1628 1510 1326 1114 844 866 1227 1535 1596 1398 1073 982 1594 1508 1639 1824 2010 1019 890 1510 1827 1575 1438 1514 1041 798 935 1120
2526 2636 2515 2535 2602 2614 2711 2703 2378 2143 2020 1952 1842 1774 1783 1768 1656 1432 1204 1006 994 1287 1599 1582 1444 1147 1028 1266 1266 1250 1330 1820 1721 1582 2103 2457 1869 1713 1818 1103 831 991
2547 2815 2653 2621 2706 2705 2778 2897 2671 2397 2328 2229 2009 1819 1930 1727 1681 1642 1612 1302 1064 1066 1192 1412 1566 1280 956 1018 1008 915 1038 1128 1304 1765 1840 2040 2279 1801 1515 1604 1438 1075
2668 2691 2776 2683 2760 2761 2762 2881 2855 2608 2480 2349 2081 2061 1874 2017 1894 1728 1691 1613 1356 1290 1155 1186 1276 1026 950 806 808 737 683 667 671 880 1333 1672 1852 2160 2113 1829 1808 1969
2685 2640 2661 2784 2805 2804 2716 2682 2677 2710 2485 2308 2166 2173 2143 2095 1954 1888 1787 1956 1755 1547 1498 1346 1248 942 877 807 676 666 452 553 931 704 835 1116 1517 1870 2114 2321 2345 2246
2425 2581 2532 2574 2708 2721 2646 2584 2617 2670 2613 2309 2031 2031 2148 2228 2104 2006 1966 1987 1886 1734 1686 1506 1318 1039 842 864 873 905 903 854 939 858 874 953 1145 1635 2122 2311 2583 2654
1991 2196 2526 2527 2621 2722 2716 2613 2534 2656 2687 2456 2147 1856 1842 1924 2172 2023 1977 1961 1882 1852 1749 1717 1598 1011 968 1018 1065 1083 1100 1097 1034 1100 1154 1075 1217 1477 1900 2338 2572 2660
1816 1925 2211 2459 2565 2605 2682 2661 2682 2561 2641 2536 2322 1997 1661 1748 1991 2124 2225 1986 1898 1978 1898 1905 1843 1579 1150 1101 1171 1224 1243 1272 1265 1196 1282 1370 1367 1543 1873 2296 2627 2924
2061 2210 1832 2222 2486 2598 2622 2605 2631 2617 2537 2578 2444 2171 1872 1607 1702 2042 2238 2273 2096 1977 1943 2112 2012 1817 1423 1241 1207 1273 1349 1391 1428 1384 1366 1708 1695 1755 1837 2063 2523 2589
1783 1996 2213 1801 2335 2371 2392 2488 2476 2502 2448 2572 2522 2393 2138 2014 1768 1830 1990 2204 2233 2133 1710 1872 2151 2046 1604 1402 1285 1350 1424 1499 1530 1569 1540 1888 1977 2086 2065 2087 2236 2583
1377 1725 1847 2084 2214 1688 2310 2373 2313 2346 2442 2500 2555 2411 2427 2341 2058 1907 1907 2043 2158 2209 2193 2012 2076 2270 2120 1674 1474 1450 1505 1578 1649 1677 1891 2023 2246 2234 2486 2444 2317 2510

ECMWFNIL_con_mucape_099.txt.gz
CAPE
2077 2168 2476 2133 1720 1146 1228 1460 1718 1979 2109 1802 1861 1719 1602 1939 1947 1905 1923 2247 2737 3143 3478 3958 3667 4260 4061 5091 4262 3661 4683 3953 4006 3801 3232 3489 3241 2724 2179 2064 1987 2011
2016 2083 2168 1967 1938 1543 1234 1325 1582 1484 1947 1806 1319 1143 1390 1682 1784 2043 2168 2200 2551 2601 2900 3134 3569 3955 4143 3727 4527 3583 4619 4317 3900 3475 3720 4087 3521 3593 2742 2224 1788 1883
2149 2057 2169 1945 1550 1829 1056 1249 1535 1582 1341 1512 1242 1012 1063 1411 1750 1963 2187 2233 2120 1952 2410 2740 2819 3157 3426 3769 4864 3693 4198 4760 3781 3352 3861 3741 3734 3692 3713 2027 1504 1906
2391 1995 1878 1816 1254 1281 1322 1106 1409 1636 934 1150 1273 934 854 925 1324 1772 2141 2148 1957 1876 2001 2193 2159 2307 2726 3054 3910 3998 4138 4824 4290 3882 4379 4652 3738 3482 3520 2749 1953 1345
2630 2013 1605 1659 1293 1180 1394 1054 928 1334 1100 750 1071 994 946 918 1002 1387 1760 1900 2060 2003 1889 2120 2217 2128 2359 2718 3093 3494 3506 3839 3860 4016 4229 5084 4364 3549 3404 2997 2889 2239
2992 2472 2035 1658 1421 1312 1127 1212 1135 694 1025 666 819 634 983 1126 912 1012 1436 1546 1569 1487 1072 1638 1996 2006 2020 2451 2744 2938 2765 2521 2783 3315 3612 3631 3409 3254 2979 3010 3252 2824
3212 3104 2301 1705 1628 1293 1316 1268 1348 1161 803 754 823 718 595 1166 1362 1159 1119 1154 903 918 726 1012 1601 1564 1729 1908 2522 2941 2829 2503 2374 3098 3273 3146 3070 2948 3131 3279 3718 3377
2752 2974 2692 2027 1554 1376 1390 1212 1488 1498 1112 780 448 856 724 792 1535 1540 1128 1034 850 753 848 702 1413 1548 1474 1582 2137 2500 2733 2010 2207 2440 2815 3143 2998 2821 2708 2828 3526 3543
2432 2699 2835 2337 1735 1218 1192 982 1202 1570 1409 964 519 563 911 876 951 1238 1255 1274 1152 967 1143 1002 1458 1566 1551 1374 1622 1996 2324 1671 1133 1674 2047 2344 2500 2711 2651 2660 2599 2882
2593 2133 2118 2174 1472 1170 909 807 463 1014 1383 1091 758 365 496 955 823 881 1048 1570 1388 1176 1298 1416 1433 1799 1850 1255 1313 1592 1946 2238 1914 1579 1778 2008 1991 1986 2066 2095 2173 2418
2555 2103 1713 1790 1384 999 822 671 359 197 616 821 691 429 171 597 924 866 1074 1359 1374 1378 1337 1555 1471 1741 2015 1349 952 1189 1755 1761 1746 1754 1726 1765 1812 1889 1851 1873 2044 2072
2581 2474 1702 1420 1479 982 677 645 374 179 138 528 615 475 277 139 654 730 592 1023 1470 1568 1384 1617 1842 1758 2014 1680 871 830 1094 1335 1290 1372 1377 1564 1572 1298 1422 1631 1600 1868
2093 2157 1826 1431 1457 1357 1006 744 573 360 154 202 469 462 294 118 148 683 592 619 1286 1603 1433 1556 1878 1779 2128 2016 1481 790 712 1156 908 907 1080 1257 1510 1334 1122 1054 1097 1169
2509 2418 2041 1603 1534 1993 1599 858 504 439 413 229 369 482 323 155 41 128 608 621 822 1343 1416 1219 1689 1744 1768 1962 1925 1119 503 590 860 876 650 809 770 843 861 650 598 762
2686 2421 2577 2123 2123 2146 1987 1376 946 891 806 689 503 439 423 294 100 2 144 560 723 1024 1261 889 787 1407 1405 1621 1789 1687 715 204 304 717 789 668 674 639 709 748 544 351
2570 2342 2404 2436 2377 2553 2871 2513 1746 1153 689 703 608 524 712 890 547 146 4 175 617 976 1126 977 504 602 1369 1073 1294 1420 1221 243 53 409 681 636 761 534 324 294 428 476
2259 2546 2795 2957 3094 2646 2820 3068 2876 2299 1992 1839 1438 1068 1326 1706 1297 506 147 16 168 610 947 906 636 255 502 1013 1126 1227 1104 1075 493 491 836 799 575 1089 963 303 95 135
2206 2476 2795 2646 2592 2958 2986 3217 3175 2942 2659 2342 1581 1317 2202 1333 1174 1347 1225 536 242 270 536 772 759 405 2 362 1025 1154 1313 1490 820 619 278 445 853 694 715 753 446 106
1604 2269 3027 2999 2516 2781 2935 3086 3306 3282 2856 2437 2034 2031 1778 2382 2440 1872 1982 1699 924 806 470 466 585 626 589 37 463 917 979 996 497 417 391 376 499 990 991 969 1017 795
1853 1294 2086 2953 3045 2751 2405 3010 3258 3356 3042 2538 2315 2310 2337 2256 2170 2345 2242 2511 2096 1639 1420 750 762 708 826 837 722 640 744 830 933 440 288 324 583 777 1137 1385 1697 1477
2231 1557 1273 1766 2919 2656 2590 3133 3000 3329 3240 2868 2350 2304 2443 2545 2411 2384 2403 2391 2234 2084 1914 1390 994 631 756 967 983 897 756 615 1189 980 761 579 520 768 1677 1438 1844 1895
1274 1720 2190 1806 2750 2768 2730 2523 3117 3251 3354 3308 2562 1924 2033 2269 2666 2452 2386 2364 2295 2213 2014 1880 1407 849 794 828 962 971 906 786 1237 1547 1406 1142 982 1101 1153 1696 1896 2189
852 1010 1407 1848 1812 1320 1632 1547 2109 2852 2895 3050 2777 2172 1743 1758 2346 2478 2630 2443 2406 2436 2343 2205 1918 1650 1039 884 860 840 872 815 1410 1522 1640 1566 1460 1476 1458 1492 1608 2122
627 790 1004 1077 1383 1502 1424 1635 1732 1537 1703 2303 2236 2103 1560 1441 1106 2028 2229 2478 2520 2379 2151 2412 2289 2071 1521 1252 1009 834 809 1208 1670 1625 1620 1762 1784 1817 1759 1714 1814 1948
677 668 772 845 936 1276 1426 1412 1412 1372 1784 1869 1956 1917 2096 1926 1936 1977 1842 2002 2199 2104 2001 2061 2252 2114 1785 1584 1362 1146 965 1429 1807 1641 1619 1780 1870 1988 2006 1928 1947 2172
618 706 710 726 719 954 1326 1312 1371 1445 1686 1946 1702 2030 1999 1930 1793 1853 2296 2195 1858 1737 1912 1945 2068 2437 2088 1748 1626 1442 1223 1401 1926 1907 1714 1840 2035 2089 2308 2291 2193 2186

ECMWFNIL_con_mucape_102.txt.gz
CAPE
2724 2886 2721 2628 2567 2521 2786 2628 2341 2433 3133 2701 2796 2924 2982 2995 2681 2689 2860 3408 3556 3568 4052 4201 4186 4718 4318 3903 4176 4731 4618 4194 4095 4152 3611 3375 3248 2557 2269 2395 2455 2489
2646 2695 2949 2482 2949 3077 3071 2557 2717 2846 3259 3420 2801 3010 2803 2998 2553 2681 2756 3120 3378 3300 4033 3809 3954 4182 4156 4162 4332 3831 4800 4711 4362 3091 3578 3498 3802 3080 2511 2618 2047 2550
2560 2685 2462 2371 1877 1987 1303 1659 2400 2333 2382 2039 2091 2576 2309 2320 2232 2784 3019 2826 2756 2658 3698 3811 4014 4145 3948 4208 4670 4052 4091 4524 3918 3191 4036 3904 3806 3572 3780 2161 2079 1910
2659 2342 2047 1894 1678 1536 1337 1533 2262 2204 1876 2393 1925 1086 1225 1278 2014 2402 3000 2723 3067 3002 2807 3021 3250 3192 3616 3899 4563 4268 4086 4615 4179 4104 4231 4267 4233 3704 3480 3284 2626 1999
2294 2210 2089 1942 1520 1739 1515 1339 1133 1586 1434 1822 1477 1728 1738 2508 2051 2202 2549 2805 3207 2600 3140 3017 3173 3067 3590 3734 4100 4303 3965 4285 4274 4377 4369 4930 4951 4012 3095 3339 3176 2752
2661 2414 2319 2050 2007 2002 1501 1140 1117 1274 1302 1130 1416 1327 1190 2189 1748 1721 1910 2054 2018 1829 1800 2081 2432 2307 2779 3469 3771 3890 3530 3354 3560 4312 4228 4328 4090 3741 2835 3421 3382 3109
2344 2461 1772 1800 1572 1557 1535 1358 1180 1372 1082 771 1278 1202 1101 922 1427 1486 1902 2043 1827 1961 1549 1942 2704 2516 2431 3161 3440 3923 3900 3776 3408 4342 4124 4019 4217 3861 2992 3112 3777 3568
2508 1971 1858 1682 1318 1152 1281 1366 1265 1274 1441 1208 921 1285 1175 693 1075 937 1731 1777 1635 1763 1625 1981 2765 2934 2052 2426 3154 3444 3361 2579 2950 3685 4212 3914 3836 3882 3505 3272 4016 4030
2571 2568 2190 1580 1069 960 698 732 1082 1151 1213 1219 654 582 986 1130 1146 837 1477 1849 1457 1708 1746 1811 2655 2260 2047 2196 2579 3186 3155 2634 2163 2714 3082 3311 3534 3707 3431 3288 3333 3867
2776 2870 2170 1550 1217 820 696 631 634 983 1263 1100 719 593 648 937 1298 1073 1699 2103 1802 1963 2132 1335 2593 1978 1734 1801 2820 2919 2978 3116 3059 2854 2544 2662 2939 3115 2954 3048 3027 3239
1323 1810 2049 2064 1340 862 648 569 413 651 1127 886 808 464 463 572 1034 1627 1871 2070 1533 1735 2274 1794 1830 2023 2008 1552 1692 2028 2577 2425 2340 2628 2844 2716 2365 2563 2870 2913 2824 2699
1670 1457 993 1709 1725 942 729 590 416 279 641 1076 974 636 430 559 841 933 1529 2002 1514 1437 1695 2061 1874 2000 2321 2135 1559 1467 1875 2017 2386 2490 2134 2322 2495 2518 2577 2512 2370 2552
2232 1942 836 874 1268 1119 860 619 474 240 183 540 965 758 422 242 533 794 897 1765 1722 1538 1401 1824 2067 1943 2402 2658 2343 1611 1397 1727 1708 2159 2008 1947 1852 1640 1660 1825 1943 1975
2322 1681 1138 1072 1306 1350 1319 536 377 273 209 235 707 652 394 231 168 558 924 964 1594 1495 1526 1676 2133 2000 2218 2694 2550 2106 1513 1780 1553 1406 1460 1593 1293 1496 1352 1064 1200 1288
1825 2129 2106 1656 1483 1554 1914 1450 994 755 705 506 705 448 284 240 169 96 614 658 882 1322 1506 1502 1629 1948 1879 2361 2547 2362 1794 1140 1482 1417 1278 1292 1418 1114 1202 1400 1136 854
2101 2406 2442 1797 1394 1582 2658 3248 2084 1944 601 855 668 779 565 519 354 254 158 665 710 1103 1479 1484 1402 1390 1615 1457 1768 2156 2007 1096 766 1123 1154 1004 1342 1387 998 968 747 608
2673 2449 1774 1816 2112 2214 2285 2893 3495 3078 2222 2208 1556 1217 1007 1398 869 501 165 64 548 665 1064 990 1003 834 1037 1256 1229 1305 1715 1702 984 820 988 1202 1208 1467 1472 969 662 756
2036 2394 2689 2916 3134 3336 3702 3470 3725 3138 2796 3361 2445 1496 2370 2148 1467 1004 814 288 64 260 516 574 802 764 560 827 1096 1034 1234 1649 1255 753 522 738 828 740 892 995 824 492
2227 2402 2645 2364 2358 2747 2376 2226 2223 2021 2141 1542 1693 1634 1770 2078 1929 1840 1570 1332 629 440 180 436 775 614 564 33 518 905 1008 1054 1000 864 488 182 260 628 563 613 838 849
1565 1770 1682 1986 1974 1780 1796 1683 1926 1909 1432 1513 1782 1273 1385 2049 1855 1952 2106 2116 1694 1391 1467 903 375 453 480 187 0 279 799 853 1067 792 770 593 385 349 408 649 888 981
937 1323 1566 1564 1741 1788 1741 1754 1602 1606 1674 1814 1668 1382 1327 1225 1490 1929 1946 2364 2278 1913 1814 1671 764 244 0 0 0 0 0 711 1034 1067 650 534 563 714 1156 1097 1174 1368
624 850 1036 1273 1420 1414 1372 1484 1686 1712 1660 1825 1445 1429 1511 1281 1286 1267 1795 2337 2311 2076 1708 1881 1312 659 0 0 0 0 0 326 793 1344 1163 766 580 808 811 982 1310 1867
579 581 567 1035 1477 1276 1151 1538 1800 1537 1611 1773 1682 1664 1520 1351 1432 1881 2109 2250 1914 2112 2530 2376 2365 1965 1356 888 218 0 632 654 853 1224 1452 1317 1183 1379 1702 1666 1386 1314
491 561 535 599 1253 986 1247 1159 1284 2056 2244 2212 2222 2154 1887 1861 1665 1519 1598 2003 1917 1840 1639 1936 2292 2504 2194 1677 1289 1012 816 758 843 1207 1390 1623 1664 1835 1954 2110 2239 2148
25 212 306 455 867 1223 1269 1218 1151 1623 1986 2497 2611 2440 2107 1796 1650 1802 1970 1948 1894 1943 2225 2392 2437 1785 1808 2043 1948 1606 1262 1043 1263 1493 1688 1784 1874 2078 2216 2164 2297 2417
0 195 217 289 677 999 1309 1348 1301 1402 1655 1977 2179 2528 2209 1955 1969 2112 2041 1980 1868 1842 1778 1731 2129 2145 2001 1523 2008 2043 1779 1525 1823 1946 1859 1912 2054 2118 2231 2509 2487 2407

ECMWFNIL_con_mucape_105.txt.gz
CAPE
1927 2807 2224 2578 2398 2564 2600 2601 3194 2930 2935 3066 3152 3033 2651 2590 2458 2380 2796 3272 3010 3141 3094 3543 4459 4467 4202 4091 4307 3855 4428 4061 3586 3284 3361 3212 2812 2692 2652 2313 2192 2045
2070 2684 2646 2438 2532 2852 2574 2534 2753 2735 2837 2653 3008 2809 3091 2512 2950 2711 2624 2974 3270 3389 3697 3910 3938 4300 4285 3986 3996 3991 4053 4354 2831 4006 3052 3598 2777 2609 2420 2629 2094 1952
2196 2527 2578 2193 2345 2429 2699 2476 2436 2605 2708 2989 2572 2549 2696 2762 2957 2503 2781 3109 2861 3422 3641 3867 3738 3789 3822 4035 3800 3812 4048 4253 3483 3498 3272 3320 3206 3129 3590 3322 2545 1791
2200 2308 2451 2157 2213 2102 2388 2184 2316 2399 2571 2554 2589 2520 2135 1998 1861 2525 2700 3710 2708 2911 3534 3603 3556 3783 3758 3984 3942 3680 3718 3976 4043 3374 3586 3832 3677 3574 3361 3111 3157 2735
2170 2172 2217 2235 2009 1998 1830 1927 2097 2069 2172 2025 1880 2091 1638 1513 1518 2261 2941 2830 2490 2686 3119 3384 3372 3399 3540 3737 4134 4024 3783 3773 3968 3987 4015 3935 3910 3661 3420 3234 2985 2800
2166 2141 2068 2096 1976 1785 1668 1384 1494 1776 1554 1814 1948 1614 1367 1699 1644 1776 2575 2384 2872 2666 2692 2793 3024 3176 3168 3343 3928 3875 3791 3867 3766 4043 3880 4139 4335 4088 3363 2914 3080 2891
2067 2118 2059 1972 1912 1718 1510 1249 1157 1516 1432 1527 1804 1590 1353 2192 1610 1804 2037 2064 2224 2303 2162 2470 2465 2607 3058 2985 3508 3493 3367 3617 3541 3707 3714 3561 3893 3679 3710 3342 2933 2645
2012 1987 1990 1940 1897 1738 1470 1024 1147 1256 1367 1216 1580 1528 1362 1523 1506 1864 1766 1950 1944 1958 1806 1889 2161 2028 2240 2750 2856 3302 3118 3364 3379 3606 3567 3491 3589 3368 3099 2912 3548 3133
2030 2019 1937 1907 1803 1644 1631 1363 1048 1032 1280 1181 1192 1312 1196 1016 1378 1410 1684 1771 1824 1860 1721 1715 2017 1924 1954 2591 2539 2890 2897 2802 2629 2795 3481 3372 3382 3375 3262 3100 2638 3078
1864 1998 2042 1877 1662 1564 1432 1373 1198 939 1208 1198 1011 1085 1118 1015 833 937 1051 1608 1628 1690 1668 1542 2006 2083 1943 1997 2562 2493 2711 2589 2468 2322 2272 2981 3224 3209 3099 2972 2936 2721
1547 1691 2053 2058 1688 1370 1259 1208 1021 971 917 1139 1110 926 951 1072 920 593 510 1358 1494 1408 1550 1332 1778 1963 1761 1654 2016 2372 2438 2424 2356 2417 2402 2069 2246 2470 3210 2736 2605 2538
1257 1366 1760 2104 1992 1450 1110 944 878 758 925 838 947 964 373 446 985 864 641 926 1417 1320 1490 1382 1286 1761 1544 1319 1270 1846 2352 2364 2274 2111 2154 2324 1995 1976 2129 2401 2463 2378
1697 1498 1457 1481 1780 1843 1493 1072 734 378 368 850 868 792 539 319 318 952 956 875 1176 1258 1181 1556 1280 1378 1496 1248 1098 1095 1541 2167 2181 2056 1863 1743 1996 2035 1894 1844 1865 1974
2228 1997 1671 1294 1320 1428 1574 1275 912 1538 999 232 908 788 631 458 244 357 958 1155 1185 1137 1039 1090 1411 1339 1387 1573 1388 1183 1147 1327 1704 1815 1777 1597 1472 1426 1527 1641 1691 1686
1521 1650 1849 1743 1513 1438 1224 1150 1204 2197 2042 1552 314 882 816 670 322 222 360 1043 1378 1249 1066 933 1087 1388 1341 1554 1775 1625 1462 1350 1206 1224 1419 1581 1510 1322 1190 1108 1045 1048
1504 1635 1938 1628 1549 1466 1468 1809 1900 1903 1658 1917 1258 1379 807 763 502 108 283 432 954 1321 1223 1047 977 1139 1554 1368 1594 1782 1623 1418 1350 1169 1010 1093 1278 1319 1192 1045 960 856
2478 2099 1857 2104 2190 2082 2226 1980 1765 1650 1767 1900 1596 1652 980 648 984 288 32 354 445 957 1173 1097 1014 1070 1209 1300 1274 1464 1603 1534 1334 1144 1043 964 833 862 930 910 832 829
1910 2328 2147 2454 2707 2546 2081 1968 2008 2061 2038 2180 1907 1331 1525 988 686 698 787 447 238 496 880 1041 1021 1013 1115 1220 1215 1199 1371 1536 1366 1216 973 790 792 730 638 662 693 659
1379 1683 2001 2052 2147 2159 1593 1676 1830 1779 1817 1830 1830 1545 1388 1552 907 738 784 800 991 168 417 746 910 959 998 1112 1209 1177 1187 1249 1289 1238 1069 779 258 310 327 338 399 421
1307 1376 1418 1704 1898 1772 1929 2112 1585 1534 1768 1930 1853 1798 1575 1344 1348 938 819 744 909 1259 959 318 670 784 902 966 1017 1090 1107 1090 1136 1102 999 852 415 107 146 169 139 188
835 949 1037 1194 1404 1519 1415 1610 1823 1720 1708 1665 1716 1818 1737 1532 1402 1217 1095 932 944 1135 1438 1527 542 636 204 621 655 831 878 1006 1013 978 906 786 534 147 11 9 35 87
594 681 714 939 1446 1196 1048 1268 1328 1571 1646 1727 1925 1693 1496 1551 1512 1359 1210 1043 1022 1240 1620 1662 1721 1324 1173 810 759 737 650 604 809 845 856 747 555 350 153 309 170 26
525 521 489 472 900 1086 1031 776 1123 1130 1504 1468 1473 1512 1470 1492 1390 1339 1252 1296 1479 1892 1930 1778 1710 1640 1504 1397 1454 1672 1598 1373 1133 866 624 654 489 474 460 467 493 512
253 706 379 450 554 815 1028 1155 1172 1242 1280 1900 2119 1854 1731 1679 1497 1443 1430 1495 1479 1548 2059 1898 1778 1718 1773 1543 1321 1367 1546 1723 1783 1608 1295 951 666 530 501 507 530 847
21 135 210 364 562 623 853 858 929 840 923 1222 1684 2258 2106 1866 1784 1653 1554 1631 1728 1694 1820 2074 1770 1648 1708 1687 1548 1352 1315 1518 1761 1751 1474 1246 1068 860 698 630 607 1030
0 11 18 10 312 686 850 1005 1281 1305 1100 1193 1501 1751 2041 2201 2107 1991 1966 1983 1939 1904 1939 2544 1973 1952 1813 1628 1705 1564 1476 1414 1500 1662 1582 1337 1157 1107 1048 899 769 717

ECMWFNIL_con_mucape_111.txt.gz
CAPE
1482 1484 1317 1324 1286 1251 1444 1743 1850 1920 1961 1830 1938 2197 2209 2189 2210 2421 2595 2534 2534 2690 2894 2951 2879 2666 2973 3090 3544 3573 3005 2683 2643 2490 2433 2460 2458 2500 2571 2629 2491 2474
1795 1751 1647 1480 1434 1442 1310 1391 1602 1724 1791 1701 1779 1933 1996 2098 2217 2406 2557 2592 2602 2690 2832 2917 2875 2773 2769 3210 3626 3531 3198 2992 2777 3035 2645 2609 2592 2617 2724 2847 2763 2838
1523 1749 1715 1600 1470 1425 1452 1485 1650 1659 1677 1597 1561 1636 1771 2012 2140 2319 2435 2565 2613 2575 2476 2492 2621 2693 2902 3158 3387 3492 3199 3461 3219 2957 3115 2910 2836 2838 2841 2810 2793 2950
1148 1404 1612 1593 1374 1332 1526 1621 1812 1784 1620 1540 1653 1758 1783 1936 2101 2190 2319 2803 2490 2505 2446 2398 2516 2723 3168 3436 3453 3454 3295 3240 3342 3050 2952 3098 3131 3019 2876 2840 3045 2977
1179 1216 1508 1717 1536 1392 1563 1633 1862 1895 1791 1651 1728 1930 1976 1974 2056 2123 2198 2264 2354 2405 2465 2478 2619 2720 3080 3422 3563 3490 3381 3157 3188 3384 3379 3337 3278 3134 2926 2852 2886 2881
1339 1272 1409 1637 1699 1527 1540 1681 1804 1966 1911 1812 1728 1926 2089 2056 2063 2042 2058 2095 2137 2277 2410 2480 2634 2724 2866 3052 3184 3319 3333 3258 2965 2877 3014 3158 3231 3284 3362 3343 3197 3230
1399 1407 1394 1530 1651 1691 1579 1613 1738 1902 2028 1945 1860 1880 2009 2189 2224 2204 2114 2039 2047 2163 2290 2504 2629 2700 2792 2894 2895 3072 3230 3264 3192 2905 2914 3023 3128 3262 3407 3542 3606 3602
1475 1440 1438 1472 1566 1615 1671 1657 1606 1657 1824 2058 2119 2114 2089 2106 2178 2238 2287 2293 2261 2149 2152 2404 2602 2684 2768 2877 2912 2904 3061 3201 3238 3162 3146 3142 3178 3229 3269 3320 3311 3282
1572 1560 1496 1490 1491 1508 1542 1602 1700 1667 1604 1654 1852 2091 2160 2126 2135 2135 2069 2115 2188 2190 2155 2148 2419 2614 2736 2841 2871 2844 2876 2997 3122 3195 3213 3231 3248 3248 3228 3212 3183 3070
1585 1608 1623 1574 1505 1467 1434 1432 1458 1556 1690 1704 1703 1718 1852 1967 2088 2146 2077 1918 2015 2176 2172 2115 2127 2313 2499 2640 2698 2726 2718 2720 2820 2951 3057 3073 3011 3010 3060 3067 3015 2939
1633 1669 1680 1676 1616 1500 1419 1389 1380 1372 1390 1467 1614 1681 1686 1665 1771 1954 1995 1863 1691 1919 2012 2024 2012 2023 2117 2257 2387 2496 2550 2562 2560 2585 2660 2661 2601 2605 2941 2656 2677 2712
1740 1723 1709 1698 1661 1578 1517 1477 1465 1442 1436 1396 1357 1365 1426 1469 1524 1611 1633 1536 1436 1445 1650 1780 1828 1858 1896 1987 2076 2130 2204 2308 2342 2342 2314 2269 2197 2158 2189 2381 2432 2453
1934 1869 1869 1836 1828 1815 1679 1535 1507 1492 1472 1443 1417 1414 1405 1324 1206 1157 1206 1251 1316 1318 1237 1403 1604 1710 1748 1726 1708 1730 1759 1794 1854 1922 1974 1984 1966 1920 1856 1801 1946 2115
2102 1932 2001 2039 2073 2060 1979 1823 1644 1540 1511 1451 1413 1451 1473 1408 1175 942 918 999 1121 1203 1214 1116 1189 1308 1355 1323 1288 1295 1324 1368 1451 1530 1582 1655 1713 1744 1736 1678 1603 1622
2028 1916 1867 2008 2034 2008 1965 1854 1797 1766 1665 1617 1562 1512 1456 1346 1194 957 744 828 892 988 1067 1064 1086 1126 1144 1128 1097 1117 1130 1142 1209 1333 1423 1456 1479 1529 1559 1558 1515 1488
1889 1874 1892 1939 1840 1771 1818 1797 1620 1463 1597 1632 1648 1482 1370 1208 1106 982 876 795 702 741 802 889 998 1040 1056 1060 1018 1010 1030 1050 1066 1118 1222 1327 1361 1339 1336 1339 1345 1334
1418 1716 1888 1810 1452 1243 1403 1549 1541 1422 1276 1415 1508 1487 1208 1034 865 749 708 670 677 695 684 658 690 741 838 878 902 910 921 915 921 932 930 985 1077 1133 1111 1045 1026 1057
1130 1216 1294 1257 1155 1058 964 1073 1185 1127 1184 1048 1054 1037 1265 900 735 656 574 560 595 618 629 642 644 606 574 573 515 702 750 793 802 786 761 509 506 543 583 608 584 613
1246 1269 1248 1306 1166 1198 1206 1159 960 843 750 886 1019 939 991 1022 1275 1224 909 649 538 556 561 581 595 603 594 536 492 30 0 658 707 731 705 653 329 280 282 275 274 313
1197 1164 1064 1024 1042 1119 1187 1177 1173 1100 1077 1056 1171 1294 1286 1285 1182 1289 1329 1245 952 667 530 522 544 558 574 588 590 510 455 524 576 625 660 672 660 633 514 332 292 265
1081 965 919 895 869 903 868 838 914 1063 983 1218 1268 1367 1377 1463 1347 1326 1307 1301 1292 1166 908 635 604 504 522 533 517 542 506 606 599 586 584 584 601 630 656 659 636 378
597 727 823 874 873 808 810 878 808 806 939 1003 1024 1154 1088 1069 1205 1250 1328 1308 1284 1258 1219 1145 947 878 822 804 861 888 795 642 571 580 618 626 629 628 614 600 321 386
452 510 572 619 668 696 730 761 823 847 829 889 898 968 1020 1060 1096 1138 1293 1495 1475 1358 1269 1227 1199 1148 1141 1106 1036 944 940 972 964 845 700 488 30 420 188 480 474 276
399 419 464 512 538 561 593 638 666 694 694 656 722 790 914 940 870 1196 1514 1676 1714 1683 1620 1590 1554 1548 1562 1564 1562 1489 1252 1092 1056 1059 1066 1114 1108 906 603 78 192 953
0 150 190 242 304 352 388 439 478 520 544 511 528 649 789 908 1265 1323 1445 1556 1571 1536 1688 1549 1463 1492 1603 1682 1621 1530 1492 1485 1454 1372 1274 1216 1220 1277 1302 1302 1224 1058
0 0 0 0 0 0 8 180 217 263 309 358 619 705 522 502 536 647 776 988 1078 1126 1135 1177 1208 1213 1260 1418 1587 1611 1555 1476 1487 1482 1501 1522 1518 1494 1453 1414 1405 1380

ECMWFNIL_con_mucape_114.txt.gz
CAPE
957 980 1047 1147 1337 1551 1715 1838 1930 1927 1972 2036 2073 2013 2077 2232 2360 2436 2666 2707 2656 2654 2687 2613 2721 2839 3004 2916 3287 3199 3229 2732 2685 2641 2641 2596 2514 2471 2619 2526 2634 2641
1070 1098 1351 1108 1183 1471 1537 1700 1826 1855 1890 1962 1994 1913 1948 2130 2318 2399 2538 2615 2728 2760 2637 2653 2620 2696 2860 3124 3201 3578 3374 3148 2871 2972 2608 2564 2578 2494 2669 2698 2758 2737
1236 1196 1336 1093 1118 1205 1234 1409 1604 1721 1783 1852 1924 1899 1846 2085 2233 2293 2449 2551 2558 2644 2657 2665 2674 2765 2825 2908 3122 3471 3442 3132 3112 2873 3222 2826 2598 2692 2818 2721 2705 2791
1343 1397 1377 1266 1207 1207 1267 1312 1371 1470 1576 1680 1768 1834 1750 1987 2096 2160 2271 3008 2563 2542 2571 2540 2609 2638 2776 2942 3062 3270 3266 3231 3289 3032 3086 3246 3088 2853 2848 2767 2961 3051
1048 1394 1567 1645 1671 1626 1551 1474 1476 1536 1491 1514 1578 1636 1908 1949 2082 2039 2110 2308 2536 2478 2480 2547 2537 2573 2792 2998 3101 3253 3212 3285 3134 3149 3064 3094 3011 3110 3039 2924 2884 2813
790 914 1204 1451 1591 1640 1526 1392 1462 1644 1637 1549 1548 1768 1834 1820 1909 2033 2057 2090 2223 2345 2410 2421 2539 2634 2728 2964 2999 3191 3258 3305 3256 3097 3194 3227 3189 3055 3279 3331 3151 3044
859 826 866 1193 1404 1488 1428 1365 1407 1745 1663 1664 1555 1654 1849 1858 1871 1926 1960 2009 2039 2274 2309 2449 2515 2649 2675 2814 2803 2986 3059 3157 3188 3143 3051 2839 2872 3051 3046 3454 3592 3398
909 898 872 1041 1246 1377 1489 1506 1446 1568 1740 1746 1681 1632 1706 1851 1876 1890 1906 1914 1965 2036 2196 2283 2453 2546 2508 2654 2712 2698 2773 2804 2908 3005 3058 3001 2807 2872 2933 2901 3187 3221
1016 1042 1023 1039 1182 1240 1401 1528 1563 1544 1595 1764 1836 1828 1790 1774 1783 1884 2002 2029 2118 2159 2186 2193 2287 2456 2487 2547 2625 2614 2661 2723 2930 2909 2919 2929 2913 2921 2930 2938 2944 2947
1194 1209 1199 1163 1166 1220 1279 1389 1529 1607 1604 1614 1725 1872 1937 1985 2008 2045 2061 2087 2106 2123 2102 2119 2133 2207 2392 2390 2497 2510 2561 2626 2668 2695 2771 2810 2847 2899 2837 2825 2844 2850
1233 1313 1337 1324 1274 1240 1259 1300 1368 1436 1529 1581 1632 1624 1613 1646 1691 1817 1899 1934 1936 1945 1995 2021 1977 1977 2076 2201 2278 2360 2416 2473 2506 2462 2445 2526 2596 2653 2923 2805 2667 2730
1300 1321 1379 1418 1414 1374 1313 1294 1301 1339 1341 1354 1357 1442 1509 1569 1598 1619 1635 1635 1626 1660 1745 1840 1817 1834 1850 1967 2020 2069 2144 2256 2310 2336 2269 2233 2236 2251 2280 2445 2526 2525
1387 1368 1385 1439 1471 1465 1459 1408 1374 1330 1313 1272 1222 1228 1265 1299 1316 1324 1338 1363 1392 1425 1503 1572 1574 1583 1635 1670 1700 1722 1780 1925 2007 2054 2103 2054 2013 2005 1996 1965 1960 2093
1596 1525 1493 1481 1479 1520 1538 1558 1528 1494 1451 1372 1318 1279 1272 1281 1299 1267 1277 1264 1311 1312 1254 1223 1239 1286 1292 1332 1393 1458 1522 1574 1638 1738 1764 1782 1782 1798 1697 1654 1645 1628
1752 1770 1695 1664 1570 1530 1533 1572 1631 1615 1562 1528 1506 1477 1422 1391 1342 1312 1299 1318 1355 1397 1328 1140 982 1039 1075 1155 1168 1195 1249 1319 1349 1331 1437 1511 1517 1476 1462 1441 1421 1445
1369 1455 1613 1924 1949 1783 1595 1555 1628 1766 1837 1843 1754 1625 1584 1561 1526 1528 1488 1435 1370 1265 1193 1120 1010 978 1036 983 1020 1158 1116 1056 1077 1090 1142 1252 1396 1397 1310 1247 1222 1222
1398 1515 1466 1705 1908 1872 1751 1581 1431 1540 1822 1865 1831 1724 1642 1572 1477 1355 1261 1180 1049 939 988 934 894 891 853 846 913 952 1047 1071 1032 1013 991 1078 1143 1273 1315 1337 1246 1161
1080 1271 1457 1600 1716 1724 1598 1473 1346 1344 1403 1531 1675 1647 1425 1343 1320 1210 1070 932 821 747 718 672 677 679 640 682 706 790 860 984 1080 992 916 869 872 965 1064 1146 1164 1045
899 939 1019 1112 1192 1190 1231 1356 1163 857 1056 1360 1598 1514 1353 1260 1186 1101 965 951 917 823 706 616 591 525 620 620 617 613 608 638 787 977 883 818 753 707 710 779 787 874
919 1016 1038 1046 1026 1007 1083 1096 1028 952 985 986 1074 1181 1218 1181 1056 899 750 804 910 1045 1000 883 796 694 583 569 579 554 558 543 556 570 651 705 756 679 564 601 540 588
778 851 877 899 937 951 949 960 992 997 1174 1079 944 850 810 847 865 814 739 794 804 795 824 954 1030 903 972 930 788 666 582 520 494 507 521 511 509 637 678 687 606 620
550 670 692 669 735 769 800 873 873 896 899 966 1014 1019 1020 1009 940 882 960 989 1037 992 957 955 877 744 816 1022 1384 1246 1068 924 853 787 714 634 552 529 516 611 706 682
374 364 341 391 308 396 521 681 770 766 843 842 809 821 860 902 924 875 830 950 1091 1146 1201 1172 1134 1109 1020 1298 1646 1631 1408 1277 1169 1104 1052 995 966 973 942 917 865 786
227 270 370 395 449 489 524 482 558 672 731 783 770 795 809 838 918 1028 1023 1117 1236 1169 1091 1204 1222 1279 1275 1470 1534 1630 1627 1530 1381 1200 1057 979 933 913 910 965 1012 1077
212 250 271 325 353 374 384 406 414 404 429 518 627 667 708 746 743 754 865 1029 1100 1074 1108 1143 1224 1337 1354 1342 1378 1498 1576 1583 1514 1453 1336 1217 1151 1156 1149 1133 1138 1138
0 0 0 8 145 166 39 358 385 277 284 308 408 472 501 542 484 534 564 684 755 747 790 939 908 907 1082 1240 1300 1274 1353 1480 1566 1467 1442 1421 1418 1453 1514 1503 1494 1434

ECMWFNIL_con_mucape_117.txt.gz
CAPE
2767 2687 2702 2703 2822 2751 3112 3253 3092 3096 3485 3062 2902 2942 3074 2928 3206 3390 3421 3486 3527 3447 3620 3844 3854 3881 3788 3914 4056 3990 4065 3898 3925 3929 4063 3764 3308 3206 2854 3242 3330 3352
2638 2714 2835 2601 3059 3192 3274 3223 3424 3396 3717 3741 3264 3221 3370 3332 3337 3426 3540 3570 3554 3488 3665 3521 3646 3771 3798 3702 4047 3948 4093 4170 4075 3688 3977 3883 3527 3347 3192 3235 3253 3640
2431 2606 2539 2428 2265 2559 2383 2883 3277 3283 3284 3096 3389 3586 3365 3210 3230 3686 3686 3657 3428 3180 3646 3674 3584 3639 3499 3624 3921 3876 3748 4218 4128 3940 4205 4045 3623 3413 3545 3043 3044 3352
2652 2448 2195 2098 2205 2422 2559 2844 3066 3181 3062 3284 3098 2867 3059 2702 3267 3500 3860 3795 3762 3556 3375 3439 3498 3402 3676 3760 4089 3905 3835 4013 4119 4589 4446 4436 4199 3496 3478 3578 3360 3190
2371 2597 2400 2301 2348 2576 2675 2514 2349 2670 2789 2844 2902 3132 3277 3416 3473 3154 3499 3772 4022 3677 3704 3765 3916 3804 4075 4007 4142 3856 3675 3519 3925 4538 4526 4516 4556 4048 3630 3683 3698 3454
2588 2811 2947 2750 2785 2694 2438 2452 2563 2561 2683 2648 2922 2830 2877 3260 3190 3089 3129 2920 2882 2976 3002 3120 3396 3520 3542 3936 4123 3960 3558 3300 3600 4272 4259 4332 4078 4080 3725 4008 4051 3819
1944 2438 2490 2650 2615 2683 2674 2803 2853 2904 2668 2564 3015 2948 2913 2933 3116 3199 3352 3204 2795 2987 2808 3294 3921 3732 3773 4004 4202 4296 4253 4104 4093 4260 4144 3923 4129 4022 3845 3742 3868 4113
1594 1818 2141 2416 2391 2614 2598 2711 2741 2867 2960 3074 2766 2953 2973 2806 3018 2837 3096 3179 2941 3192 3413 3350 3891 4302 3738 3765 4003 4191 4049 3494 3847 4188 4095 4046 4134 3996 3881 3750 3763 3969
1685 1804 1869 1905 1789 1991 1755 1665 2183 2527 2886 2894 2579 2590 2988 2904 2990 2836 3329 3428 3240 3345 3813 3670 4104 3818 3742 3891 3955 4112 4006 3325 3044 3526 3729 3704 3617 3848 3662 3684 3686 3678
2023 1832 1549 1527 1499 1621 1580 1573 1494 2010 2589 2535 2509 2427 2701 3104 3029 3037 3446 3731 3538 3666 3898 3841 3946 3802 3777 3856 4129 4124 4040 4189 3859 3789 3527 3495 3516 3362 3192 3484 3489 3487
1865 1853 1816 1765 1602 1575 1653 1615 1632 1601 2055 2203 2227 2246 2456 2698 3207 3273 3434 3587 3187 3431 3674 3852 3774 3802 3980 3570 3579 3685 3889 3517 3553 3826 3590 3691 3440 3551 3605 3416 3320 3296
2465 2155 1936 1975 1858 1750 1720 1666 1638 1679 1758 2017 2039 2161 2421 2323 2573 2805 2886 3358 3289 3151 3232 3559 3754 3786 3930 3810 3235 3290 3630 3617 3573 3769 3505 3515 3451 3288 3379 3372 3051 3129
2681 2215 2136 2039 2140 1957 1922 1913 1857 1777 1716 1668 1900 1972 2006 1910 1907 2292 2659 2721 3066 2954 2746 3123 3442 3331 3733 3861 3665 3432 3431 3678 3174 3396 3589 3566 3424 3135 2840 2771 2852 2854
2007 2176 2461 2544 2295 2393 2240 2086 2063 2019 2050 1976 1964 1915 1801 1678 1559 1566 1989 2190 2394 2511 2643 2754 3102 3105 3351 3501 3392 3179 3043 3197 3260 3091 2923 3073 3106 3191 2994 2582 2522 2479
1874 1911 2408 2590 2244 2244 2109 2076 2025 1986 2063 2021 1996 1997 1810 1741 1798 1739 1794 1953 2039 2334 2434 2400 2319 2565 2617 2878 2968 3101 2813 2647 2813 2947 2960 2957 3108 2784 2662 2932 2672 2326
1525 1544 1553 1546 1637 1576 1665 1836 1819 1930 1720 1786 2053 1907 1897 1864 1942 1934 1830 1832 1949 2197 2335 2192 2168 2170 2276 1772 1835 2212 2644 2418 2434 2820 2867 2701 2860 2877 2580 2454 2348 2154
1259 1367 1470 1650 1643 1525 1503 1537 1601 1647 1673 1559 1713 1771 1960 2135 1896 1704 1604 1491 1442 1533 1709 1701 1605 1543 1343 1021 871 786 1234 1727 2267 2584 2835 2899 2593 2768 2808 2397 2206 2324
1054 1082 1120 1149 1246 1354 1366 1482 1679 1800 1783 1713 1558 1548 1810 1556 1553 1867 1989 1565 1494 1329 1228 1170 1326 763 695 674 633 603 584 1144 1365 1706 1902 2174 2312 2185 2214 2174 2179 2055
1040 1064 1071 1098 1132 1162 1326 1493 1577 1647 1700 1713 1629 1460 1413 1398 1627 1440 1737 1650 1749 2008 1752 1546 1426 672 657 581 570 544 536 509 790 1138 1400 1604 1829 2102 2169 2135 2209 2114
806 774 750 896 885 1024 1200 1362 1435 1453 1471 1465 1376 1251 1336 1253 1147 1335 1463 1510 1416 1588 1708 1489 1673 893 825 886 917 938 666 501 718 887 1118 1300 1555 1768 1673 1746 1918 2032
768 843 796 770 779 838 931 1039 1117 1141 1049 1059 1203 1164 1329 1337 1459 1212 1306 1363 1321 1157 1101 1246 810 869 885 918 953 1135 1072 847 1070 909 975 1156 1243 1412 1667 1703 1742 1653
592 636 628 717 816 896 931 959 964 987 1000 976 923 903 1062 1055 1015 1188 1275 1324 1386 1355 1496 1078 855 847 834 861 841 999 1172 1162 1407 1582 1541 1386 1377 1435 1509 1638 1645 1701
429 456 410 398 584 625 657 800 823 901 935 918 850 782 789 805 853 887 1068 1317 1320 1314 1071 828 943 922 953 954 1066 1186 1244 1508 1451 1597 1688 1539 1438 1467 1412 1378 1378 1443
280 270 337 250 237 413 460 475 476 629 718 752 728 715 711 685 674 740 800 825 982 1088 1036 1019 959 937 878 901 1019 1144 1299 1372 1378 1449 1669 1596 1320 1275 1220 1437 1393 881
177 307 312 268 329 302 274 341 351 315 347 433 496 591 624 585 574 554 599 741 826 817 844 872 853 806 844 995 1108 1127 1137 1202 1307 1369 1672 1690 1738 1615 1608 1475 1659 1338
273 294 145 3 206 236 246 226 161 208 148 205 239 255 268 256 300 372 374 320 308 645 692 745 816 869 921 911 866 937 976 998 1060 1070 1118 1160 1197 1260 1618 1874 1908 2018

ECMWFNIL_con_mucape_120.txt.gz
CAPE
2835 3035 2815 2694 2894 2654 2856 2982 2957 3133 3185 2947 2516 2443 2827 3199 3456 3483 3699 3794 3652 3555 3492 3682 3401 3369 3291 3551 3849 3536 3542 3540 3951 3882 3678 3600 3672 3100 2750 2800 2687 2556
2400 2706 2635 2610 2811 3117 3260 3132 3211 3191 3438 3243 3002 2936 2799 3025 3464 3723 3602 3607 3451 3279 3586 3358 3458 3436 3556 3583 3806 3858 4295 4234 3565 3562 3775 4040 3564 2940 2665 2644 2406 2496
2130 2299 2480 2569 2398 2610 2357 2808 3207 3104 2979 2645 2821 3173 3052 2588 3309 3582 3815 3636 3282 3143 3462 3531 3668 3478 3618 3962 4210 3715 3696 5016 4068 3747 4151 4117 3634 3228 3107 2670 2740 3043
2192 2121 2075 2042 2154 2326 2441 2793 3190 3121 3018 3080 2985 2712 2690 2573 2947 3186 3816 3413 3602 3556 3329 3408 3351 3397 3497 3750 4198 3749 4249 4117 3967 4816 4796 4531 4200 3732 3477 3486 2993 2900
1951 2018 1856 2138 2108 2340 2659 2655 2517 2612 2866 2905 2705 2839 2638 3046 2637 3109 3275 3449 3630 3584 3483 3528 3230 3528 3718 3915 3876 3758 3970 3925 4060 4606 4651 4844 5001 4461 3597 3454 3698 3233
2026 2057 1978 1902 2276 2627 2399 2486 2518 2601 2744 2717 2792 2719 2638 2924 2754 2812 2889 2907 2913 2819 2898 2988 3197 3268 3455 4056 4016 3985 3648 3124 3179 4630 4432 4585 3929 3688 3715 3956 4342 3905
1794 1974 1807 1638 1860 2126 2197 2364 2590 2742 2464 2468 2739 2730 2686 2699 2566 2829 2882 2716 2613 2739 2621 3034 3378 3403 3373 3972 4106 4125 3724 3354 3925 4496 4072 3990 4296 4392 3636 3539 3579 3550
1641 1608 1572 1403 1429 1587 1722 2149 2578 2820 2955 2879 2716 2734 2766 2590 2792 2728 2695 2913 2695 2784 2885 3132 3445 3365 3208 3264 3638 3846 4032 3566 3622 3642 3831 3709 3847 3850 3618 3200 3288 3384
1380 1397 1465 1428 1220 1142 1323 1359 2091 2496 2791 2767 2233 2292 2571 2685 2652 2542 2955 3182 3030 3174 3538 3490 3688 3545 3280 3575 3788 3872 3954 3397 2871 3237 3386 3362 3327 3383 3493 3466 3304 3310
1434 1282 1062 1126 980 920 930 958 913 1522 1968 2212 1872 1803 2239 2361 2570 2718 3121 3414 3351 3460 3701 3700 3828 3504 3327 3508 3770 3767 3550 3290 3032 2810 2546 2552 2694 2701 2368 2539 2717 2958
1265 1097 934 898 716 584 692 693 685 604 1364 1471 1342 1441 1658 2220 2357 2472 3050 3532 3116 3383 3666 3688 3668 3623 3508 3245 3281 3258 3288 2838 2926 2782 2738 2550 2384 2450 2477 2347 2140 2012
1871 1542 1273 1124 864 579 536 616 527 546 781 1063 1083 1073 1434 1636 2191 2206 2157 2627 2716 2994 3250 3655 3555 3657 3740 3583 2995 2894 2756 2386 2134 2385 2215 2134 1966 1738 1827 2037 1792 2060
2576 1823 1599 1294 1408 1089 693 667 724 632 521 575 660 719 946 1093 1087 1531 1748 2001 2210 2181 2080 2676 2967 2873 3190 3154 2914 2580 2486 2547 2154 1761 1771 1712 1736 1433 1153 1105 1180 1252
2906 2602 2452 2172 1948 2004 1785 1283 1079 849 979 923 879 909 835 671 712 811 1258 1587 1700 1684 1770 1860 2335 2519 2783 3028 2775 2455 2283 2284 2270 1938 1482 1363 1222 1349 1240 913 850 918
2800 2729 2592 2787 2798 2968 2858 2154 1841 1762 1858 1891 1862 1286 747 576 664 596 721 1034 1212 1537 1620 1544 1446 1902 2008 2384 2409 2471 2138 1914 1846 1883 1622 1500 1446 1288 1141 1195 1147 1009
2425 2321 2243 2595 2547 2569 2591 2691 2473 2400 2135 2278 1956 1971 1454 1369 1076 1042 942 958 1300 1630 1873 1668 1361 1273 1892 2454 2376 2178 2207 1809 1732 1833 2016 1812 1780 1898 1488 1255 1057 921
2170 1915 2244 2455 2465 2579 2736 2549 2543 2330 2352 2472 2365 2367 2402 2396 2566 1819 1307 761 936 1157 1347 1468 1317 800 2780 1870 1676 1124 1913 2210 2430 2647 2852 2831 2475 2300 2143 1571 1310 1146
1891 1820 1778 1991 2245 2498 2366 2392 2463 2512 2484 2661 2467 2177 2492 2054 2153 2232 2133 1767 1196 1214 1028 855 621 986 1387 1383 1188 886 1166 1901 1818 1814 1756 1875 2064 1876 1853 1727 1333 1160
1513 1528 1385 1512 1746 1875 2040 2113 2202 2142 2279 2388 2592 2684 2371 2258 2152 1972 2130 2371 1990 1853 1583 1138 1074 956 884 926 807 667 564 751 1412 1368 1334 1253 1264 1718 1795 1917 2149 1902
1466 1573 1550 1544 1375 1275 1112 1369 1659 1810 2029 2135 2259 2474 2408 2465 2358 2281 2396 2506 2464 2393 2299 2189 1667 1200 1166 952 757 638 535 510 1061 1345 1258 1200 1250 1448 1493 1541 2082 2559
1255 1370 1573 1509 1390 1215 1322 1422 1415 1442 1645 1817 2136 2303 2236 1878 2185 2125 2208 2264 2350 2374 2273 1905 1332 1262 1171 989 836 889 942 826 1019 1474 1280 1241 1435 1737 2332 2128 2101 2324
682 693 1006 823 759 853 794 849 1018 1297 1188 1200 1609 1595 1525 1857 1851 1772 1894 2064 2242 2267 2078 1545 1376 1189 1072 1008 849 774 784 956 1492 2029 2262 1916 1891 2111 2375 2809 2757 2756
596 583 649 672 650 648 682 702 759 788 856 1007 984 1076 1449 1441 1360 1442 1869 1956 2150 2188 1954 1378 1298 1213 1160 1057 928 1034 1024 1578 2023 2294 2244 1992 2081 2369 2602 2595 2588 2784
360 397 474 526 561 620 676 682 742 758 814 827 778 847 936 902 720 811 970 1287 1462 1222 1086 1058 1025 996 915 850 796 805 1185 2212 2609 2421 2013 1460 2161 2218 2333 2368 2273 1945
304 300 349 364 330 427 496 522 589 587 471 534 633 649 687 692 628 622 600 690 957 1039 990 939 914 852 816 797 799 778 798 1306 2139 2246 2102 1918 2393 2003 2244 2322 2564 1896
265 238 221 238 249 315 326 337 315 337 365 384 384 365 397 395 416 477 497 506 571 627 728 716 686 700 763 801 821 863 896 904 1130 1493 1751 1598 1250 1698 1863 2050 1852 1637